[[{"header":{"parameterUnit":"m.s-1","parameterCategory":1,"la1":31.0,"la2":29.5877,"lo1":-88.7671,"lo2":-86.6584,"dy":0.0162,"dx":0.0185,"nx":115,"ny":88,"refTime":"2024-05-23T00:00:00:Z","depth":0,"parameterNumber":2,"parameterNumberName":"U-component_of_WINDS"},"data":[0.0,0.0,0.0,0.0,0.0,0.0,0.0,0.0,0.0,0.0,0.0,0.0,0.0,0.0,0.0,0.0,0.0,0.0,0.0,0.0,0.0,0.0,0.0,0.0,0.0,0.0,0.0,0.0,0.0,0.0,0.0,0.0,0.0,0.0,0.0,0.0,0.0,0.0,0.0,0.0,0.0,0.0,0.0,0.0,0.0,0.0,0.0,0.0,0.0,0.0,0.0,0.0,0.0,0.0,0.0,0.0,0.0,0.0,0.0,0.0,0.0,0.0,0.0,0.0,0.0,0.0,0.0,0.0,0.0,0.0,0.0,0.0,0.0,0.0,0.0,0.0,0.0,0.0,0.0,0.0,0.0,0.0,0.0,0.0,0.0,0.0,0.0,0.0,0.0,0.0,0.0,0.0,0.0,0.0,0.0,0.0,0.0,0.0,0.0,0.0,0.0,0.0,0.0,0.0,0.0,0.0,0.0,0.0,0.0,0.0,0.0,0.0,0.0,0.0,0.0,0.0,0.0,0.0,0.0,0.0,0.0,0.0,0.0,0.0,0.0,0.0,0.0,0.0,0.0,0.0,0.0,0.0,0.0,0.0,0.0,0.0,0.0,0.0,0.0,0.0,0.0,0.0,0.0,0.0,0.0,0.0,0.0,0.0,0.0,0.0,0.0,0.0,0.0,0.0,0.0,0.0,0.0,0.0,0.0,0.0,0.0,0.0,0.0,0.0,0.0,0.0,0.0,0.0,0.0,0.0,0.0,0.0,0.0,0.0,0.0,0.0,0.0,0.0,0.0,0.0,0.0,0.0,0.0,0.0,0.0,0.0,0.0,0.0,0.0,0.0,0.0,0.0,0.0,0.0,0.0,0.0,0.0,0.0,0.0,0.0,0.0,0.0,0.0,0.0,0.0,0.0,0.0,0.0,0.0,0.0,0.0,0.0,0.0,0.0,0.0,0.0,0.0,0.0,0.0,0.0,0.0,0.0,0.0,0.0,0.0,0.0,0.0,0.0,0.0,0.0,0.0,0.0,0.0,0.0,0.0,0.0,0.0,0.0,0.0,0.0,0.0,0.0,0.0,0.0,0.0,0.0,0.0,0.0,0.0,0.0,0.0,0.0,0.0,0.0,0.0,0.0,0.0,0.0,0.0,0.0,0.0,0.0,0.0,0.0,0.0,0.0,0.0,0.0,0.0,0.0,0.0,0.0,0.0,0.0,0.0,0.0,0.0,0.0,0.0,0.0,0.0,0.0,0.0,0.0,0.0,0.0,0.0,0.0,0.0,0.0,0.0,0.0,0.0,0.0,0.0,0.0,0.0,0.0,0.0,0.0,0.0,0.0,0.0,0.0,0.0,0.0,0.0,0.0,0.0,0.0,0.0,0.0,0.0,0.0,0.0,0.0,0.0,0.0,0.0,0.0,0.0,0.0,0.0,0.0,0.0,0.0,0.0,0.0,0.0,0.0,0.0,0.0,0.0,0.0,0.0,0.0,0.0,0.0,0.0,0.0,0.0,0.0,0.0,0.0,0.0,0.0,0.0,0.0,0.0,0.0,0.0,0.0,0.0,0.0,0.0,0.0,0.0,0.0,0.0,0.0,0.0,0.0,0.0,0.0,0.0,0.0,0.0,0.0,0.0,0.0,0.0,0.0,0.0,0.0,0.0,0.0,0.0,0.0,0.0,0.0,0.0,0.0,0.0,0.0,0.0,0.0,0.0,0.0,0.0,0.0,0.0,0.0,0.0,0.0,0.0,0.0,0.0,0.0,0.0,0.0,0.0,0.0,0.0,0.0,0.0,0.0,0.0,0.0,0.0,0.0,0.0,0.0,0.0,0.0,0.0,0.0,0.0,0.0,0.0,0.0,0.0,0.0,0.0,0.0,0.0,0.0,0.0,0.0,0.0,0.0,0.0,0.0,0.0,0.0,0.0,0.0,0.0,0.0,0.0,0.0,0.0,0.0,0.0,0.0,0.0,0.0,0.0,0.0,0.0,0.0,0.0,0.0,0.0,0.0,0.0,0.0,0.0,0.0,0.0,0.0,0.0,0.0,0.0,0.0,0.0,0.0,0.0,0.0,0.0,0.0,0.0,0.0,0.0,0.0,0.0,0.0,0.0,0.0,0.0,0.0,0.0,0.0,0.0,0.0,0.0,0.0,0.0,0.0,0.0,0.0,0.0,0.0,0.0,0.0,0.0,0.0,0.0,0.0,0.0,0.0,0.0,0.0,0.0,0.0,0.0,0.0,0.0,0.0,0.0,0.0,0.0,0.0,0.0,0.0,0.0,0.0,0.0,0.0,0.0,0.0,0.0,0.0,0.0,0.0,0.0,0.0,0.0,0.0,0.0,0.0,0.0,0.0,0.0,0.0,0.0,0.0,0.0,0.0,0.0,0.0,0.0,0.0,0.0,0.0,0.0,0.0,0.0,0.0,0.0,0.0,0.0,0.0,0.0,0.0,0.0,0.0,0.0,0.0,0.0,0.0,0.0,0.0,0.0,0.0,0.0,0.0,0.0,0.0,0.0,0.0,0.0,0.0,0.0,0.0,0.0,0.0,0.0,0.0,0.0,0.0,0.0,0.0,0.0,0.0,0.0,0.0,0.0,0.0,0.0,0.0,0.0,0.0,0.0,0.0,0.0,0.0,0.0,0.0,0.0,0.0,0.0,0.0,0.0,0.0,0.0,0.0,0.0,0.0,0.0,0.0,0.0,0.0,0.0,0.0,0.0,0.0,0.0,0.0,0.0,0.0,0.0,0.0,0.0,0.0,0.0,0.0,0.0,0.0,0.0,0.0,0.0,0.0,0.0,0.0,0.0,0.0,0.0,0.0,0.0,0.0,0.0,0.0,0.0,0.0,0.0,0.0,0.0,0.0,0.0,0.0,0.0,0.0,0.0,0.0,0.0,0.0,0.0,0.0,0.0,0.0,0.0,0.0,0.0,0.0,0.0,0.0,0.0,0.0,0.0,0.0,0.0,0.0,0.0,0.0,0.0,0.0,0.0,0.0,0.0,0.0,0.0,0.0,0.0,0.0,0.0,0.0,0.0,0.0,0.0,0.0,0.0,0.0,0.0,0.0,0.0,0.0,0.0,0.0,0.0,0.0,0.0,0.0,0.0,0.0,0.0,0.0,0.0,0.0,0.0,0.0,0.0,0.0,0.0,0.0,0.0,0.0,0.0,0.0,0.0,0.0,0.0,0.0,0.0,0.0,0.0,0.0,0.0,0.0,0.0,0.0,0.0,0.0,0.0,0.0,0.0,0.0,0.0,0.0,0.0,0.0,0.0,0.0,0.0,0.0,0.0,0.0,0.0,0.0,0.0,0.0,0.0,0.0,0.0,0.0,0.0,0.0,0.0,0.0,0.0,0.0,0.0,0.0,0.0,0.0,0.0,0.0,0.0,0.0,0.0,0.0,0.0,0.0,0.0,0.0,0.0,0.0,0.0,0.0,0.0,0.0,0.0,0.0,0.0,0.0,0.0,0.0,0.0,0.0,0.0,0.0,0.0,0.0,0.0,0.0,0.0,0.0,0.0,0.0,0.0,0.0,0.0,0.0,0.0,0.0,0.0,0.0,0.0,0.0,0.0,0.0,0.0,0.0,0.0,0.0,0.0,0.0,0.0,0.0,0.0,0.0,0.0,0.0,0.0,0.0,0.0,0.0,0.0,0.0,0.0,0.0,0.0,0.0,0.0,0.0,0.0,0.0,0.0,0.0,0.0,0.0,0.0,0.0,0.0,0.0,0.0,0.0,0.0,0.0,0.0,0.0,0.0,0.0,0.0,0.0,0.0,0.0,0.0,0.0,0.0,0.0,0.0,0.0,0.0,0.0,0.0,0.0,0.0,0.0,0.0,0.0,0.0,0.0,0.0,0.0,0.0,0.0,0.0,0.0,0.0,0.0,0.0,0.0,0.0,0.0,0.0,0.0,0.0,0.0,0.0,0.0,0.0,0.0,0.0,0.0,0.0,0.0,0.0,0.0,0.0,0.0,0.0,0.0,0.0,0.0,0.0,0.0,0.0,0.0,0.0,0.0,0.0,0.0,0.0,0.0,0.0,0.0,0.0,0.0,0.0,0.0,0.0,0.0,0.0,0.0,0.0,0.0,0.0,0.0,0.0,0.0,0.0,0.0,0.0,0.0,0.0,0.0,0.0,0.0,0.0,0.0,0.0,0.0,0.0,0.0,0.0,0.0,0.0,0.0,0.0,0.0,0.0,0.0,0.0,0.0,0.0,0.0,0.0,0.0,0.0,0.0,0.0,0.0,0.0,0.0,0.0,0.0,-4.5012,0.0,0.0,0.0,0.0,0.0,0.0,0.0,0.0,0.0,0.0,0.0,0.0,0.0,0.0,0.0,0.0,0.0,0.0,0.0,0.0,0.0,0.0,0.0,0.0,0.0,0.0,0.0,0.0,0.0,0.0,0.0,0.0,0.0,0.0,0.0,0.0,0.0,0.0,0.0,0.0,0.0,0.0,0.0,0.0,0.0,0.0,0.0,0.0,0.0,0.0,0.0,0.0,0.0,0.0,0.0,0.0,0.0,0.0,0.0,0.0,0.0,0.0,0.0,0.0,0.0,0.0,0.0,0.0,0.0,0.0,0.0,0.0,0.0,0.0,0.0,0.0,0.0,0.0,0.0,0.0,0.0,0.0,0.0,0.0,0.0,0.0,0.0,0.0,0.0,0.0,0.0,0.0,0.0,0.0,0.0,0.0,0.0,0.0,0.0,0.0,0.0,0.0,0.0,0.0,0.0,0.0,0.0,0.0,0.0,0.0,-4.541,-4.5348,-4.5286,-4.5181,-4.5007,0.0,0.0,0.0,0.0,0.0,0.0,0.0,0.0,0.0,0.0,0.0,0.0,0.0,0.0,0.0,0.0,0.0,0.0,0.0,0.0,0.0,0.0,0.0,0.0,0.0,0.0,0.0,0.0,0.0,0.0,0.0,0.0,0.0,0.0,0.0,0.0,0.0,0.0,0.0,0.0,0.0,0.0,0.0,0.0,0.0,0.0,0.0,0.0,0.0,0.0,0.0,0.0,0.0,0.0,0.0,0.0,0.0,0.0,0.0,0.0,0.0,0.0,0.0,0.0,0.0,0.0,0.0,0.0,0.0,0.0,0.0,0.0,0.0,0.0,0.0,0.0,0.0,0.0,0.0,0.0,0.0,0.0,0.0,0.0,0.0,0.0,0.0,0.0,0.0,0.0,0.0,0.0,0.0,0.0,0.0,0.0,0.0,0.0,0.0,0.0,0.0,0.0,0.0,0.0,0.0,0.0,0.0,0.0,0.0,0.0,0.0,0.0,-4.5203,-4.489,-4.4259,0.0,0.0,0.0,0.0,0.0,0.0,0.0,0.0,0.0,0.0,0.0,0.0,0.0,0.0,0.0,0.0,0.0,0.0,0.0,0.0,0.0,0.0,0.0,0.0,0.0,0.0,0.0,0.0,0.0,0.0,0.0,0.0,0.0,0.0,0.0,0.0,0.0,0.0,0.0,0.0,0.0,0.0,0.0,0.0,0.0,0.0,0.0,0.0,0.0,0.0,0.0,0.0,0.0,0.0,0.0,0.0,0.0,0.0,0.0,0.0,0.0,0.0,0.0,0.0,0.0,0.0,0.0,0.0,0.0,0.0,0.0,0.0,0.0,0.0,0.0,0.0,0.0,0.0,0.0,0.0,0.0,0.0,0.0,0.0,0.0,0.0,0.0,0.0,0.0,0.0,0.0,0.0,0.0,0.0,0.0,0.0,0.0,0.0,0.0,0.0,0.0,0.0,0.0,0.0,0.0,0.0,0.0,0.0,0.0,0.0,-4.5331,-4.5213,-4.5148,0.0,-4.2505,0.0,0.0,0.0,0.0,0.0,0.0,0.0,0.0,0.0,0.0,0.0,0.0,0.0,0.0,0.0,0.0,0.0,0.0,0.0,0.0,0.0,0.0,0.0,0.0,0.0,0.0,0.0,0.0,0.0,0.0,0.0,0.0,0.0,0.0,0.0,0.0,0.0,0.0,0.0,0.0,0.0,0.0,0.0,0.0,0.0,0.0,0.0,0.0,0.0,0.0,0.0,0.0,0.0,0.0,0.0,0.0,0.0,0.0,0.0,0.0,0.0,0.0,0.0,0.0,0.0,0.0,0.0,0.0,0.0,0.0,0.0,0.0,0.0,0.0,0.0,0.0,0.0,0.0,0.0,0.0,0.0,0.0,0.0,0.0,0.0,0.0,0.0,0.0,0.0,0.0,0.0,0.0,0.0,0.0,0.0,0.0,0.0,0.0,0.0,0.0,0.0,0.0,0.0,0.0,0.0,0.0,0.0,0.0,0.0,0.0,-4.5816,-4.5148,-4.4974,-4.421,0.0,0.0,0.0,0.0,0.0,0.0,0.0,0.0,0.0,0.0,0.0,0.0,0.0,0.0,0.0,0.0,0.0,0.0,0.0,0.0,0.0,0.0,0.0,0.0,0.0,0.0,0.0,0.0,0.0,0.0,0.0,0.0,0.0,0.0,0.0,0.0,0.0,0.0,0.0,0.0,0.0,0.0,0.0,0.0,0.0,0.0,0.0,0.0,0.0,0.0,0.0,0.0,0.0,0.0,0.0,0.0,0.0,0.0,0.0,0.0,0.0,0.0,0.0,0.0,0.0,0.0,0.0,0.0,0.0,0.0,0.0,0.0,0.0,0.0,0.0,0.0,0.0,0.0,0.0,0.0,0.0,0.0,0.0,0.0,0.0,0.0,0.0,0.0,0.0,0.0,0.0,0.0,0.0,0.0,0.0,0.0,0.0,0.0,0.0,0.0,0.0,0.0,0.0,0.0,0.0,0.0,0.0,0.0,0.0,0.0,-4.6299,-4.6222,-4.5479,-4.5193,-4.4382,-4.298,0.0,0.0,0.0,0.0,0.0,0.0,0.0,0.0,0.0,0.0,0.0,0.0,0.0,0.0,0.0,0.0,0.0,0.0,0.0,0.0,0.0,0.0,0.0,0.0,0.0,0.0,0.0,0.0,0.0,0.0,0.0,0.0,0.0,0.0,0.0,0.0,0.0,0.0,0.0,0.0,0.0,0.0,0.0,0.0,0.0,0.0,0.0,0.0,0.0,0.0,0.0,0.0,0.0,0.0,0.0,0.0,0.0,0.0,0.0,0.0,0.0,0.0,0.0,0.0,0.0,0.0,0.0,0.0,0.0,0.0,0.0,0.0,0.0,0.0,0.0,0.0,0.0,0.0,0.0,0.0,0.0,0.0,0.0,0.0,0.0,0.0,0.0,0.0,0.0,0.0,0.0,0.0,0.0,0.0,0.0,0.0,0.0,0.0,0.0,0.0,0.0,0.0,0.0,0.0,0.0,0.0,0.0,0.0,-4.6508,-4.6585,-4.6498,-4.6257,-4.6057,-4.4689,0.0,0.0,0.0,0.0,0.0,0.0,0.0,0.0,0.0,0.0,0.0,0.0,0.0,0.0,0.0,0.0,0.0,0.0,0.0,0.0,0.0,0.0,0.0,0.0,0.0,0.0,0.0,0.0,0.0,0.0,0.0,0.0,0.0,0.0,0.0,0.0,0.0,0.0,0.0,0.0,0.0,0.0,0.0,0.0,0.0,0.0,0.0,0.0,0.0,0.0,0.0,0.0,0.0,0.0,0.0,0.0,0.0,0.0,0.0,0.0,0.0,0.0,0.0,0.0,0.0,0.0,0.0,0.0,0.0,0.0,0.0,0.0,0.0,0.0,0.0,0.0,0.0,0.0,0.0,0.0,0.0,0.0,0.0,0.0,0.0,0.0,0.0,0.0,0.0,0.0,0.0,0.0,0.0,0.0,0.0,0.0,0.0,0.0,0.0,0.0,0.0,0.0,0.0,0.0,0.0,0.0,0.0,0.0,0.0,-4.6613,-4.7021,-4.7182,-4.7005,-4.6352,-4.4681,0.0,0.0,0.0,0.0,0.0,0.0,0.0,0.0,0.0,0.0,0.0,0.0,0.0,0.0,0.0,0.0,0.0,0.0,0.0,0.0,0.0,0.0,0.0,0.0,0.0,0.0,0.0,0.0,0.0,0.0,0.0,0.0,0.0,0.0,0.0,0.0,0.0,0.0,0.0,0.0,0.0,0.0,0.0,0.0,0.0,0.0,0.0,0.0,0.0,0.0,0.0,0.0,0.0,0.0,0.0,0.0,0.0,0.0,0.0,0.0,0.0,0.0,0.0,0.0,0.0,0.0,0.0,0.0,0.0,0.0,0.0,0.0,0.0,0.0,0.0,0.0,0.0,0.0,0.0,0.0,0.0,0.0,0.0,0.0,0.0,0.0,0.0,0.0,0.0,0.0,0.0,0.0,0.0,0.0,0.0,0.0,0.0,0.0,0.0,0.0,0.0,0.0,0.0,0.0,0.0,0.0,0.0,0.0,0.0,-4.7395,0.0,-4.82,0.0,-4.69,-4.5194,0.0,0.0,0.0,0.0,0.0,0.0,0.0,0.0,0.0,0.0,0.0,0.0,0.0,0.0,0.0,0.0,0.0,0.0,0.0,0.0,0.0,0.0,0.0,0.0,0.0,0.0,0.0,0.0,0.0,0.0,0.0,0.0,0.0,0.0,0.0,0.0,0.0,0.0,0.0,0.0,0.0,0.0,0.0,0.0,0.0,0.0,0.0,0.0,0.0,0.0,0.0,0.0,0.0,0.0,0.0,0.0,0.0,0.0,0.0,0.0,0.0,0.0,0.0,0.0,0.0,0.0,0.0,0.0,0.0,0.0,0.0,0.0,0.0,0.0,0.0,0.0,0.0,0.0,0.0,0.0,0.0,0.0,0.0,0.0,0.0,0.0,0.0,0.0,0.0,0.0,0.0,0.0,0.0,0.0,0.0,0.0,0.0,0.0,0.0,0.0,0.0,0.0,0.0,0.0,0.0,0.0,0.0,0.0,-4.7398,-4.906,-4.977,-4.9645,-4.8642,-4.7713,-4.6285,0.0,0.0,0.0,0.0,0.0,0.0,0.0,0.0,0.0,0.0,0.0,0.0,0.0,0.0,0.0,0.0,0.0,0.0,0.0,0.0,0.0,0.0,0.0,0.0,0.0,0.0,0.0,0.0,0.0,0.0,0.0,0.0,0.0,0.0,0.0,0.0,0.0,0.0,0.0,0.0,0.0,0.0,0.0,0.0,0.0,0.0,0.0,0.0,0.0,0.0,0.0,0.0,0.0,0.0,0.0,0.0,0.0,0.0,0.0,0.0,0.0,0.0,0.0,0.0,0.0,0.0,0.0,0.0,0.0,0.0,0.0,0.0,0.0,0.0,0.0,0.0,0.0,0.0,0.0,0.0,0.0,0.0,0.0,0.0,0.0,0.0,0.0,0.0,0.0,0.0,0.0,0.0,0.0,0.0,0.0,0.0,0.0,0.0,0.0,0.0,0.0,0.0,0.0,0.0,0.0,0.0,0.0,0.0,0.0,-5.0799,-5.1535,-5.1148,-4.9612,-4.8624,-4.6911,0.0,0.0,0.0,0.0,0.0,0.0,0.0,0.0,0.0,0.0,0.0,0.0,0.0,0.0,0.0,0.0,0.0,0.0,0.0,0.0,0.0,0.0,0.0,0.0,0.0,0.0,0.0,0.0,0.0,0.0,0.0,0.0,0.0,0.0,0.0,0.0,0.0,0.0,0.0,0.0,0.0,0.0,0.0,0.0,0.0,0.0,0.0,0.0,0.0,0.0,0.0,0.0,0.0,0.0,0.0,0.0,0.0,0.0,0.0,0.0,0.0,0.0,0.0,0.0,0.0,0.0,0.0,0.0,0.0,0.0,0.0,0.0,0.0,0.0,0.0,0.0,0.0,0.0,0.0,0.0,0.0,0.0,0.0,0.0,0.0,0.0,0.0,0.0,0.0,0.0,0.0,0.0,0.0,0.0,0.0,0.0,0.0,0.0,0.0,0.0,0.0,0.0,0.0,0.0,0.0,0.0,0.0,0.0,0.0,-5.3013,-5.3162,-5.2641,-5.1399,-5.0103,-4.8272,-4.581,0.0,0.0,0.0,0.0,0.0,0.0,0.0,0.0,0.0,0.0,0.0,0.0,0.0,0.0,0.0,0.0,0.0,0.0,0.0,0.0,0.0,0.0,0.0,0.0,0.0,0.0,0.0,0.0,0.0,0.0,0.0,0.0,0.0,0.0,0.0,0.0,0.0,0.0,0.0,0.0,0.0,0.0,0.0,0.0,0.0,0.0,0.0,0.0,0.0,0.0,0.0,0.0,0.0,0.0,0.0,0.0,0.0,0.0,0.0,0.0,0.0,0.0,0.0,0.0,0.0,0.0,0.0,0.0,0.0,0.0,0.0,0.0,0.0,0.0,0.0,0.0,0.0,0.0,0.0,0.0,0.0,0.0,0.0,0.0,0.0,0.0,0.0,0.0,0.0,0.0,0.0,0.0,0.0,0.0,0.0,0.0,0.0,0.0,0.0,0.0,0.0,0.0,0.0,0.0,0.0,0.0,0.0,0.0,-5.551,-5.4772,-5.4186,-5.3722,-5.2002,-5.0097,0.0,0.0,0.0,0.0,0.0,0.0,0.0,0.0,0.0,0.0,0.0,0.0,0.0,0.0,0.0,0.0,0.0,0.0,0.0,0.0,0.0,0.0,0.0,0.0,0.0,0.0,0.0,0.0,0.0,0.0,0.0,0.0,0.0,0.0,0.0,0.0,0.0,0.0,0.0,0.0,0.0,0.0,0.0,0.0,0.0,0.0,0.0,0.0,0.0,0.0,0.0,0.0,0.0,0.0,0.0,0.0,0.0,0.0,0.0,0.0,0.0,0.0,0.0,0.0,0.0,0.0,0.0,0.0,0.0,0.0,0.0,0.0,0.0,0.0,0.0,0.0,0.0,0.0,0.0,0.0,0.0,0.0,0.0,0.0,0.0,0.0,0.0,0.0,0.0,0.0,0.0,0.0,0.0,0.0,0.0,0.0,0.0,0.0,0.0,0.0,0.0,0.0,0.0,0.0,0.0,0.0,0.0,0.0,0.0,-5.5845,-5.6921,-5.6564,-5.4562,-5.284,-5.0651,0.0,0.0,0.0,0.0,0.0,0.0,0.0,0.0,0.0,0.0,0.0,0.0,0.0,0.0,0.0,0.0,0.0,0.0,0.0,0.0,0.0,0.0,0.0,0.0,0.0,0.0,0.0,0.0,0.0,0.0,0.0,0.0,0.0,0.0,0.0,0.0,0.0,0.0,0.0,0.0,0.0,0.0,0.0,0.0,0.0,0.0,0.0,0.0,0.0,0.0,0.0,0.0,0.0,0.0,0.0,0.0,0.0,0.0,0.0,0.0,0.0,0.0,0.0,0.0,0.0,0.0,0.0,0.0,0.0,0.0,0.0,0.0,0.0,0.0,0.0,0.0,0.0,0.0,0.0,0.0,0.0,0.0,0.0,0.0,0.0,0.0,0.0,0.0,0.0,0.0,0.0,0.0,0.0,0.0,0.0,0.0,0.0,0.0,0.0,0.0,0.0,0.0,0.0,0.0,0.0,0.0,0.0,0.0,-5.4912,-5.6434,-5.8123,-5.8008,-5.599,-5.403,-5.1656,0.0,0.0,0.0,0.0,0.0,0.0,0.0,0.0,0.0,0.0,0.0,0.0,0.0,0.0,0.0,0.0,0.0,0.0,0.0,0.0,0.0,0.0,0.0,0.0,0.0,0.0,0.0,0.0,0.0,0.0,0.0,0.0,0.0,0.0,0.0,0.0,0.0,0.0,0.0,0.0,0.0,0.0,0.0,0.0,0.0,0.0,0.0,0.0,0.0,0.0,0.0,0.0,0.0,0.0,0.0,0.0,0.0,0.0,0.0,0.0,0.0,0.0,0.0,0.0,0.0,0.0,0.0,0.0,0.0,0.0,0.0,0.0,0.0,0.0,0.0,0.0,0.0,0.0,0.0,0.0,0.0,0.0,0.0,0.0,0.0,0.0,0.0,0.0,0.0,0.0,0.0,0.0,0.0,0.0,0.0,0.0,0.0,0.0,0.0,0.0,0.0,0.0,0.0,0.0,0.0,0.0,0.0,0.0,-5.5233,-5.6953,-5.8544,-5.8709,-5.7425,-5.5212,-5.2714,0.0,0.0,0.0,0.0,0.0,0.0,0.0,0.0,0.0,0.0,0.0,0.0,0.0,0.0,0.0,0.0,0.0,0.0,0.0,0.0,0.0,0.0,0.0,0.0,0.0,0.0,0.0,0.0,0.0,0.0,0.0,0.0,0.0,0.0,0.0,0.0,0.0,0.0,0.0,0.0,0.0,0.0,0.0,0.0,0.0,0.0,0.0,0.0,0.0,0.0,0.0,0.0,0.0,0.0,0.0,0.0,0.0,0.0,0.0,0.0,0.0,0.0,0.0,0.0,0.0,0.0,0.0,0.0,0.0,0.0,0.0,0.0,0.0,0.0,0.0,0.0,0.0,0.0,0.0,0.0,0.0,0.0,0.0,0.0,0.0,0.0,0.0,0.0,0.0,0.0,0.0,0.0,0.0,0.0,0.0,0.0,0.0,0.0,0.0,0.0,0.0,0.0,0.0,0.0,0.0,0.0,0.0,0.0,-5.4962,-5.6234,-5.7955,-5.8241,-5.6967,-5.5042,-5.2623,0.0,0.0,0.0,0.0,0.0,0.0,0.0,0.0,0.0,0.0,0.0,0.0,0.0,0.0,0.0,0.0,0.0,0.0,0.0,0.0,0.0,0.0,0.0,0.0,0.0,0.0,0.0,0.0,0.0,0.0,0.0,0.0,0.0,0.0,0.0,0.0,0.0,0.0,0.0,0.0,0.0,0.0,0.0,0.0,0.0,0.0,0.0,0.0,-4.2983,0.0,0.0,0.0,0.0,0.0,0.0,0.0,0.0,0.0,0.0,0.0,0.0,0.0,0.0,0.0,0.0,0.0,0.0,0.0,0.0,0.0,0.0,0.0,0.0,0.0,0.0,0.0,0.0,0.0,0.0,0.0,0.0,0.0,0.0,0.0,0.0,0.0,0.0,0.0,0.0,0.0,0.0,0.0,0.0,0.0,0.0,0.0,0.0,0.0,0.0,0.0,0.0,0.0,0.0,0.0,0.0,0.0,0.0,0.0,-5.4518,-5.5928,-5.754,-5.7869,-5.6789,-5.4739,-5.2321,0.0,0.0,0.0,0.0,0.0,0.0,0.0,0.0,0.0,0.0,0.0,0.0,0.0,0.0,0.0,0.0,0.0,0.0,0.0,0.0,0.0,0.0,0.0,0.0,0.0,0.0,0.0,0.0,0.0,0.0,0.0,0.0,0.0,0.0,0.0,0.0,0.0,0.0,0.0,0.0,0.0,0.0,0.0,0.0,0.0,0.0,0.0,0.0,0.0,0.0,0.0,0.0,0.0,0.0,0.0,0.0,0.0,0.0,0.0,0.0,0.0,0.0,0.0,0.0,0.0,0.0,0.0,0.0,0.0,0.0,0.0,0.0,0.0,0.0,0.0,0.0,0.0,0.0,0.0,0.0,0.0,0.0,0.0,0.0,0.0,0.0,0.0,0.0,0.0,0.0,0.0,0.0,0.0,0.0,0.0,0.0,0.0,0.0,0.0,0.0,0.0,0.0,0.0,0.0,0.0,0.0,0.0,-5.163,-5.4002,-5.5797,-5.7022,-5.7317,-5.6602,-5.4289,-5.1867,-4.937,0.0,0.0,0.0,0.0,0.0,0.0,0.0,0.0,0.0,0.0,0.0,0.0,0.0,0.0,0.0,0.0,0.0,0.0,0.0,0.0,0.0,0.0,0.0,0.0,0.0,0.0,0.0,0.0,0.0,0.0,0.0,0.0,0.0,0.0,0.0,0.0,0.0,0.0,-3.9918,-4.1534,0.0,0.0,0.0,0.0,0.0,0.0,0.0,0.0,-4.3588,0.0,0.0,0.0,0.0,0.0,0.0,0.0,0.0,0.0,0.0,0.0,0.0,0.0,0.0,0.0,0.0,0.0,0.0,0.0,0.0,0.0,0.0,0.0,0.0,0.0,0.0,0.0,0.0,0.0,0.0,0.0,0.0,0.0,0.0,0.0,0.0,0.0,0.0,0.0,0.0,0.0,0.0,0.0,0.0,0.0,0.0,0.0,0.0,0.0,0.0,0.0,0.0,0.0,0.0,0.0,0.0,-4.8532,-5.1017,-5.3387,-5.5585,-5.5893,-5.5945,-5.5721,-5.3463,-5.1022,-4.8545,0.0,0.0,0.0,0.0,0.0,0.0,0.0,0.0,0.0,0.0,0.0,0.0,0.0,0.0,0.0,0.0,0.0,0.0,0.0,0.0,0.0,0.0,0.0,0.0,0.0,0.0,0.0,0.0,0.0,0.0,0.0,0.0,0.0,0.0,0.0,0.0,0.0,0.0,0.0,-4.2727,-4.3808,0.0,0.0,0.0,0.0,0.0,0.0,0.0,0.0,-4.3736,0.0,0.0,0.0,0.0,0.0,0.0,0.0,0.0,0.0,0.0,0.0,0.0,0.0,0.0,0.0,0.0,0.0,0.0,0.0,0.0,0.0,0.0,0.0,0.0,0.0,0.0,0.0,0.0,0.0,0.0,0.0,0.0,0.0,0.0,0.0,0.0,0.0,0.0,0.0,0.0,0.0,0.0,0.0,0.0,0.0,0.0,0.0,0.0,0.0,0.0,0.0,0.0,0.0,0.0,0.0,-4.8364,-5.0827,-5.2991,-5.4895,-5.5372,-5.5207,-5.4344,-5.2417,-5.0013,0.0,0.0,0.0,0.0,0.0,0.0,0.0,0.0,0.0,0.0,0.0,0.0,0.0,0.0,0.0,0.0,0.0,0.0,0.0,0.0,0.0,0.0,0.0,0.0,0.0,0.0,0.0,0.0,0.0,0.0,0.0,0.0,0.0,0.0,0.0,0.0,0.0,0.0,0.0,0.0,-4.3718,-4.5021,-4.5792,0.0,0.0,0.0,0.0,0.0,0.0,-4.5002,-4.4856,0.0,0.0,0.0,0.0,0.0,0.0,0.0,0.0,0.0,0.0,0.0,0.0,0.0,0.0,0.0,0.0,0.0,0.0,0.0,0.0,0.0,0.0,0.0,0.0,0.0,0.0,0.0,0.0,0.0,0.0,0.0,0.0,0.0,0.0,0.0,0.0,0.0,0.0,0.0,0.0,0.0,0.0,0.0,0.0,0.0,0.0,0.0,0.0,0.0,0.0,0.0,0.0,0.0,0.0,0.0,-4.8233,-5.0417,-5.2454,-5.4308,-5.4858,-5.4491,-5.3203,-5.1499,-4.9095,0.0,0.0,0.0,0.0,0.0,0.0,0.0,0.0,0.0,0.0,0.0,0.0,0.0,0.0,0.0,0.0,0.0,0.0,0.0,0.0,0.0,0.0,0.0,0.0,0.0,0.0,0.0,0.0,0.0,0.0,0.0,0.0,0.0,0.0,0.0,0.0,0.0,0.0,0.0,0.0,0.0,-4.6232,-4.6416,-4.7095,0.0,0.0,0.0,0.0,-4.6159,-4.6269,0.0,0.0,0.0,0.0,0.0,0.0,0.0,0.0,0.0,0.0,0.0,0.0,0.0,0.0,0.0,0.0,0.0,0.0,0.0,0.0,0.0,0.0,0.0,0.0,0.0,0.0,0.0,0.0,0.0,0.0,0.0,0.0,0.0,0.0,0.0,0.0,0.0,0.0,0.0,0.0,0.0,0.0,0.0,0.0,0.0,0.0,0.0,0.0,0.0,0.0,0.0,0.0,0.0,0.0,0.0,0.0,-4.8177,-4.9334,-5.1334,-5.4197,-5.3794,-5.339,-5.3148,-5.093,-4.8545,0.0,0.0,0.0,0.0,0.0,0.0,0.0,0.0,0.0,0.0,0.0,0.0,0.0,0.0,0.0,0.0,0.0,0.0,0.0,0.0,0.0,0.0,0.0,0.0,0.0,0.0,0.0,0.0,0.0,0.0,0.0,0.0,0.0,0.0,0.0,0.0,0.0,0.0,0.0,0.0,0.0,-4.739,-4.8108,-4.8841,-4.8766,0.0,0.0,-4.7792,-4.7058,-4.7553,0.0,0.0,0.0,0.0,0.0,0.0,0.0,0.0,0.0,0.0,0.0,0.0,0.0,0.0,0.0,0.0,0.0,0.0,0.0,0.0,0.0,0.0,0.0,0.0,0.0,0.0,0.0,0.0,0.0,0.0,0.0,0.0,0.0,0.0,0.0,0.0,0.0,0.0,0.0,0.0,0.0,0.0,0.0,0.0,0.0,0.0,0.0,0.0,0.0,0.0,0.0,0.0,0.0,0.0,0.0,-4.3846,-4.6874,-4.8711,-5.073,-5.2931,-5.2692,-5.205,-5.1114,-4.9205,-4.6819,0.0,0.0,0.0,0.0,0.0,0.0,0.0,0.0,0.0,0.0,0.0,0.0,0.0,0.0,0.0,0.0,0.0,0.0,0.0,0.0,0.0,0.0,0.0,0.0,0.0,0.0,0.0,0.0,0.0,0.0,0.0,0.0,0.0,0.0,0.0,0.0,0.0,0.0,0.0,0.0,0.0,0.0,-4.9141,-5.0491,0.0,0.0,0.0,-4.9651,-4.926,0.0,0.0,0.0,0.0,0.0,0.0,0.0,0.0,0.0,0.0,0.0,0.0,0.0,0.0,0.0,0.0,0.0,0.0,0.0,0.0,0.0,0.0,0.0,0.0,0.0,0.0,0.0,0.0,0.0,0.0,0.0,0.0,0.0,0.0,0.0,0.0,0.0,0.0,0.0,0.0,0.0,0.0,0.0,0.0,0.0,0.0,0.0,0.0,0.0,0.0,0.0,0.0,0.0,0.0,0.0,0.0,0.0,-4.5865,-4.7921,-4.9848,-5.161,-5.1683,-5.0912,-4.9242,-4.781,0.0,0.0,0.0,0.0,0.0,0.0,0.0,0.0,0.0,0.0,0.0,0.0,0.0,0.0,0.0,0.0,0.0,0.0,0.0,0.0,0.0,0.0,0.0,0.0,0.0,0.0,0.0,-2.7464,0.0,0.0,0.0,0.0,0.0,0.0,0.0,0.0,0.0,0.0,0.0,0.0,0.0,0.0,-4.9447,-4.9967,-5.1615,-5.2361,0.0,0.0,-5.1034,-5.0583,-4.9793,-4.9224,0.0,0.0,0.0,0.0,0.0,0.0,0.0,0.0,0.0,0.0,0.0,0.0,0.0,0.0,0.0,0.0,0.0,0.0,0.0,0.0,0.0,0.0,0.0,0.0,0.0,0.0,0.0,0.0,0.0,0.0,0.0,0.0,0.0,0.0,0.0,0.0,0.0,0.0,0.0,0.0,0.0,0.0,0.0,0.0,0.0,0.0,0.0,0.0,0.0,0.0,0.0,0.0,0.0,0.0,0.0,-4.581,-4.6819,-4.8452,-5.0765,-5.0875,-5.0086,-4.8434,-4.7535,-4.5572,0.0,0.0,0.0,0.0,0.0,0.0,0.0,0.0,0.0,0.0,0.0,0.0,0.0,0.0,0.0,0.0,0.0,0.0,0.0,0.0,0.0,0.0,0.0,0.0,0.0,0.0,0.0,0.0,0.0,0.0,0.0,0.0,0.0,0.0,0.0,0.0,0.0,0.0,0.0,0.0,0.0,-4.969,-5.0522,-5.1888,-5.2467,0.0,0.0,-5.1475,-4.9942,-5.0859,-5.0986,-4.8746,0.0,0.0,0.0,0.0,0.0,0.0,0.0,0.0,0.0,0.0,0.0,0.0,0.0,0.0,0.0,0.0,0.0,0.0,0.0,0.0,0.0,0.0,0.0,0.0,0.0,0.0,0.0,0.0,0.0,0.0,0.0,0.0,0.0,0.0,0.0,0.0,0.0,0.0,0.0,0.0,0.0,0.0,0.0,0.0,0.0,0.0,0.0,0.0,0.0,0.0,0.0,0.0,0.0,-4.2194,-4.4378,-4.6195,-4.8048,-4.9958,-5.0069,-4.9279,-4.759,-4.6782,-4.4856,0.0,0.0,0.0,0.0,0.0,0.0,0.0,0.0,0.0,0.0,0.0,0.0,0.0,0.0,0.0,0.0,0.0,0.0,0.0,0.0,0.0,0.0,0.0,0.0,0.0,0.0,0.0,0.0,-2.9445,-2.9922,-3.043,0.0,0.0,0.0,0.0,0.0,0.0,0.0,0.0,0.0,0.0,-5.0889,-5.1584,-5.294,0.0,0.0,-5.286,-5.2471,-5.1307,-5.0769,-5.0218,-4.9283,-4.7609,0.0,0.0,0.0,0.0,0.0,0.0,0.0,0.0,0.0,0.0,0.0,0.0,0.0,0.0,0.0,0.0,0.0,0.0,0.0,0.0,0.0,0.0,0.0,0.0,0.0,0.0,0.0,0.0,0.0,0.0,0.0,0.0,0.0,0.0,0.0,0.0,0.0,0.0,0.0,0.0,0.0,0.0,0.0,0.0,0.0,0.0,0.0,0.0,0.0,0.0,0.0,0.0,-4.1884,-4.3479,-4.5645,-4.7553,-4.9188,-4.8967,-4.8177,-4.6782,-4.5957,-4.425,0.0,0.0,0.0,0.0,0.0,0.0,0.0,0.0,0.0,0.0,0.0,0.0,0.0,0.0,0.0,0.0,0.0,0.0,0.0,0.0,0.0,0.0,0.0,0.0,0.0,0.0,0.0,0.0,-2.9744,-3.065,-3.1679,0.0,0.0,0.0,0.0,0.0,0.0,0.0,0.0,0.0,0.0,-5.1559,-5.2205,-5.3688,-5.4563,-5.4118,-5.3777,-5.3245,-5.2373,-5.102,-4.9931,-4.9435,0.0,0.0,0.0,0.0,0.0,0.0,0.0,0.0,0.0,0.0,0.0,0.0,0.0,0.0,0.0,0.0,0.0,0.0,0.0,0.0,0.0,0.0,0.0,0.0,0.0,0.0,0.0,0.0,0.0,0.0,0.0,0.0,0.0,0.0,0.0,0.0,0.0,0.0,0.0,0.0,0.0,0.0,0.0,0.0,0.0,0.0,0.0,0.0,0.0,0.0,0.0,0.0,0.0,-4.1901,-4.3496,-4.5131,-4.6709,-4.8251,-4.7571,-4.6764,-4.5938,-4.5149,-4.3938,-4.2249,0.0,0.0,0.0,0.0,0.0,0.0,0.0,0.0,0.0,0.0,0.0,0.0,0.0,0.0,0.0,0.0,0.0,0.0,0.0,0.0,0.0,0.0,0.0,0.0,0.0,0.0,-2.906,-2.9779,-3.0949,0.0,0.0,0.0,0.0,0.0,0.0,0.0,0.0,0.0,0.0,-4.92,-5.1394,-5.2196,-5.3831,-5.4862,-5.47,-5.4315,-5.3738,-5.2735,-5.177,-5.0583,0.0,0.0,0.0,0.0,0.0,0.0,0.0,0.0,0.0,0.0,0.0,0.0,0.0,0.0,0.0,0.0,0.0,0.0,0.0,0.0,0.0,0.0,0.0,0.0,0.0,0.0,0.0,-4.7375,-4.6817,0.0,0.0,0.0,0.0,0.0,0.0,0.0,0.0,0.0,0.0,0.0,-4.7384,-4.6434,0.0,0.0,0.0,0.0,0.0,0.0,0.0,0.0,0.0,0.0,0.0,0.0,-4.2158,-4.425,-4.5351,-4.6434,-4.7461,-4.7223,-4.6452,-4.5131,-4.4838,-4.3442,-4.0781,0.0,0.0,0.0,0.0,0.0,0.0,0.0,0.0,0.0,0.0,0.0,0.0,0.0,0.0,0.0,0.0,0.0,0.0,0.0,0.0,0.0,0.0,0.0,0.0,0.0,-3.002,0.0,0.0,0.0,0.0,0.0,0.0,0.0,0.0,0.0,0.0,0.0,-4.5398,-4.7406,-4.9641,-5.1486,-5.2558,-5.3484,-5.4268,0.0,0.0,0.0,0.0,0.0,0.0,0.0,0.0,0.0,0.0,0.0,0.0,0.0,0.0,-4.5002,-4.4745,-4.4268,-4.3993,-4.425,0.0,0.0,0.0,0.0,0.0,0.0,0.0,0.0,0.0,0.0,0.0,0.0,0.0,0.0,0.0,0.0,-4.8817,0.0,0.0,0.0,0.0,0.0,0.0,0.0,0.0,-4.9365,-4.995,-4.9874,-4.8829,-4.797,0.0,-4.5196,-4.3088,0.0,0.0,0.0,0.0,0.0,0.0,0.0,0.0,-4.2434,-4.4232,-4.5076,-4.5865,-4.6636,-4.6415,-4.5773,-4.4745,-4.4433,-4.3039,-4.0396,-3.9019,-3.7055,0.0,0.0,0.0,0.0,0.0,0.0,0.0,0.0,0.0,0.0,0.0,0.0,0.0,0.0,0.0,0.0,0.0,0.0,0.0,0.0,0.0,0.0,0.0,-3.057,0.0,0.0,0.0,0.0,0.0,0.0,0.0,0.0,0.0,-4.2825,-4.4408,-4.6122,-4.781,-4.9763,-5.1454,-5.2501,0.0,0.0,0.0,0.0,0.0,0.0,0.0,-5.189,-5.0919,-5.0131,-4.9732,-5.0022,-4.9336,-4.8581,-4.8049,0.0,0.0,-4.6012,-4.548,-4.5296,-4.5792,-4.548,-4.5278,-4.5792,-4.5902,-4.5902,0.0,0.0,0.0,0.0,0.0,0.0,0.0,0.0,-5.1645,-5.1375,0.0,-5.0394,0.0,0.0,0.0,0.0,0.0,0.0,0.0,0.0,-5.122,-5.1396,-5.137,-5.0798,-4.9615,-4.7988,-4.7615,-4.652,-4.4774,-4.2445,0.0,0.0,0.0,0.0,0.0,0.0,-4.2708,-4.357,-4.4342,-4.5094,-4.581,-4.5131,-4.469,-4.4654,-4.392,-4.2782,-4.1187,-4.0359,-3.8432,-3.5298,-3.4289,0.0,0.0,0.0,0.0,0.0,0.0,0.0,0.0,0.0,0.0,0.0,0.0,0.0,0.0,0.0,0.0,0.0,0.0,0.0,0.0,-2.9361,0.0,0.0,0.0,0.0,0.0,0.0,0.0,0.0,0.0,0.0,-4.4105,-4.5388,-4.6678,-4.77,0.0,0.0,0.0,0.0,-5.4513,-5.5122,-5.5162,-5.5099,-5.5009,-5.4197,-5.3153,-5.1869,0.0,0.0,-5.092,-5.0198,-4.9684,-4.9647,-4.8875,-4.7847,-4.6305,-4.6012,-4.5975,-4.603,-4.5993,-4.5938,-4.5993,-4.614,-4.6104,-5.7992,0.0,0.0,0.0,0.0,-5.4991,-5.5338,-5.5876,-5.5425,-5.4963,-5.4587,-5.4107,0.0,0.0,0.0,0.0,0.0,0.0,-5.1116,-5.251,-5.3253,-5.3585,-5.3563,-5.3117,-5.2327,-5.1199,-4.9705,-4.8247,-4.6847,-4.5568,-4.3941,-4.1974,0.0,0.0,0.0,0.0,-4.2983,-4.4287,-4.4599,-4.4819,-4.504,-4.4801,-4.4433,-4.3846,-4.3608,-4.3002,-4.1992,-4.1185,-3.9808,-3.7716,-3.572,0.0,0.0,0.0,0.0,0.0,0.0,0.0,0.0,0.0,0.0,0.0,0.0,0.0,0.0,0.0,0.0,0.0,0.0,0.0,-2.9457,-3.0472,-3.171,0.0,0.0,0.0,0.0,0.0,0.0,0.0,0.0,0.0,-4.7642,-4.8162,-4.8749,0.0,0.0,-5.2439,-5.3415,-5.3993,-5.4584,-5.5358,0.0,0.0,0.0,-5.4542,-5.3715,-5.3243,-5.276,-5.2269,-5.175,-5.1463,-5.1114,-5.0545,-4.9793,-4.8875,-4.7847,-4.7131,-4.6966,-4.7425,-4.7149,-4.6985,-4.748,-4.7609,-4.759,-6.0704,-5.8927,-5.7934,-5.7223,-5.6742,-5.6722,-5.703,-5.7473,-5.7137,-5.6907,-5.6684,-5.6011,-5.4568,-5.2655,-5.1991,0.0,0.0,0.0,-5.2433,-5.3741,-5.4065,-5.4411,-5.4695,-5.4337,-5.3513,-5.2335,-5.0975,-4.9583,-4.817,-4.7203,-4.589,-4.4213,0.0,0.0,-4.2782,-4.2782,-4.324,-4.4176,-4.4232,-4.4213,-4.4213,-4.4232,-4.3993,-4.3516,-4.3479,-4.3294,-4.2763,-4.1699,-4.049,-3.9221,-3.6853,-3.4619,0.0,0.0,0.0,0.0,0.0,0.0,0.0,0.0,0.0,0.0,0.0,-3.054,-3.1329,0.0,0.0,0.0,-2.9182,-2.9794,-3.0595,-3.1703,0.0,0.0,0.0,0.0,0.0,0.0,0.0,-4.5209,-4.598,-4.7112,-4.9111,-4.9788,-5.0438,-5.1367,-5.2172,-5.3003,-5.3995,0.0,-5.4663,-5.5481,-5.5527,-5.5492,-5.5527,-5.5054,-5.4568,-5.4337,-5.3539,-5.2817,-5.2324,-5.1726,-5.1058,-5.0403,-4.9627,-4.8912,-4.8398,-4.7883,-4.77,-4.8196,-4.792,-4.7773,-4.8195,-4.8324,-4.8324,-6.2935,-6.1973,-5.9608,-5.8569,-5.8492,-5.8492,-5.8511,-5.8434,-5.7646,-5.7703,-5.8261,-5.6703,-5.5895,-5.5588,-5.3953,0.0,0.0,-5.3299,-5.376,-5.4558,-5.4159,-5.4384,-5.5096,-5.4775,-5.3706,-5.2099,-5.1694,-5.0619,-4.8949,-4.7793,-4.7168,-4.7058,-4.5627,-4.4452,-4.3626,-4.3533,-4.3479,-4.3479,-4.3497,-4.3479,-4.3497,-4.3479,-4.346,-4.3386,-4.3404,-4.3368,-4.3276,-4.1901,-4.0691,-3.9772,-3.7639,-3.5257,-3.2858,0.0,0.0,0.0,0.0,0.0,0.0,0.0,0.0,0.0,0.0,0.0,0.0,0.0,0.0,0.0,-3.043,0.0,-3.1696,-3.323,0.0,0.0,0.0,-4.0503,-4.2039,-4.4125,-4.5761,-4.6631,0.0,0.0,0.0,0.0,-5.1662,-5.2372,-5.2792,-5.3295,-5.4111,-5.4441,-5.4836,-5.5522,-5.555,-5.5492,-5.5415,-5.5289,-5.5025,-5.4689,-5.3907,-5.2997,-5.2519,-5.1408,-5.0246,-4.9842,-4.9008,-4.8456,-4.8363,-4.8326,-4.8324,-4.8306,-4.8306,-4.8306,-4.8324,-4.8324,-4.8324,-6.3801,-6.2916,-6.1704,-6.0819,-6.0204,-6.0204,-6.0204,-6.0185,-5.9992,-5.9646,-5.9184,-5.8781,-5.7511,-5.5626,-5.3953,-5.3549,-5.4184,-5.4184,-5.4645,-5.5395,-5.5311,-5.5374,-5.5535,-5.5446,-5.4549,-5.2955,-5.2507,-5.1282,-4.9412,-4.876,-4.8012,-4.7113,-4.6709,-4.5847,-4.4452,-4.3791,-4.3479,-4.3479,-4.3479,-4.3479,-4.3479,-4.3479,-4.3203,-4.2598,-4.258,-4.2304,-4.1699,-4.1297,-4.0451,-3.9056,-3.7845,-3.6083,-3.366,-3.2761,0.0,0.0,0.0,0.0,0.0,0.0,0.0,0.0,0.0,-3.3293,-3.4087,0.0,-3.3793,0.0,-3.2394,-3.2889,-3.4945,-3.6056,0.0,0.0,-4.1572,-4.3457,-4.4001,-4.6005,-4.766,-4.8464,-4.8926,-4.9705,-5.0962,-5.1469,-5.2045,-5.2892,-5.3548,-5.4066,-5.435,-5.4976,-5.5472,-5.5558,-5.5105,-5.4759,-5.472,-5.4182,-5.37,-5.3258,-5.2943,-5.2594,-5.215,-5.1751,-5.1249,-5.0574,-5.003,-4.9485,-4.8855,-4.8513,-4.8325,-4.8324,-4.8324,-4.8324,-4.8324,-4.8324,-4.8324,-6.4089,-6.3231,-6.2435,-6.1608,-6.08,-6.08,-6.08,-6.08,-6.08,-6.0531,-6.005,-5.9665,-5.83,-5.6242,-5.5299,-5.4953,-5.503,-5.503,-5.528,-5.5684,-5.5684,-5.5684,-5.5684,-5.5684,-5.4818,-5.3212,-5.2609,-5.1338,-4.955,-4.8913,-4.831,-4.7608,-4.7278,-4.647,-4.5259,-4.4433,-4.3864,-4.3497,-4.3479,-4.3479,-4.3479,-4.3479,-4.3294,-4.2855,-4.2488,-4.2084,-4.1662,-4.0965,-4.0157,-3.9258,-3.7804,-3.6174,-3.4417,-3.3225,-3.2247,0.0,0.0,0.0,0.0,0.0,0.0,0.0,0.0,0.0,0.0,0.0,-3.6064,0.0,-3.5257,0.0,-3.7698,-3.8303,-3.9439,-4.1604,-4.3428,-4.5021,-4.6423,-4.7805,-4.8932,-4.9777,-4.9893,-5.0268,-5.1182,-5.1297,-5.1499,-5.2049,-5.2737,-5.3396,-5.3793,-5.4278,-5.4587,-5.4568,-5.4203,-5.3914,-5.3933,-5.353,-5.3112,-5.2901,-5.2537,-5.2143,-5.1725,-5.1338,-5.0885,-5.0296,-4.9972,-4.9699,-4.9233,-4.8829,-4.8568,-4.8532,-4.8421,-4.8325,-4.8324,-4.8324,-4.8324,-6.4109,-6.3224,-6.2435,-6.1608,-6.08,-6.08,-6.08,-6.08,-6.08,-6.08,-6.0742,-5.9877,-5.8646,-5.7195,-5.7041,-5.6541,-5.5703,-5.5684,-5.5684,-5.5684,-5.5684,-5.5684,-5.5684,-5.5684,-5.4818,-5.3201,-5.2395,-5.1118,-4.9512,-4.8692,-4.8324,-4.8269,-4.7608,-4.6856,-4.6049,-4.5259,-4.4397,-4.3497,-4.3479,-4.3479,-4.3479,-4.3479,-4.346,-4.3314,-4.2561,-4.2103,-4.1956,-4.0543,-3.9698,-3.953,-3.7588,-3.6009,-3.5059,-3.3757,-3.2711,0.0,-3.1984,0.0,0.0,0.0,0.0,0.0,0.0,0.0,0.0,-3.7456,-3.8264,-3.8946,-3.845,-3.8686,-4.01,-4.0396,-4.1488,-4.3938,-4.4739,-4.6114,-4.8548,-4.9283,-4.9856,-5.0616,-5.0683,-5.0683,-5.0721,-5.0683,-5.0683,-5.0837,-5.1365,-5.2058,-5.2712,-5.3106,-5.3337,-5.3203,-5.3106,-5.2991,-5.2856,-5.2818,-5.2779,-5.2731,-5.2191,-5.164,-5.1281,-5.0699,-5.0087,-4.9779,-4.9707,-4.9613,-4.9594,-4.9249,-4.898,-4.888,-4.8622,-4.8402,-4.8325,-4.8324,-4.8269,-6.4089,-6.3224,-6.2435,-6.1589,-6.08,-6.08,-6.08,-6.08,-6.08,-6.08,-6.0723,-5.9877,-5.8973,-5.803,-5.733,-5.6522,-5.5703,-5.5684,-5.5684,-5.5684,-5.5684,-5.5684,-5.5684,-5.5684,-5.4838,-5.3219,-5.2376,-5.1137,-4.9493,-4.8711,-4.8324,-4.8306,-4.8159,-4.7663,0.0,0.0,0.0,0.0,-4.3479,-4.3479,-4.3479,-4.3479,-4.3203,-4.2543,-4.1754,0.0,-4.0359,-3.9423,-3.8634,-3.7988,-3.7511,0.0,0.0,0.0,0.0,0.0,0.0,0.0,0.0,0.0,0.0,0.0,-3.8836,-3.8597,-3.8322,-3.957,-4.0487,-4.0636,-4.1111,-4.1515,-4.1827,-4.3039,-4.4127,-4.5,-4.6581,-4.7964,-4.8853,-4.9812,-5.0539,-5.0654,-5.0683,-5.0683,-5.0683,-5.0683,-5.0683,-5.0702,-5.0827,-5.0981,-5.1164,-5.2337,-5.3145,-5.3145,-5.2568,-5.1933,-5.126,-5.1241,-5.1318,-5.1125,-5.1068,-5.0913,-5.0824,-5.0737,-5.0584,-5.0432,-5.0225,-4.9974,-4.9974,-4.9678,-4.9276,-4.8961,-4.8829,-4.8692,-4.8364,-4.8306,-4.8104,-6.4089,0.0,-6.2416,-6.1601,0.0,-6.08,-6.08,-6.08,-6.08,-6.08,-6.0762,-6.0319,-5.9473,-5.828,-5.7838,-5.6934,-5.5703,-5.5684,-5.5684,-5.5684,-5.5684,-5.5684,-5.5684,-5.5684,-5.4818,-5.3201,-5.2376,-5.1118,-4.9535,-4.8693,-4.8324,-4.8324,-4.8324,-4.7901,-4.7094,-4.592,-4.4709,-4.3497,-4.3479,-4.3479,-4.3479,-4.3479,-4.3296,-4.2892,0.0,0.0,0.0,0.0,0.0,0.0,0.0,0.0,0.0,0.0,0.0,-3.6285,-3.7019,-3.7679,-3.8065,-3.8465,-3.9053,-3.9827,-4.0616,-4.091,-4.0506,-4.124,-4.1864,-4.2268,-4.2671,-4.2892,-4.2945,-4.3644,-4.4569,-4.5751,-4.698,-4.8147,-4.9318,-5.0204,-5.0683,-5.0683,-5.0683,-5.0683,-5.0683,-5.0683,-5.0683,-5.0683,-5.0683,-5.0683,-5.077,-5.1395,-5.1933,-5.1952,-5.1645,-5.1183,-5.0818,-5.0683,-5.0683,-5.0683,-5.0683,-5.0683,-5.0683,-5.0683,-5.0683,-5.0683,-5.0534,-5.0399,-5.0377,-5.0087,-4.96,-4.8994,-4.8571,-4.81,-4.755,-4.7555,-4.7461,-6.3955,-6.3224,-6.2262,-6.1454,-6.08,-6.08,-6.08,-6.08,0.0,0.0,0.0,-6.08,-5.9877,-5.8319,-5.8288,-5.7357,-5.5722,-5.5684,-5.5684,-5.5684,-5.5684,-5.5684,-5.5684,-5.5549,-5.4703,-5.3191,-5.2243,-5.1005,-4.9498,-4.8675,-4.8324,-4.8324,-4.8324,-4.7829,-4.6856,-4.559,-4.4452,-4.3534,-4.3479,-4.3479,-4.3479,-4.3479,-4.3479,-4.3479,-4.2727,-4.1992,-4.1334,-4.0543,-3.9808,-3.9166,-3.8505,-3.808,-3.7933,-3.8062,-3.808,-3.797,-3.867,-3.9184,-3.935,-3.9937,-4.0393,-4.0522,-4.1735,-4.2506,-4.2506,-4.2506,-4.2782,-4.346,-4.3479,-4.3479,-4.3479,-4.3626,-4.4457,-4.631,-4.6999,-4.809,-4.982,-5.0462,-5.0683,-5.0683,-5.0683,-5.0683,-5.0683,-5.0683,-5.0683,-5.0683,-5.0683,-5.0683,-5.0683,-5.076,-5.0837,-5.0846,-5.0837,-5.0721,-5.0683,-5.0683,-5.0683,-5.0683,-5.0683,-5.0683,-5.0683,-5.0683,-5.0654,-5.0394,-5.0558,-5.0529,-5.0288,-4.9999,-4.9629,-4.8738,-4.8102,-4.7392,-4.6594,-4.6596,-4.6596,-6.3404,-6.3185,-6.1627,-6.0916,-6.08,-6.08,-6.08,-6.08,-6.08,-6.08,-6.08,-6.08,-5.9877,-5.8288,-5.8288,-5.7338,-5.5722,-5.5684,-5.5684,0.0,-5.5684,-5.5684,-5.5645,-5.4991,-5.4164,-5.3142,-5.1697,-5.0462,-4.951,-4.8692,-4.8324,-4.8324,-4.8324,-4.7572,-4.6177,-4.5847,-4.5002,-4.3534,-4.3479,-4.3479,-4.3479,-4.3479,-4.3479,-4.346,-4.2727,-4.2268,-4.2139,-4.135,-4.0875,-4.0765,-4.0636,-4.0286,-3.9625,-4.0194,-4.0304,-3.9662,-4.0322,-4.104,-4.1717,-4.1901,-4.2249,-4.2927,-4.3204,-4.3332,-4.3332,-4.3332,-4.3386,-4.3479,-4.3479,-4.3479,-4.3551,-4.4085,-4.4974,-4.6313,-4.7454,-4.8645,-4.9834,-5.0366,-5.0577,-5.0558,-5.0683,-5.0654,-5.0548,-5.0616,-5.0606,-5.0673,-5.0644,-5.0683,-5.0683,-5.0683,-5.0683,-5.0683,-5.0683,-5.0683,-5.0683,-5.0683,-5.0683,-5.0683,-5.0673,-5.0596,-5.0577,-5.0587,-5.0346,-4.9702,-5.0144,-5.0058,-4.8933,-4.9067,-4.889,-4.8025,-4.7566,-4.7099,-4.611,-4.5937,-4.5735,-6.3288,-6.3096,-6.1493,-6.08,-6.08,-6.08,-6.08,-6.08,-6.08,-6.08,-6.08,-6.08,-5.9877,-5.8357,-5.8288,-5.7357,-5.5684,-5.5684,-5.5684,-5.5684,-5.5684,-5.5684,-5.5626,-5.4876,-5.4049,-5.3152,-5.1738,-5.0529,-4.9516,-4.8897,-4.8513,-4.8325,-4.8324,-4.7498,-4.5993,-4.5902,-4.5094,-4.3534,-4.3479,-4.3479,-4.3479,-4.3479,-4.3479,-4.3479,-4.3147,-4.2727,-4.2323,-4.1956,-4.1535,-4.1113,-4.1113,-4.0912,-4.0598,-4.1313,-4.1589,-4.124,-4.1956,-4.2561,-4.291,-4.2947,-4.3129,-4.3478,-4.3479,-4.3479,-4.3479,-4.3479,-4.3479,-4.3479,-4.3479,-4.3479,-4.3497,-4.3828,-4.4429,-4.5428,-4.6368,-4.7322,-4.8257,-4.8939,-4.9279,-4.9336,-4.9702,-4.9817,-4.9356,-4.9702,-4.9971,-5.001,-5.0317,-5.0644,-5.0664,-5.0664,-5.0664,-5.0683,-5.0683,-5.0683,-5.0683,-5.0683,-5.0683,-5.0683,-5.0279,-5.0048,-4.999,-5.001,-4.9625,-4.8952,-4.9413,-4.9413,-4.8259,-4.8394,-4.8193,-4.7481,-4.6967,-4.6477,-4.5689,-4.5275,-4.4956,-6.3288,-6.3135,-6.1493,-6.08,-6.08,-6.08,-6.08,-6.08,-6.08,-6.08,-6.08,-6.08,-5.9858,-5.8365,-5.8288,-5.7357,-5.5857,-5.5684,-5.5684,-5.5684,-5.5684,-5.5684,-5.5568,-5.4703,-5.3857,-5.3075,-5.1748,-5.0539,-4.966,-4.9139,-4.8692,-4.8326,-4.8324,-4.7498,-4.592,-4.5902,-4.5112,-4.3608,-4.3479,-4.3479,-4.3479,-4.3479,-4.3479,-4.3479,-4.3479,-4.3185,-4.2616,-4.2561,-4.2286,-4.1699,-4.1627,-4.1644,-4.168,-4.2231,-4.2561,-4.2635,-4.3149,-4.3479,-4.3479,-4.3479,-4.3479,-4.3479,-4.3479,-4.3479,-4.3479,-4.3479,-4.3479,-4.3479,-4.3479,-4.3479,-4.3497,-4.3497,-4.3828,-4.4633,-4.5365,-4.6202,-4.693,-4.7635,-4.8096,-4.8182,-4.8702,-4.8836,-4.8413,-4.8682,-4.9086,-4.9202,-4.9702,-5.0067,-5.0106,-5.0106,-5.0125,-5.0183,-5.0404,-5.0673,-5.0683,-5.0683,-5.0683,-5.0683,-5.0192,-4.9933,-4.9798,-4.9625,-4.9067,-4.8471,-4.8625,-4.8529,-4.7817,-4.7721,-4.7462,-4.6752,-4.6349,-4.5959,-4.5422,-4.503,-4.4585,-6.3288,-6.3051,-6.1493,-6.08,-6.08,-6.08,-6.08,-6.08,-6.08,-6.08,-6.08,-6.08,-5.9877,-5.8434,-5.8288,-5.7357,-5.5761,-5.5684,-5.5684,-5.5684,-5.5684,-5.5684,-5.5549,-5.4087,-5.328,-5.296,-5.1213,-5.0226,-4.9993,-4.928,-4.871,-4.8363,-4.8324,-4.7517,-4.6085,-4.592,-4.5094,-4.3534,-4.3479,-4.3479,-4.3479,-4.3479,-4.3479,-4.3479,-4.3479,-4.3478,-4.3332,-4.3387,-4.3349,-4.3294,-4.3222,-4.3239,-4.3276,-4.3332,-4.3369,-4.3351,-4.3442,-4.3479,-4.3479,-4.3479,-4.3479,-4.3479,-4.3479,-4.3479,-4.3479,-4.3479,-4.3479,-4.3479,-4.3479,-4.3479,-4.3479,-4.3479,-4.3791,-4.4505,-4.5256,-4.6121,-4.6792,-4.7654,-4.8096,-4.8096,-4.8105,-4.8182,-4.799,-4.8105,-4.8202,-4.824,-4.849,-4.8644,-4.8625,-4.8625,-4.8606,-4.8759,-4.9586,-5.0519,-5.0587,-5.0673,-5.0519,-5.0548,-5.0558,-5.0183,-4.9894,-4.9529,-4.9067,-4.7875,-4.8067,-4.7663,-4.674,-4.6394,-4.6721,-4.6163,-4.58,-4.5637,-4.5532,-4.5292,-4.4842,-6.3288,-6.3135,-6.1493,-6.08,-6.08,-6.08,-6.08,-6.08,-6.08,-6.08,-6.08,-6.08,-5.9877,-5.8308,-5.8288,-5.7338,-5.5742,-5.5684,-5.5684,-5.5684,-5.5684,-5.5684,-5.5511,-5.3991,-5.3203,-5.3038,-5.132,-5.0336,-5.0043,-4.9551,-4.9155,-4.8996,-4.8779,-4.7842,-4.636,-4.6027,-4.5112,-4.3552,-4.3479,-4.3479,-4.3479,-4.3479,-4.3479,-4.3479,-4.3479,-4.3479,-4.3479,-4.3479,-4.3479,-4.3479,-4.3479,-4.3479,-4.3479,-4.3479,-4.3479,-4.3479,-4.3479,-4.3479,-4.3479,-4.3479,-4.3479,-4.3479,-4.3479,-4.3479,-4.3479,-4.3479,-4.3479,-4.3479,-4.3479,-4.3479,-4.3479,-4.3479,-4.3626,-4.4022,-4.4655,-4.5253,-4.5549,-4.6203,-4.6624,-4.6644,-4.7086,-4.7163,-4.6836,-4.7067,-4.7355,-4.7471,-4.7721,-4.8009,-4.8058,-4.8096,-4.8096,-4.8182,-4.8759,-4.9336,-4.974,-4.9433,-4.9452,-4.9625,-4.9067,-4.8471,-4.8529,-4.8259,-4.7625,-4.6817,-4.7124,-4.6951,-4.5913,-4.5817,-4.597,-4.5614,-4.5594,-4.5594,-4.5594,-4.5495,-4.5171,-6.3288,-6.3031,-6.1493,-6.08,-6.08,-6.08,-6.08,-6.08,-6.08,-6.08,-6.08,-6.08,-5.9877,-5.8434,-5.8288,-5.7357,-5.5857,-5.5684,-5.5684,-5.5684,-5.5684,-5.5684,-5.553,-5.3991,-5.3203,-5.2933,-5.1491,-5.0483,-5.0123,-4.9813,-4.9603,-4.9475,-4.9202,-4.8189,-4.664,-4.6198,-4.5199,-4.3662,-4.3479,-4.3479,-4.3479,-4.3479,-4.3479,-4.3479,-4.3479,-4.3479,-4.3479,-4.3479,-4.3479,-4.3479,-4.3479,-4.3479,-4.3479,-4.3479,-4.3479,-4.3479,-4.3479,-4.3479,-4.3479,-4.3479,-4.3479,-4.3479,-4.3479,-4.3479,-4.3479,-4.3479,-4.3479,-4.3479,-4.3479,-4.3479,-4.3479,-4.3479,-4.3479,-4.3531,-4.408,-4.446,-4.4662,-4.5129,-4.5533,-4.5635,-4.6201,-4.6336,-4.5855,-4.6144,-4.6547,-4.6605,-4.7009,-4.7413,-4.7413,-4.7355,-4.7336,-4.7413,-4.7413,-4.7894,-4.874,-4.8663,-4.849,-4.8529,-4.8048,-4.7567,-4.7182,-4.7144,-4.6894,-4.6778,-4.6663,-4.6355,-4.5787,-4.5633,-4.5652,-4.5614,-4.5594,-4.5594,-4.5594,-4.5605,-4.5495,-6.3288,-6.3051,-6.1512,-6.08,-6.08,-6.08,-6.08,-6.08,-6.08,-6.08,-6.08,-6.08,-5.9877,-5.8338,-5.8288,-5.7338,-5.5838,-5.5684,-5.5684,-5.5684,-5.5684,-5.5684,-5.5598,-5.401,-5.3183,-5.2953,-5.1491,-5.0504,-5.0147,-5.0099,-4.9866,-4.9551,-4.9489,-4.8487,-4.6788,-4.6491,-4.5484,-4.3696,-4.3479,-4.3479,-4.3479,-4.3479,-4.3479,-4.3479,-4.3479,-4.3479,-4.3479,-4.3479,-4.3479,-4.3479,-4.3479,-4.3479,-4.3479,-4.3479,-4.3479,-4.3479,-4.3479,-4.3479,-4.3479,-4.3479,-4.3479,-4.3479,-4.3479,-4.3479,-4.3479,-4.3479,-4.3479,-4.3479,-4.3479,-4.3479,-4.3479,-4.3479,-4.3479,-4.3513,-4.382,-4.419,-4.4585,-4.4931,-4.5253,-4.5513,-4.571,-4.5748,-4.5614,-4.5633,-4.5748,-4.5748,-4.5768,-4.5864,-4.5979,-4.5864,-4.5902,-4.5922,-4.5998,-4.6297,-4.774,-4.7778,-4.7875,-4.799,-4.7836,-4.7759,-4.7712,-4.75,-4.7048,-4.6605,-4.6182,-4.5855,-4.5671,-4.5594,-4.5614,-4.5594,-4.5594,-4.5594,-4.5594,-4.5594,-4.5531,-6.2666,-6.1666,-6.105,-6.08,-6.08,-6.08,-6.08,-6.08,-6.08,-6.08,-6.08,-6.08,-5.9877,-5.8288,-5.8288,-5.7357,-5.578,-5.5684,-5.5684,-5.5684,-5.5684,-5.5415,-5.4818,-5.3722,-5.2876,-5.225,-5.1241,-5.0624,-5.0504,-5.0483,-5.0421,-5.0249,-4.9999,-4.8886,-4.7188,-4.6625,-4.5514,-4.3713,-4.3479,-4.3479,-4.3479,-4.3479,-4.3479,-4.3479,-4.3479,-4.3479,-4.3479,-4.3479,-4.3479,-4.3479,-4.3479,-4.3479,-4.3479,-4.3479,-4.3479,-4.3479,-4.3479,-4.3479,-4.3479,-4.3479,-4.3479,-4.3479,-4.3479,-4.3479,-4.3479,-4.3479,-4.3479,-4.3479,-4.3479,-4.3479,-4.3479,-4.3479,-4.3479,-4.3548,-4.3804,-4.4132,-4.4553,-4.4896,-4.5222,-4.5513,-4.5594,-4.5594,-4.5594,-4.5594,-4.5594,-4.5594,-4.5594,-4.5594,-4.5594,-4.5594,-4.5594,-4.5594,-4.5614,-4.5806,-4.6287,-4.6499,-4.6567,-4.6913,-4.6951,-4.6567,-4.6394,-4.6471,-4.6105,-4.6124,-4.571,-4.5652,-4.5594,-4.5594,-4.5594,-4.5594,-4.5594,-4.5594,-4.5594,-4.5594,-4.5594,-6.232,-6.0916,-6.08,-6.08,-6.08,-6.08,-6.08,-6.08,-6.08,-6.08,-6.08,-6.08,-5.9877,-5.8492,-5.8288,-5.7357,-5.5799,-5.5684,-5.5684,-5.5684,-5.5684,-5.5395,-5.478,-5.3722,-5.2904,-5.2212,-5.1183,-5.0683,-5.0683,-5.0683,-5.0683,-5.0663,-5.041,-4.9217,-4.7392,-4.682,-4.5674,-4.3927,-4.3479,-4.3479,-4.3479,-4.3479,-4.3479,-4.3479,-4.3479,-4.3479,-4.3479,-4.3479,-4.3479,-4.3479,-4.3479,-4.3479,-4.3479,-4.3479,-4.3479,-4.3479,-4.3479,-4.3479,-4.3479,-4.3479,-4.3479,-4.3479,-4.3479,-4.3479,-4.3479,-4.3479,-4.3479,-4.3479,-4.3479,-4.3479,-4.3479,-4.3479,-4.3479,-4.3513,-4.371,-4.4004,-4.4346,-4.4739,-4.5118,-4.5495,-4.5594,-4.5594,-4.5594,-4.5594,-4.5594,-4.5594,-4.5594,-4.5594,-4.5594,-4.5594,-4.5594,-4.5594,-4.5594,-4.5614,-4.5845,-4.5941,-4.5941,-4.6201,-4.6374,-4.5845,-4.5594,-4.5594,-4.5594,-4.5594,-4.5594,-4.5594,-4.5594,-4.5594,-4.5594,-4.5594,-4.5594,-4.5594,-4.5594,-4.5594,-4.5594,-6.232,-6.0896,-6.08,-6.08,-6.08,-6.08,-6.08,-6.08,-6.08,-6.08,-6.08,-6.08,-5.9915,-5.8607,-5.8338,-5.7376,-5.6049,-5.5742,-5.5684,-5.5684,-5.5684,-5.5626,-5.5376,-5.3895,-5.3029,-5.276,-5.1414,-5.0712,-5.0683,-5.0683,-5.0683,-5.0683,-5.0673,-4.9453,-4.7133,-4.7008,-4.59,-4.4063,-4.3531,-4.3479,-4.3479,-4.3479,-4.3479,-4.3479,-4.3479,-4.3479,-4.3479,-4.3479,-4.3479,-4.3479,-4.3479,-4.3479,-4.3479,-4.3479,-4.3479,-4.3479,-4.3479,-4.3479,-4.3479,-4.3479,-4.3479,-4.3479,-4.3479,-4.3479,-4.3479,-4.3479,-4.3479,-4.3479,-4.3479,-4.3479,-4.3479,-4.3427,-4.3444,-4.3479,-4.3548,-4.3712,-4.4016,-4.4392,-4.4861,-4.541,-4.555,-4.5586,-4.5594,-4.5594,-4.5594,-4.5594,-4.5594,-4.5594,-4.5594,-4.5594,-4.5594,-4.5594,-4.5594,-4.5594,-4.5594,-4.5614,-4.5614,-4.5652,-4.5748,-4.5594,-4.5594,-4.5594,-4.5594,-4.5594,-4.5594,-4.5594,-4.5594,-4.5594,-4.5594,-4.5594,-4.5594,-4.5594,-4.5594,-4.5594,-4.5594,-6.232,-6.0858,-6.08,-6.08,-6.08,-6.08,-6.08,-6.08,-6.08,-6.08,-6.08,-6.08,-6.0185,-5.9184,-5.8569,-5.7684,-5.6599,-5.6011,-5.5684,-5.5684,-5.5684,-5.5415,-5.4761,-5.3741,-5.2606,-5.1587,-5.1,-5.0683,-5.0683,-5.0683,-5.0683,-5.0683,-5.0683,-4.9541,-4.7584,-4.7168,-4.6012,-4.4101,-4.3614,-4.3479,-4.3479,-4.3479,-4.3479,-4.3479,-4.3479,-4.3479,-4.3479,-4.3479,-4.3479,-4.3479,-4.3479,-4.3479,-4.3479,-4.3479,-4.3479,-4.3479,-4.3479,-4.3479,-4.3479,-4.3479,-4.3479,-4.3479,-4.3479,-4.3479,-4.3479,-4.3479,-4.3479,-4.3479,-4.3479,-4.3479,-4.3444,-4.316,-4.3142,-4.3444,-4.3496,-4.3612,-4.3974,-4.4332,-4.4757,-4.514,-4.5253,-4.5342,-4.5522,-4.5586,-4.5577,-4.5594,-4.5594,-4.5594,-4.5594,-4.5594,-4.5594,-4.5594,-4.5594,-4.5594,-4.5594,-4.5594,-4.5594,-4.5594,-4.5594,-4.5594,-4.5594,-4.5594,-4.5594,-4.5594,-4.5594,-4.5594,-4.5594,-4.5594,-4.5594,-4.5594,-4.5594,-4.5594,-4.5594,-4.5594,-4.5594,-6.2339,-6.0839,-6.08,-6.08,-6.08,-6.08,-6.08,-6.08,-6.08,-6.08,-6.08,-6.08,-6.0319,-5.9454,-5.8665,-5.7838,-5.6964,-5.6107,-5.5684,-5.5684,-5.5684,-5.5395,-5.478,-5.3722,-5.2318,-5.0962,-5.0683,-5.0683,-5.0683,-5.0683,-5.0683,-5.0683,-5.0683,-4.9852,-4.8144,-4.739,-4.6196,-4.4628,-4.3861,-4.3479,-4.3479,-4.3479,-4.3479,-4.3479,-4.3479,-4.3479,-4.3479,-4.3479,-4.3479,-4.3479,-4.3479,-4.3479,-4.3479,-4.3479,-4.3479,-4.3479,-4.3479,-4.3479,-4.3479,-4.3479,-4.3479,-4.3479,-4.3479,-4.3479,-4.3479,-4.3479,-4.3479,-4.3479,-4.3479,-4.341,-4.3196,-4.3142,-4.3105,-4.316,-4.3178,-4.344,-4.3875,-4.4204,-4.4527,-4.4793,-4.4919,-4.5085,-4.5293,-4.5419,-4.5466,-4.5559,-4.5594,-4.5594,-4.5594,-4.5594,-4.5594,-4.5594,-4.5594,-4.5594,-4.5594,-4.5594,-4.5594,-4.5594,-4.5594,-4.5594,-4.5594,-4.5594,-4.5594,-4.5594,-4.5594,-4.5594,-4.5594,-4.5594,-4.5594,-4.5594,-4.5594,-4.5594,-4.5594,-4.5594,-4.5594,-6.232,-6.0877,-6.08,-6.08,-6.08,-6.08,-6.08,-6.08,-6.08,-6.08,-6.08,-6.08,-6.0377,-5.955,-5.8742,-5.7896,-5.7022,-5.6099,-5.5684,-5.5684,-5.5684,-5.5549,-5.5184,-5.3857,-5.2395,-5.1068,-5.0741,-5.0683,-5.0683,-5.0683,-5.0683,-5.0683,-5.0664,-5.0122,-4.8877,-4.7757,-4.66,-4.5309,-4.419,-4.3643,-4.3516,-4.3479,-4.3479,-4.3479,-4.3479,-4.3479,-4.3479,-4.3479,-4.3479,-4.3479,-4.3479,-4.3479,-4.3479,-4.3479,-4.3479,-4.3479,-4.3479,-4.3479,-4.3479,-4.3479,-4.3479,-4.3479,-4.3479,-4.3479,-4.3479,-4.3479,-4.3479,-4.3479,-4.3427,-4.3232,-4.2939,-4.2865,-4.2902,-4.2656,-4.277,-4.3212,-4.3765,-4.3924,-4.4165,-4.446,-4.4599,-4.4726,-4.5063,-4.5148,-4.5302,-4.5523,-4.5594,-4.5594,-4.5594,-4.5594,-4.5594,-4.5594,-4.5594,-4.5594,-4.5594,-4.5594,-4.5594,-4.5594,-4.5594,-4.5594,-4.5594,-4.5594,-4.5594,-4.5594,-4.5594,-4.5594,-4.5594,-4.5594,-4.5594,-4.5594,-4.5594,-4.5594,-4.5594,-4.5594,-4.5594,-6.232,-6.0839,-6.08,-6.08,-6.08,-6.08,-6.08,-6.08,-6.08,-6.08,-6.08,-6.08,-6.0646,-6.0319,-5.8915,-5.8146,-5.7569,-5.6357,-5.5684,-5.5684,-5.5684,-5.5338,-5.4741,-5.3741,-5.2645,-5.1606,-5.0952,-5.0683,-5.0683,-5.0683,-5.0683,-5.0683,-5.0664,-5.024,-4.9245,-4.8403,-4.7178,-4.5801,-4.4844,-4.4048,-4.3552,-4.3479,-4.3479,-4.3479,-4.3479,-4.3479,-4.3479,-4.3479,-4.3479,-4.3479,-4.3479,-4.3479,-4.3479,-4.3479,-4.3479,-4.3479,-4.3479,-4.3479,-4.3479,-4.3479,-4.3479,-4.3479,-4.3479,-4.3479,-4.3479,-4.3479,-4.3479,-4.3427,-4.3178,-4.2864,-4.2598,-4.2065,-4.1625,-4.1599,-4.2406,-4.3123,-4.3159,-4.3388,-4.3775,-4.4073,-4.4146,-4.4455,-4.4896,-4.5085,-4.5211,-4.5495,-4.5594,-4.5594,-4.5594,-4.5594,-4.5594,-4.5594,-4.5594,-4.5594,-4.5594,-4.5594,-4.5594,-4.5594,-4.5594,-4.5594,-4.5594,-4.5594,-4.5594,-4.5594,-4.5594,-4.5594,-4.5594,-4.5594,-4.5594,-4.5594,-4.5594,-4.5594,-4.5594,-4.5594,-4.5594,-6.2012,-6.08,-6.08,-6.08,-6.08,-6.08,-6.08,-6.08,-6.08,-6.08,-6.08,-6.08,-6.0589,-6.0127,-5.8877,-5.8088,-5.7588,-5.6338,-5.5722,-5.5684,-5.5684,-5.5261,-5.4472,-5.3606,-5.276,-5.1895,-5.1087,-5.0721,-5.0683,-5.0683,-5.0683,-5.0683,-5.0683,-5.0423,-4.9932,-4.8789,-4.7682,-4.6389,-4.531,-4.4305,-4.3552,-4.3479,-4.3479,-4.3479,-4.3479,-4.3479,-4.3479,-4.3479,-4.3479,-4.3479,-4.3479,-4.3479,-4.3479,-4.3479,-4.3479,-4.3479,-4.3479,-4.3479,-4.3479,-4.3479,-4.3479,-4.3479,-4.3479,-4.3479,-4.3479,-4.3479,-4.3479,-4.3444,-4.3013,-4.2635,-4.2203,-4.1429,-4.0972,-4.1087,-4.2026,-4.2752,-4.2674,-4.2976,-4.3355,-4.3642,-4.3818,-4.4061,-4.48,-4.4884,-4.514,-4.5448,-4.5594,-4.5594,-4.5594,-4.5594,-4.5594,-4.5594,-4.5594,-4.5594,-4.5594,-4.5594,-4.5594,-4.5594,-4.5594,-4.5594,-4.5594,-4.5594,-4.5594,-4.5594,-4.5594,-4.5594,-4.5594,-4.5594,-4.5594,-4.5594,-4.5594,-4.5594,-4.5594,-4.5594,-4.5594,-6.1581,-6.08,-6.08,-6.08,-6.08,-6.08,-6.08,-6.08,-6.08,-6.08,-6.08,-6.08,-6.0358,-5.9473,-5.8723,-5.7857,-5.7022,-5.6156,-5.5799,-5.5684,-5.5645,-5.5338,-5.4741,-5.3914,-5.3049,-5.2164,-5.1241,-5.0837,-5.0741,-5.0683,-5.0683,-5.0683,-5.0683,-5.0653,-5.0223,-4.9138,-4.8012,-4.6826,-4.5597,-4.4469,-4.3681,-4.3479,-4.3479,-4.3479,-4.3479,-4.3479,-4.3479,-4.3479,-4.3479,-4.3479,-4.3479,-4.3479,-4.3479,-4.3479,-4.3479,-4.3479,-4.3479,-4.3479,-4.3479,-4.3479,-4.3479,-4.3479,-4.3479,-4.3479,-4.3479,-4.3479,-4.3479,-4.3479,-4.2995,-4.2422,-4.1746,-4.1133,-4.0803,-4.0803,-4.1335,-4.1853,-4.2362,-4.2616,-4.2883,-4.3339,-4.3444,-4.3871,-4.4323,-4.4644,-4.4842,-4.5495,-4.5594,-4.5594,-4.5594,-4.5594,-4.5594,-4.5594,-4.5594,-4.5594,-4.5594,-4.5594,-4.5594,-4.5594,-4.5594,-4.5594,-4.5594,-4.5594,-4.5594,-4.5594,-4.5594,-4.5594,-4.5594,-4.5594,-4.5594,-4.5594,-4.5594,-4.5594,-4.5594,-4.5594,-4.5594,-6.1581,-6.08,-6.08,-6.08,-6.08,-6.08,-6.08,-6.08,-6.08,-6.08,-6.08,-6.08,-6.0281,-5.9415,-5.8646,-5.7838,-5.6926,-5.6088,-5.5703,-5.5684,-5.5684,-5.5626,-5.5261,-5.4568,-5.3741,-5.2856,-5.2038,-5.1318,-5.0856,-5.0683,-5.0683,-5.0683,-5.0673,-5.0544,-5.0137,-4.9554,-4.8321,-4.6838,-4.5926,-4.4873,-4.3718,-4.3479,-4.3479,-4.3479,-4.3479,-4.3479,-4.3479,-4.3479,-4.3479,-4.3479,-4.3479,-4.3479,-4.3479,-4.3479,-4.3479,-4.3479,-4.3479,-4.3479,-4.3479,-4.3479,-4.3479,-4.3479,-4.3479,-4.3479,-4.3479,-4.3479,-4.3479,-4.341,-4.3013,-4.2282,-4.1291,-4.0625,-4.0375,-4.0417,-4.0473,-4.075,-4.1291,-4.2101,-4.2617,-4.292,-4.3268,-4.3758,-4.4479,-4.4567,-4.4889,-4.5438,-4.5594,-4.5594,-4.5594,-4.5594,-4.5594,-4.5594,-4.5594,-4.5594,-4.5594,-4.5594,-4.5594,-4.5594,-4.5594,-4.5594,-4.5594,-4.5594,-4.5594,-4.5594,-4.5594,-4.5594,-4.5594,-4.5594,-4.5594,-4.5594,-4.5594,-4.5594,-4.5594,-4.5594,-4.5594,-6.1223,-6.08,-6.08,-6.08,-6.08,-6.08,-6.08,-6.08,-6.08,-6.08,-6.08,-6.08,-6.0089,-5.8954,-5.8454,-5.7646,-5.653,-5.5953,-5.5684,-5.5684,-5.5684,-5.5684,-5.5665,-5.5184,-5.4472,-5.328,-5.2288,-5.1491,-5.0894,-5.0683,-5.0683,-5.0683,-5.0683,-5.0483,-5.0092,-4.97,-4.8405,-4.6837,-4.6077,-4.5112,-4.3754,-4.3479,-4.3479,-4.3479,-4.3479,-4.3479,-4.3479,-4.3479,-4.3479,-4.3479,-4.3479,-4.3479,-4.3479,-4.3479,-4.3479,-4.3479,-4.3479,-4.3479,-4.3479,-4.3479,-4.3479,-4.3479,-4.3479,-4.3479,-4.3479,-4.3479,-4.3479,-4.3392,-4.2958,-4.2203,-4.1064,-4.0726,-4.0441,-4.0146,-4.0113,-4.0237,-4.0601,-4.1313,-4.2142,-4.2519,-4.294,-4.3488,-4.3979,-4.4373,-4.4757,-4.5232,-4.5568,-4.5577,-4.5594,-4.5594,-4.5594,-4.5594,-4.5594,-4.5594,-4.5594,-4.5594,-4.5594,-4.5594,-4.5594,-4.5594,-4.5594,-4.5594,-4.5594,-4.5594,-4.5594,-4.5594,-4.5594,-4.5594,-4.5594,-4.5594,-4.5594,-4.5594,-4.5594,-4.5594,-4.5594,-6.08,-6.08,-6.08,-6.08,-6.08,-6.08,-6.08,-6.08,-6.08,-6.08,-6.08,-6.08,-5.9992,-5.8781,-5.8377,-5.73,-5.6107,-5.5722,-5.5684,-5.5684,-5.5684,-5.5684,-5.5665,-5.5491,-5.4876,-5.3414,-5.2606,-5.176,-5.0952,-5.0683,-5.0683,-5.0683,-5.0683,-5.0483,-5.0111,-4.9711,-4.8572,-4.6744,-4.6195,-4.5201,-4.379,-4.3479,-4.3479,-4.3479,-4.3479,-4.3479,-4.3479,-4.3479,-4.3479,-4.3479,-4.3479,-4.3479,-4.3479,-4.3479,-4.3479,-4.3479,-4.3479,-4.3479,-4.3479,-4.3479,-4.3479,-4.3479,-4.3479,-4.3479,-4.3479,-4.3479,-4.3479,-4.3321,-4.2958,-4.2282,-4.1201,-4.088,-4.0601,-4.0254,-4.0113,-4.0113,-4.0179,-4.0528,-4.1308,-4.2282,-4.2714,-4.3211,-4.3778,-4.4261,-4.4625,-4.4977,-4.5312,-4.5541,-4.555,-4.5594,-4.5594,-4.5594,-4.5594,-4.5594,-4.5594,-4.5594,-4.5594,-4.5594,-4.5594,-4.5594,-4.5594,-4.5594,-4.5594,-4.5594,-4.5594,-4.5594,-4.5594,-4.5594,-4.5594,-4.5594,-4.5594,-4.5594,-4.5594,-4.5594,-4.5594,-6.08,-6.08,-6.08,-6.08,-6.08,-6.08,-6.08,-6.08,-6.08,-6.08,-6.08,-6.0762,-6.0242,-5.9281,-5.8531,-5.7319,-5.6011,-5.5684,-5.5684,-5.5684,-5.5684,-5.5684,-5.5684,-5.5665,-5.5126,-5.4318,-5.3318,-5.2164,-5.1068,-5.0683,-5.0683,-5.0683,-5.0683,-5.0493,-5.0195,-4.9879,-4.8804,-4.6869,-4.6357,-4.5399,-4.3982,-4.3496,-4.3479,-4.3479,-4.3479,-4.3479,-4.3479,-4.3479,-4.3479,-4.3479,-4.3479,-4.3479,-4.3479,-4.3479,-4.3479,-4.3479,-4.3479,-4.3479,-4.3479,-4.3479,-4.3479,-4.3479,-4.3479,-4.3479,-4.3479,-4.3479,-4.3479,-4.3375,-4.3032,-4.2422,-4.1746,-4.1291,-4.0703,-4.0311,-4.0096,-4.0121,-4.0154,-4.0343,-4.0891,-4.2018,-4.2503,-4.2959,-4.3586,-4.4058,-4.4346,-4.4688,-4.5063,-4.5243,-4.5302,-4.5438,-4.5594,-4.5594,-4.5594,-4.5594,-4.5594,-4.5594,-4.5594,-4.5594,-4.5594,-4.5594,-4.5594,-4.5594,-4.5594,-4.5594,-4.5594,-4.5594,-4.5594,-4.5594,-4.5594,-4.5594,-4.5594,-4.5594,-4.5594,-4.5594,-4.5594,-6.08,-6.08,-6.08,-6.08,-6.08,-6.08,-6.08,-6.08,-6.08,-6.08,-6.08,-6.0742,-6.0069,-5.9069,-5.855,-5.7338,-5.6069,-5.5684,-5.5684,-5.5684,-5.5684,-5.5684,-5.5684,-5.5684,-5.5203,-5.4453,-5.3568,-5.2587,-5.1375,-5.0856,-5.0721,-5.0683,-5.0683,-5.0493,-5.0183,-5.0061,-4.882,-4.7206,-4.6504,-4.5627,-4.3906,-4.3631,-4.3496,-4.3479,-4.3479,-4.3479,-4.3479,-4.3479,-4.3479,-4.3479,-4.3479,-4.3479,-4.3479,-4.3479,-4.3479,-4.3479,-4.3479,-4.3479,-4.3479,-4.3479,-4.3479,-4.3479,-4.3479,-4.3479,-4.3479,-4.3479,-4.3479,-4.3427,-4.3357,-4.2884,-4.2304,-4.169,-4.1133,-4.0625,-4.0311,-4.0286,-4.0424,-4.048,-4.1173,-4.1955,-4.2185,-4.2717,-4.3491,-4.3865,-4.4076,-4.4401,-4.4781,-4.4954,-4.5052,-4.5342,-4.5594,-4.5594,-4.5594,-4.5594,-4.5594,-4.5594,-4.5594,-4.5594,-4.5594,-4.5594,-4.5594,-4.5594,-4.5594,-4.5594,-4.5594,-4.5594,-4.5594,-4.5594,-4.5594,-4.5594,-4.5594,-4.5594,-4.5594,-4.5594,-4.5594,-6.08,-6.08,-6.08,-6.08,-6.08,-6.08,-6.08,-6.08,-6.08,-6.08,-6.08,-6.0723,-5.9973,-5.8781,-5.805,-5.7165,-5.5742,-5.5684,-5.5684,-5.5684,-5.5684,-5.5684,-5.5684,-5.5626,-5.5376,-5.4838,-5.3645,-5.275,-5.1788,-5.1048,-5.0741,-5.0683,-5.0683,-5.0565,-5.0294,-5.0302,-4.889,-4.7672,-4.6835,-4.5843,-4.438,-4.374,-4.3565,-4.3496,-4.3479,-4.3479,-4.3479,-4.3479,-4.3479,-4.3479,-4.3479,-4.3479,-4.3479,-4.3479,-4.3479,-4.3479,-4.3479,-4.3479,-4.3479,-4.3479,-4.3479,-4.3479,-4.3479,-4.3479,-4.3479,-4.3479,-4.3479,-4.3479,-4.3462,-4.3214,-4.2656,-4.2244,-4.1711,-4.1201,-4.0791,-4.0594,-4.0943,-4.1201,-4.1573,-4.2018,-4.2021,-4.2544,-4.3406,-4.3646,-4.3836,-4.4061,-4.4441,-4.4781,-4.4931,-4.5381,-4.5586,-4.5594,-4.5594,-4.5594,-4.5594,-4.5594,-4.5594,-4.5594,-4.5594,-4.5594,-4.5594,-4.5594,-4.5594,-4.5594,-4.5594,-4.5594,-4.5594,-4.5594,-4.5594,-4.5594,-4.5594,-4.5594,-4.5594,-4.5594,-4.5594,-6.08,-6.08,-6.08,-6.08,-6.08,-6.08,-6.08,-6.08,-6.08,-6.08,-6.08,-6.0742,-6.0223,-5.9088,-5.7665,-5.6626,-5.5934,-5.5684,-5.5684,-5.5684,-5.5684,-5.5684,-5.5684,-5.5684,-5.5549,-5.503,-5.3837,-5.2799,-5.1904,-5.1087,-5.0712,-5.0683,-5.0683,-5.0663,-5.0565,-5.0544,-4.955,-4.7884,-4.7417,-4.6265,-4.4431,-4.3937,-4.3775,-4.3597,-4.3496,-4.3479,-4.3479,-4.3479,-4.3479,-4.3479,-4.3479,-4.3479,-4.3479,-4.3479,-4.3479,-4.3479,-4.3479,-4.3479,-4.3479,-4.3479,-4.3479,-4.3479,-4.3479,-4.3479,-4.3479,-4.3479,-4.3479,-4.3479,-4.3479,-4.3303,-4.292,-4.2655,-4.2244,-4.1877,-4.149,-4.1486,-4.1664,-4.1729,-4.2121,-4.2462,-4.2599,-4.2884,-4.3443,-4.3513,-4.3599,-4.3839,-4.4091,-4.4474,-4.4861,-4.5283,-4.5586,-4.5594,-4.5594,-4.5594,-4.5594,-4.5594,-4.5594,-4.5594,-4.5594,-4.5594,-4.5594,-4.5594,-4.5594,-4.5594,-4.5594,-4.5594,-4.5594,-4.5594,-4.5594,-4.5594,-4.5594,-4.5594,-4.5594,-4.5594,-4.5594,-6.08,-6.08,-6.08,-6.08,-6.08,-6.08,-6.08,-6.08,-6.08,-6.08,-6.08,-6.08,-6.0089,-5.8665,-5.703,-5.6099,-5.5742,-5.5684,-5.5684,-5.5684,-5.5684,-5.5684,-5.5684,-5.5645,-5.5549,-5.4799,-5.3837,-5.2769,-5.1914,-5.1164,-5.0683,-5.0683,-5.0683,-5.0683,-5.0683,-5.0683,-4.9586,-4.8102,-4.6787,-4.5594,-4.4584,-4.4117,-4.3924,-4.3791,-4.3597,-4.3513,-4.3479,-4.3479,-4.3479,-4.3479,-4.3479,-4.3479,-4.3479,-4.3479,-4.3479,-4.3479,-4.3479,-4.3479,-4.3479,-4.3479,-4.3479,-4.3479,-4.3479,-4.3479,-4.3479,-4.3479,-4.3479,-4.3479,-4.3479,-4.3357,-4.3124,-4.2864,-4.2617,-4.2324,-4.2103,-4.2183,-4.2244,-4.2304,-4.2501,-4.2865,-4.316,-4.3303,-4.3443,-4.3529,-4.3614,-4.3758,-4.4106,-4.454,-4.4884,-4.5243,-4.5466,-4.5594,-4.5594,-4.5594,-4.5594,-4.5594,-4.5594,-4.5594,-4.5594,-4.5594,-4.5594,-4.5594,-4.5594,-4.5594,-4.5594,-4.5594,-4.5594,-4.5594,-4.5594,-4.5594,-4.5594,-4.5594,-4.5594,-4.5594,-4.5594,-6.08,-6.08,-6.08,-6.08,-6.08,-6.08,-6.08,-6.08,-6.08,-6.08,-6.0646,-6.0319,-5.9281,-5.7953,-5.6511,-5.5761,-5.5703,-5.5684,-5.5684,-5.5684,-5.5684,-5.5684,-5.5684,-5.5645,-5.528,-5.4472,-5.3664,-5.2731,-5.1914,-5.1164,-5.0683,-5.0683,-5.0683,-5.0683,-5.0683,-5.0577,-4.9817,-4.8106,-4.6291,-4.5257,-4.472,-4.4378,-4.4132,-4.3924,-4.371,-4.3479,-4.3479,-4.3479,-4.3479,-4.3479,-4.3479,-4.3479,-4.3479,-4.3479,-4.3479,-4.3479,-4.3479,-4.3479,-4.3479,-4.3479,-4.3479,-4.3479,-4.3479,-4.3479,-4.3479,-4.3479,-4.3479,-4.3479,-4.3479,-4.3479,-4.341,-4.3105,-4.2995,-4.2808,-4.2617,-4.2675,-4.2752,-4.279,-4.2865,-4.3124,-4.3321,-4.3392,-4.3513,-4.3579,-4.3679,-4.3742,-4.4095,-4.458,-4.4966,-4.5332,-4.5438,-4.5594,-4.5594,-4.5594,-4.5594,-4.5594,-4.5594,-4.5594,-4.5594,-4.5594,-4.5594,-4.5594,-4.5594,-4.5594,-4.5594,-4.5594,-4.5594,-4.5594,-4.5594,-4.5594,-4.5594,-4.5594,-4.5594,-4.5594,-4.5594,-6.08,-6.08,-6.08,-6.08,-6.08,-6.08,-6.08,-6.08,-6.08,-6.0742,-6.0454,-5.9281,-5.8165,-5.7069,-5.628,-5.5684,-5.5684,-5.5684,-5.5684,-5.5684,-5.5684,-5.5684,-5.5684,-5.5588,-5.5241,-5.4376,-5.3568,-5.2731,-5.1885,-5.1048,-5.0741,-5.0683,-5.0683,-5.0683,-5.0577,-5.0346,-4.9586,-4.8009,-4.6368,-4.539,-4.5011,-4.4682,-4.4346,-4.3986,-4.3693,-4.3479,-4.3479,-4.3479,-4.3479,-4.3479,-4.3479,-4.3479,-4.3479,-4.3479,-4.3479,-4.3479,-4.3479,-4.3479,-4.3479,-4.3479,-4.3479,-4.3479,-4.3479,-4.3479,-4.3479,-4.3479,-4.3479,-4.3479,-4.3479,-4.3479,-4.3479,-4.3463,-4.3322,-4.3232,-4.3069,-4.3124,-4.3178,-4.3232,-4.3321,-4.3444,-4.3479,-4.3479,-4.3579,-4.3677,-4.3788,-4.3865,-4.4332,-4.4837,-4.5182,-4.5504,-4.5522,-4.5594,-4.5594,-4.5594,-4.5594,-4.5594,-4.5594,-4.5594,-4.5594,-4.5594,-4.5594,-4.5594,-4.5594,-4.5594,-4.5594,-4.5594,-4.5594,-4.5594,-4.5594,-4.5594,-4.5594,-4.5594,-4.5594,-4.5594,-4.5594,-6.08,-6.08,-6.08,-6.08,-6.08,-6.08,-6.08,-6.08,-6.08,-6.0454,-5.9935,-5.88,-5.7819,-5.6945,-5.6126,-5.5684,-5.5684,-5.5684,-5.5684,-5.5684,-5.5684,-5.5684,-5.5684,-5.5491,-5.5049,-5.3953,-5.328,-5.2414,-5.1164,-5.0846,-5.076,-5.0683,-5.0683,-5.0683,-5.0539,-4.9827,-4.8817,-4.8009,-4.6568,-4.5467,-4.5107,-4.4757,-4.4419,-4.4016,-4.366,-4.3513,-4.3479,-4.3479,-4.3479,-4.3479,-4.3479,-4.3479,-4.3479,-4.3479,-4.3479,-4.3479,-4.3479,-4.3479,-4.3479,-4.3479,-4.3479,-4.3479,-4.3479,-4.3479,-4.3479,-4.3479,-4.3479,-4.3479,-4.3479,-4.3479,-4.3479,-4.3479,-4.3462,-4.3479,-4.3479,-4.3479,-4.3479,-4.3479,-4.3479,-4.3479,-4.3479,-4.3479,-4.3629,-4.3788,-4.3896,-4.4046,-4.4561,-4.5052,-4.5371,-4.5594,-4.5594,-4.5594,-4.5594,-4.5594,-4.5594,-4.5594,-4.5594,-4.5594,-4.5594,-4.5594,-4.5594,-4.5594,-4.5594,-4.5594,-4.5594,-4.5594,-4.5594,-4.5594,-4.5594,-4.5594,-4.5594,-4.5594,-4.5594,-4.5594,-4.5594,-6.08,-6.08,-6.08,-6.08,-6.08,-6.08,-6.08,-6.08,-6.08,-6.0127,-5.9108,-5.828,-5.7434,-5.6618,-5.603,-5.5703,-5.5684,-5.5684,-5.5684,-5.5684,-5.5684,-5.5684,-5.5684,-5.5453,-5.4895,-5.3568,-5.3068,-5.2375,-5.0846,-5.0731,-5.0683,-5.0683,-5.0683,-5.0683,-5.0366,-4.9317,-4.8375,-4.7778,-4.6837,-4.5621,-4.5192,-4.4757,-4.4419,-4.4016,-4.366,-4.3513,-4.3479,-4.3479,-4.3479,-4.3479,-4.3479,-4.3479,-4.3479,-4.3479,-4.3479,-4.3479,-4.3479,-4.3479,-4.3479,-4.3479,-4.3479,-4.3479,-4.3479,-4.3479,-4.3479,-4.3479,-4.3479,-4.3479,-4.3479,-4.3479,-4.3479,-4.3479,-4.3479,-4.3479,-4.3479,-4.3479,-4.3479,-4.3479,-4.3479,-4.3479,-4.3496,-4.3529,-4.3912,-4.4117,-4.4382,-4.4542,-4.4935,-4.5292,-4.5438,-4.5594,-4.5594,-4.5594,-4.5594,-4.5594,-4.5594,-4.5594,-4.5594,-4.5594,-4.5594,-4.5594,-4.5594,-4.5594,-4.5594,-4.5594,-4.5594,-4.5594,-4.5594,-4.5594,-4.5594,-4.5594,-4.5594,-4.5594,-4.5594,-4.5594,-4.5594,-6.08,-6.08,-6.08,-6.08,-6.08,-6.08,-6.08,-6.0762,-6.0685,-5.9838,-5.8434,-5.753,-5.6665,-5.5972,-5.5722,-5.5703,-5.5684,-5.5684,-5.5684,-5.5684,-5.5684,-5.5684,-5.5645,-5.5415,-5.4684,-5.3549,-5.2933,-5.2125,-5.0731,-5.0702,-5.0683,-5.0683,-5.0683,-5.0683,-5.0616,-4.9817,-4.8952,-4.8105,-4.7221,-4.6186,-4.5249,-4.4757,-4.4401,-4.4031,-4.366,-4.3496,-4.3479,-4.3479,-4.3479,-4.3479,-4.3479,-4.3479,-4.3479,-4.3479,-4.3479,-4.3479,-4.3479,-4.3479,-4.3479,-4.3479,-4.3479,-4.3479,-4.3479,-4.3479,-4.3479,-4.3479,-4.3479,-4.3479,-4.3479,-4.3479,-4.3479,-4.3479,-4.3479,-4.3479,-4.3479,-4.3479,-4.3479,-4.3479,-4.3479,-4.3479,-4.3531,-4.3646,-4.4121,-4.4521,-4.4865,-4.514,-4.54,-4.555,-4.5586,-4.5594,-4.5594,-4.5594,-4.5594,-4.5594,-4.5594,-4.5594,-4.5594,-4.5594,-4.5594,-4.5594,-4.5594,-4.5594,-4.5594,-4.5594,-4.5594,-4.5594,-4.5594,-4.5594,-4.5594,-4.5594,-4.5594,-4.5594,-4.5594,-4.5594,-4.5594,-6.08,-6.08,-6.08,-6.08,-6.08,-6.08,-6.0781,-6.0685,-6.0165,-5.93,-5.83,-5.7376,-5.6522,-5.5915,-5.5684,-5.5684,-5.5684,-5.5684,-5.5684,-5.5684,-5.5684,-5.5684,-5.5588,-5.5088,-5.4318,-5.3318,-5.2664,-5.1895,-5.0702,-5.0683,-5.0683,-5.0683,-5.0683,-5.0683,-5.0452,-4.9837,-4.8971,-4.8125,-4.726,-4.633,-4.523,-4.4757,-4.4387,-4.3982,-4.3662,-4.3496,-4.3479,-4.3479,-4.3479,-4.3479,-4.3479,-4.3479,-4.3479,-4.3479,-4.3479,-4.3479,-4.3479,-4.3479,-4.3479,-4.3479,-4.3479,-4.3479,-4.3479,-4.3479,-4.3479,-4.3479,-4.3479,-4.3479,-4.3479,-4.3479,-4.3479,-4.3479,-4.3479,-4.3479,-4.3479,-4.3479,-4.3479,-4.3479,-4.3479,-4.3479,-4.3513,-4.3915,-4.4364,-4.4762,-4.514,-4.5322,-4.5513,-4.5568,-4.5594,-4.5594,-4.5594,-4.5594,-4.5594,-4.5594,-4.5594,-4.5594,-4.5594,-4.5594,-4.5594,-4.5594,-4.5594,-4.5594,-4.5594,-4.5594,-4.5594,-4.5594,-4.5594,-4.5594,-4.5594,-4.5594,-4.5594,-4.5594,-4.5594,-4.5594,-4.5594,-6.08,-6.08,-6.08,-6.0608,-6.0416,-6.0666,-6.0666,-6.0185,-5.9165,-5.8319,-5.7723,-5.6915,-5.6252,-5.5799,-5.5684,-5.5684,-5.5684,-5.5684,-5.5684,-5.5684,-5.5684,-5.5491,-5.5126,-5.4703,-5.3837,-5.2933,-5.2192,-5.1491,-5.0721,-5.0683,-5.0683,-5.0683,-5.0664,-5.0442,-5.0231,-4.9779,-4.9279,-4.8394,-4.7482,-4.654,-4.5388,-4.4644,-4.4337,-4.3912,-4.3612,-4.3479,-4.3479,-4.3479,-4.3479,-4.3479,-4.3479,-4.3479,-4.3479,-4.3479,-4.3479,-4.3479,-4.3479,-4.3479,-4.3479,-4.3479,-4.3479,-4.3479,-4.3479,-4.3479,-4.3479,-4.3479,-4.3479,-4.3479,-4.3479,-4.3479,-4.3479,-4.3479,-4.3479,-4.3479,-4.3479,-4.3479,-4.3479,-4.3479,-4.3479,-4.3479,-4.371,-4.4154,-4.4606,-4.4988,-4.5371,-4.5495,-4.5594,-4.5594,-4.5594,-4.5594,-4.5594,-4.5594,-4.5594,-4.5594,-4.5594,-4.5594,-4.5594,-4.5594,-4.5594,-4.5594,-4.5594,-4.5594,-4.5594,-4.5594,-4.5594,-4.5594,-4.5594,-4.5594,-4.5594,-4.5594,-4.5594,-4.5594,-4.5594,-4.5594,-4.5594,-6.0742,-6.0742,-6.0723,-6.0185,-5.9665,-6.0146,-6.0069,-5.9338,-5.7791,-5.7099,-5.7003,-5.6214,-5.5761,-5.5722,-5.5684,-5.5684,-5.5684,-5.5684,-5.5684,-5.5684,-5.5684,-5.5241,-5.478,-5.4357,-5.3395,-5.2442,-5.1712,-5.1279,-5.0721,-5.0683,-5.0683,-5.0683,-5.0683,-5.0289,-5.0,-4.9827,-4.9279,-4.8202,-4.7597,-4.6499,-4.5185,-4.4663,-4.4266,-4.3852,-4.3582,-4.3496,-4.3479,-4.3479,-4.3479,-4.3479,-4.3479,-4.3479,-4.3479,-4.3479,-4.3479,-4.3479,-4.3479,-4.3479,-4.3479,-4.3479,-4.3479,-4.3479,-4.3479,-4.3479,-4.3479,-4.3479,-4.3479,-4.3479,-4.3479,-4.3479,-4.3479,-4.3479,-4.3479,-4.3479,-4.3479,-4.3479,-4.3479,-4.3479,-4.3479,-4.3595,-4.3881,-4.4304,-4.4872,-4.5292,-4.5485,-4.5531,-4.5594,-4.5594,-4.5594,-4.5594,-4.5594,-4.5594,-4.5594,-4.5594,-4.5594,-4.5594,-4.5594,-4.5594,-4.5594,-4.5594,-4.5594,-4.5594,-4.5594,-4.5594,-4.5594,-4.5594,-4.5594,-4.5594,-4.5594,-4.5594,-4.5594,-4.5594,-4.5594,-4.5594,-4.5594,-5.9877,-5.9819,-5.9261,-5.8877,-5.8627,-5.8272,-5.8261,-5.8434,-5.7464,-5.7003,-5.6964,-5.6069,-5.5703,-5.5684,-5.5684,-5.5684,-5.5684,-5.5684,-5.5684,-5.5665,-5.5549,-5.5107,-5.4511,-5.378,-5.2904,-5.2068,-5.1375,-5.101,-5.076,-5.0683,-5.0683,-5.0683,-5.0683,-5.0173,-4.9731,-4.9606,-4.8586,-4.774,-4.7336,-4.6356,-4.5289,-4.4726,-4.4276,-4.3927,-4.358,-4.3531,-4.3479,-4.3479,-4.3479,-4.3479,-4.3479,-4.3479,-4.3479,-4.3479,-4.3479,-4.3479,-4.3479,-4.3479,-4.3479,-4.3479,-4.3479,-4.3479,-4.3479,-4.3479,-4.3479,-4.3479,-4.3479,-4.3479,-4.3479,-4.3479,-4.3479,-4.3479,-4.3479,-4.3479,-4.3479,-4.3479,-4.3496,-4.3563,-4.358,-4.3884,-4.4165,-4.4574,-4.5118,-4.539,-4.554,-4.5586,-4.5594,-4.5594,-4.5594,-4.5594,-4.5594,-4.5594,-4.5594,-4.5594,-4.5594,-4.5594,-4.5594,-4.5594,-4.5594,-4.5594,-4.5594,-4.5594,-4.5594,-4.5594,-4.5594,-4.5594,-4.5594,-4.5594,-4.5594,-4.5594,-4.5594,-4.5594,-4.5594,-4.5594,-4.5594,-5.9031,-5.8973,-5.8511,-5.8107,-5.7646,-5.6857,-5.6819,-5.7126,-5.6695,-5.6483,-5.6415,-5.5915,-5.5684,-5.5684,-5.5684,-5.5684,-5.5684,-5.5684,-5.5549,-5.5145,-5.5203,-5.4299,-5.3606,-5.2972,-5.2222,-5.1491,-5.1029,-5.076,-5.0683,-5.0683,-5.0683,-5.0683,-5.0683,-4.9913,-4.9221,-4.8721,-4.7913,-4.7124,-4.6511,-4.6081,-4.5431,-4.4757,-4.4401,-4.4016,-4.366,-4.3531,-4.3479,-4.3479,-4.3479,-4.3479,-4.3479,-4.3479,-4.3479,-4.3479,-4.3479,-4.3479,-4.3479,-4.3479,-4.3479,-4.3479,-4.3479,-4.3479,-4.3479,-4.3479,-4.3479,-4.3479,-4.3479,-4.3479,-4.3479,-4.3479,-4.3479,-4.3479,-4.3479,-4.3479,-4.3479,-4.3479,-4.3546,-4.3647,-4.3884,-4.4194,-4.4521,-4.49,-4.5232,-4.5457,-4.5594,-4.5594,-4.5594,-4.5594,-4.5594,-4.5594,-4.5594,-4.5594,-4.5594,-4.5594,-4.5594,-4.5594,-4.5594,-4.5594,-4.5594,-4.5594,-4.5594,-4.5594,-4.5594,-4.5594,-4.5594,-4.5594,-4.5594,-4.5594,-4.5594,-4.5594,-4.5594,-4.5594,-4.5594,-4.5594,-4.5594,-5.8184,-5.8165,-5.8107,-5.753,-5.6849,-5.6079,-5.578,-5.5684,-5.5799,-5.5722,-5.5742,-5.5703,-5.5684,-5.5665,-5.553,-5.5453,-5.5299,-5.5222,-5.4799,-5.4414,-5.4376,-5.3645,-5.2615,-5.1885,-5.1645,-5.1048,-5.0683,-5.0683,-5.0683,-5.0683,-5.0683,-5.0683,-5.0519,-4.974,-4.8529,-4.8105,-4.7298,-4.6268,-4.6194,-4.6081,-4.5317,-4.4757,-4.4401,-4.4016,-4.371,-4.3479,-4.3479,-4.3479,-4.3479,-4.3479,-4.3479,-4.3479,-4.3479,-4.3479,-4.3479,-4.3479,-4.3479,-4.3479,-4.3479,-4.3479,-4.3479,-4.3479,-4.3479,-4.3479,-4.3479,-4.3479,-4.3479,-4.3479,-4.3479,-4.3479,-4.3479,-4.3479,-4.3479,-4.3479,-4.3479,-4.3479,-4.3531,-4.3742,-4.4136,-4.4441,-4.4781,-4.5129,-4.5371,-4.5594,-4.5594,-4.5594,-4.5594,-4.5594,-4.5594,-4.5594,-4.5594,-4.5594,-4.5594,-4.5594,-4.5594,-4.5594,-4.5594,-4.5594,-4.5594,-4.5594,-4.5594,-4.5594,-4.5594,-4.5594,-4.5594,-4.5594,-4.5594,-4.5594,-4.5594,-4.5594,-4.5594,-4.5594,-4.5594,-4.5594,-4.5594,-5.7319,-5.7253,-5.6588,-5.6165,-5.6011,-5.578,-5.5684,-5.5684,-5.5684,-5.5684,-5.5684,-5.5684,-5.5645,-5.5549,-5.5068,-5.4876,-5.4684,-5.4337,-5.378,-5.3568,-5.351,-5.2933,-5.2038,-5.1722,-5.1356,-5.0933,-5.0683,-5.0683,-5.0683,-5.0683,-5.0673,-5.0616,-5.0221,-4.9183,-4.8144,-4.7702,-4.674,-4.571,-4.5769,-4.5822,-4.5246,-4.4781,-4.4419,-4.4031,-4.3726,-4.3513,-4.3479,-4.3479,-4.3479,-4.3479,-4.3479,-4.3479,-4.3479,-4.3479,-4.3479,-4.3479,-4.3479,-4.3479,-4.3479,-4.3479,-4.3479,-4.3479,-4.3479,-4.3479,-4.3479,-4.3479,-4.3479,-4.3479,-4.3479,-4.3479,-4.3479,-4.3479,-4.3479,-4.3479,-4.3496,-4.3496,-4.3513,-4.3943,-4.4373,-4.4726,-4.5052,-4.5292,-4.5513,-4.5594,-4.5594,-4.5594,-4.5594,-4.5594,-4.5594,-4.5594,-4.5594,-4.5594,-4.5594,-4.5594,-4.5594,-4.5594,-4.5594,-4.5594,-4.5594,-4.5594,-4.5594,-4.5594,-4.5594,-4.5594,-4.5594,-4.5594,-4.5594,-4.5594,-4.5594,-4.5594,-4.5594,-4.5594,-4.5594,-4.5594,-4.5594,-5.6415,-5.6357,-5.5915,-5.5684,-5.5684,-5.5684,-5.5684,-5.5684,-5.5684,-5.5684,-5.5684,-5.5665,-5.553,-5.5241,-5.4684,-5.4126,-5.3914,-5.3472,-5.3029,-5.2769,-5.2549,-5.2068,-5.1683,-5.1414,-5.1125,-5.075,-5.0712,-5.0683,-5.0683,-5.0683,-5.0673,-5.0519,-4.9798,-4.8913,-4.8067,-4.7278,-4.6451,-4.5643,-4.5614,-4.5485,-4.5222,-4.4872,-4.4553,-4.4194,-4.3836,-4.358,-4.3479,-4.3479,-4.3479,-4.3479,-4.3479,-4.3479,-4.3479,-4.3479,-4.3479,-4.3479,-4.3479,-4.3479,-4.3479,-4.3479,-4.3479,-4.3479,-4.3479,-4.3479,-4.3479,-4.3479,-4.3479,-4.3479,-4.3479,-4.3479,-4.3479,-4.3479,-4.3479,-4.3479,-4.3563,-4.3614,-4.3884,-4.4294,-4.475,-4.5192,-4.539,-4.5438,-4.5586,-4.5594,-4.5594,-4.5594,-4.5594,-4.5594,-4.5594,-4.5594,-4.5594,-4.5594,-4.5594,-4.5594,-4.5594,-4.5594,-4.5594,-4.5594,-4.5594,-4.5594,-4.5594,-4.5594,-4.5594,-4.5594,-4.5594,-4.5594,-4.5594,-4.5594,-4.5594,-4.5594,-4.5594,-4.5594,-4.5594,-4.5594,-4.5594,-5.5745,-5.5695,-5.5684,-5.5684,-5.5684,-5.5684,-5.5684,-5.5684,-5.5684,-5.5607,-5.5472,-5.5472,-5.5068,-5.4703,-5.4145,-5.3606,-5.3077,-5.2587,-5.2212,-5.1904,-5.176,-5.1414,-5.1087,-5.076,-5.0731,-5.0731,-5.0702,-5.0683,-5.0683,-5.0693,-5.0596,-5.0404,-4.9663,-4.8779,-4.7952,-4.7124,-4.624,-4.5768,-4.5586,-4.5559,-4.5302,-4.4966,-4.467,-4.4337,-4.3946,-4.3548,-4.3479,-4.3479,-4.3479,-4.3479,-4.3479,-4.3479,-4.3479,-4.3479,-4.3479,-4.3479,-4.3479,-4.3479,-4.3479,-4.3479,-4.3479,-4.3479,-4.3479,-4.3496,-4.3496,-4.3546,-4.3546,-4.3496,-4.3496,-4.3496,-4.3496,-4.3479,-4.3479,-4.3496,-4.3597,-4.3728,-4.4125,-4.4519,-4.4977,-4.5438,-4.5495,-4.5514,-4.5568,-4.5577,-4.554,-4.5549,-4.5586,-4.5594,-4.5594,-4.5594,-4.5594,-4.5594,-4.5594,-4.5594,-4.5594,-4.5594,-4.5594,-4.5594,-4.5594,-4.5594,-4.5594,-4.5594,-4.5594,-4.5594,-4.5594,-4.5594,-4.5594,-4.5594,-4.5594,-4.5594,-4.5594,-4.5594,-4.5594,-4.5594,-4.5594,-5.5779,-5.5684,-5.5684,-5.5684,-5.5684,-5.5684,-5.5684,-5.5684,-5.5645,-5.5376,-5.4818,-5.4722,-5.4587,-5.4376,-5.2914,-5.225,-5.2164,-5.1722,-5.1279,-5.0933,-5.1087,-5.0894,-5.075,-5.0683,-5.0683,-5.0683,-5.0683,-5.0683,-5.0683,-5.0673,-5.0327,-4.9721,-4.8836,-4.799,-4.7163,-4.6432,-4.5864,-4.5594,-4.5549,-4.5522,-4.5201,-4.4896,-4.467,-4.4308,-4.3884,-4.3631,-4.3479,-4.3479,-4.3479,-4.3479,-4.3479,-4.3479,-4.3479,-4.3479,-4.3479,-4.3479,-4.3479,-4.3479,-4.3479,-4.3479,-4.3479,-4.3479,-4.3496,-4.3531,-4.3614,-4.3788,-4.3726,-4.3563,-4.3546,-4.3531,-4.3513,-4.3496,-4.3479,-4.3479,-4.3548,-4.3742,-4.4035,-4.4378,-4.4745,-4.5022,-4.5191,-4.5302,-4.5448,-4.54,-4.5313,-4.5371,-4.5513,-4.5522,-4.5594,-4.5594,-4.5594,-4.5594,-4.5594,-4.5594,-4.5594,-4.5594,-4.5594,-4.5594,-4.5594,-4.5594,-4.5594,-4.5594,-4.5594,-4.5594,-4.5594,-4.5594,-4.5594,-4.5594,-4.5594,-4.5594,-4.5594,-4.5594,-4.5594,-4.5594,-4.5594]},{"header":{"parameterUnit":"m.s-1","parameterCategory":1,"la1":31.0,"la2":29.5877,"lo1":-88.7671,"lo2":-86.6584,"dy":0.0162,"dx":0.0185,"nx":115,"ny":88,"refTime":"2024-05-23T00:00:00:Z","depth":0,"parameterNumber":3,"parameterNumberName":"V-component_of_WINDS"},"data":[0.0,0.0,0.0,0.0,0.0,0.0,0.0,0.0,0.0,0.0,0.0,0.0,0.0,0.0,0.0,0.0,0.0,0.0,0.0,0.0,0.0,0.0,0.0,0.0,0.0,0.0,0.0,0.0,0.0,0.0,0.0,0.0,0.0,0.0,0.0,0.0,0.0,0.0,0.0,0.0,0.0,0.0,0.0,0.0,0.0,0.0,0.0,0.0,0.0,0.0,0.0,0.0,0.0,0.0,0.0,0.0,0.0,0.0,0.0,0.0,0.0,0.0,0.0,0.0,0.0,0.0,0.0,0.0,0.0,0.0,0.0,0.0,0.0,0.0,0.0,0.0,0.0,0.0,0.0,0.0,0.0,0.0,0.0,0.0,0.0,0.0,0.0,0.0,0.0,0.0,0.0,0.0,0.0,0.0,0.0,0.0,0.0,0.0,0.0,0.0,0.0,0.0,0.0,0.0,0.0,0.0,0.0,0.0,0.0,0.0,0.0,0.0,0.0,0.0,0.0,0.0,0.0,0.0,0.0,0.0,0.0,0.0,0.0,0.0,0.0,0.0,0.0,0.0,0.0,0.0,0.0,0.0,0.0,0.0,0.0,0.0,0.0,0.0,0.0,0.0,0.0,0.0,0.0,0.0,0.0,0.0,0.0,0.0,0.0,0.0,0.0,0.0,0.0,0.0,0.0,0.0,0.0,0.0,0.0,0.0,0.0,0.0,0.0,0.0,0.0,0.0,0.0,0.0,0.0,0.0,0.0,0.0,0.0,0.0,0.0,0.0,0.0,0.0,0.0,0.0,0.0,0.0,0.0,0.0,0.0,0.0,0.0,0.0,0.0,0.0,0.0,0.0,0.0,0.0,0.0,0.0,0.0,0.0,0.0,0.0,0.0,0.0,0.0,0.0,0.0,0.0,0.0,0.0,0.0,0.0,0.0,0.0,0.0,0.0,0.0,0.0,0.0,0.0,0.0,0.0,0.0,0.0,0.0,0.0,0.0,0.0,0.0,0.0,0.0,0.0,0.0,0.0,0.0,0.0,0.0,0.0,0.0,0.0,0.0,0.0,0.0,0.0,0.0,0.0,0.0,0.0,0.0,0.0,0.0,0.0,0.0,0.0,0.0,0.0,0.0,0.0,0.0,0.0,0.0,0.0,0.0,0.0,0.0,0.0,0.0,0.0,0.0,0.0,0.0,0.0,0.0,0.0,0.0,0.0,0.0,0.0,0.0,0.0,0.0,0.0,0.0,0.0,0.0,0.0,0.0,0.0,0.0,0.0,0.0,0.0,0.0,0.0,0.0,0.0,0.0,0.0,0.0,0.0,0.0,0.0,0.0,0.0,0.0,0.0,0.0,0.0,0.0,0.0,0.0,0.0,0.0,0.0,0.0,0.0,0.0,0.0,0.0,0.0,0.0,0.0,0.0,0.0,0.0,0.0,0.0,0.0,0.0,0.0,0.0,0.0,0.0,0.0,0.0,0.0,0.0,0.0,0.0,0.0,0.0,0.0,0.0,0.0,0.0,0.0,0.0,0.0,0.0,0.0,0.0,0.0,0.0,0.0,0.0,0.0,0.0,0.0,0.0,0.0,0.0,0.0,0.0,0.0,0.0,0.0,0.0,0.0,0.0,0.0,0.0,0.0,0.0,0.0,0.0,0.0,0.0,0.0,0.0,0.0,0.0,0.0,0.0,0.0,0.0,0.0,0.0,0.0,0.0,0.0,0.0,0.0,0.0,0.0,0.0,0.0,0.0,0.0,0.0,0.0,0.0,0.0,0.0,0.0,0.0,0.0,0.0,0.0,0.0,0.0,0.0,0.0,0.0,0.0,0.0,0.0,0.0,0.0,0.0,0.0,0.0,0.0,0.0,0.0,0.0,0.0,0.0,0.0,0.0,0.0,0.0,0.0,0.0,0.0,0.0,0.0,0.0,0.0,0.0,0.0,0.0,0.0,0.0,0.0,0.0,0.0,0.0,0.0,0.0,0.0,0.0,0.0,0.0,0.0,0.0,0.0,0.0,0.0,0.0,0.0,0.0,0.0,0.0,0.0,0.0,0.0,0.0,0.0,0.0,0.0,0.0,0.0,0.0,0.0,0.0,0.0,0.0,0.0,0.0,0.0,0.0,0.0,0.0,0.0,0.0,0.0,0.0,0.0,0.0,0.0,0.0,0.0,0.0,0.0,0.0,0.0,0.0,0.0,0.0,0.0,0.0,0.0,0.0,0.0,0.0,0.0,0.0,0.0,0.0,0.0,0.0,0.0,0.0,0.0,0.0,0.0,0.0,0.0,0.0,0.0,0.0,0.0,0.0,0.0,0.0,0.0,0.0,0.0,0.0,0.0,0.0,0.0,0.0,0.0,0.0,0.0,0.0,0.0,0.0,0.0,0.0,0.0,0.0,0.0,0.0,0.0,0.0,0.0,0.0,0.0,0.0,0.0,0.0,0.0,0.0,0.0,0.0,0.0,0.0,0.0,0.0,0.0,0.0,0.0,0.0,0.0,0.0,0.0,0.0,0.0,0.0,0.0,0.0,0.0,0.0,0.0,0.0,0.0,0.0,0.0,0.0,0.0,0.0,0.0,0.0,0.0,0.0,0.0,0.0,0.0,0.0,0.0,0.0,0.0,0.0,0.0,0.0,0.0,0.0,0.0,0.0,0.0,0.0,0.0,0.0,0.0,0.0,0.0,0.0,0.0,0.0,0.0,0.0,0.0,0.0,0.0,0.0,0.0,0.0,0.0,0.0,0.0,0.0,0.0,0.0,0.0,0.0,0.0,0.0,0.0,0.0,0.0,0.0,0.0,0.0,0.0,0.0,0.0,0.0,0.0,0.0,0.0,0.0,0.0,0.0,0.0,0.0,0.0,0.0,0.0,0.0,0.0,0.0,0.0,0.0,0.0,0.0,0.0,0.0,0.0,0.0,0.0,0.0,0.0,0.0,0.0,0.0,0.0,0.0,0.0,0.0,0.0,0.0,0.0,0.0,0.0,0.0,0.0,0.0,0.0,0.0,0.0,0.0,0.0,0.0,0.0,0.0,0.0,0.0,0.0,0.0,0.0,0.0,0.0,0.0,0.0,0.0,0.0,0.0,0.0,0.0,0.0,0.0,0.0,0.0,0.0,0.0,0.0,0.0,0.0,0.0,0.0,0.0,0.0,0.0,0.0,0.0,0.0,0.0,0.0,0.0,0.0,0.0,0.0,0.0,0.0,0.0,0.0,0.0,0.0,0.0,0.0,0.0,0.0,0.0,0.0,0.0,0.0,0.0,0.0,0.0,0.0,0.0,0.0,0.0,0.0,0.0,0.0,0.0,0.0,0.0,0.0,0.0,0.0,0.0,0.0,0.0,0.0,0.0,0.0,0.0,0.0,0.0,0.0,0.0,0.0,0.0,0.0,0.0,0.0,0.0,0.0,0.0,0.0,0.0,0.0,0.0,0.0,0.0,0.0,0.0,0.0,0.0,0.0,0.0,0.0,0.0,0.0,0.0,0.0,0.0,0.0,0.0,0.0,0.0,0.0,0.0,0.0,0.0,0.0,0.0,0.0,0.0,0.0,0.0,0.0,0.0,0.0,0.0,0.0,0.0,0.0,0.0,0.0,0.0,0.0,0.0,0.0,0.0,0.0,0.0,0.0,0.0,0.0,0.0,0.0,0.0,0.0,0.0,0.0,0.0,0.0,0.0,0.0,0.0,0.0,0.0,0.0,0.0,0.0,0.0,0.0,0.0,0.0,0.0,0.0,0.0,0.0,0.0,0.0,0.0,0.0,0.0,0.0,0.0,0.0,0.0,0.0,0.0,0.0,0.0,0.0,0.0,0.0,0.0,0.0,0.0,0.0,0.0,0.0,0.0,0.0,0.0,0.0,0.0,0.0,0.0,0.0,0.0,0.0,0.0,0.0,0.0,0.0,0.0,0.0,0.0,0.0,0.0,0.0,0.0,0.0,0.0,0.0,0.0,0.0,0.0,0.0,0.0,0.0,0.0,0.0,0.0,0.0,0.0,0.0,0.0,0.0,0.0,0.0,0.0,0.0,0.0,0.0,0.0,0.0,0.0,0.0,0.0,0.0,0.0,0.0,0.0,0.0,0.0,0.0,0.0,0.0,0.0,0.0,0.0,0.0,0.0,0.0,0.0,0.0,0.0,0.0,0.0,0.0,0.0,0.0,0.0,0.0,0.0,0.0,0.0,0.0,0.0,0.0,0.0,0.0,0.0,0.0,0.0,0.0,0.0,0.0,0.0,0.0,0.0,0.0,0.0,0.0,0.0,0.0,0.0,0.0,-0.9927,0.0,0.0,0.0,0.0,0.0,0.0,0.0,0.0,0.0,0.0,0.0,0.0,0.0,0.0,0.0,0.0,0.0,0.0,0.0,0.0,0.0,0.0,0.0,0.0,0.0,0.0,0.0,0.0,0.0,0.0,0.0,0.0,0.0,0.0,0.0,0.0,0.0,0.0,0.0,0.0,0.0,0.0,0.0,0.0,0.0,0.0,0.0,0.0,0.0,0.0,0.0,0.0,0.0,0.0,0.0,0.0,0.0,0.0,0.0,0.0,0.0,0.0,0.0,0.0,0.0,0.0,0.0,0.0,0.0,0.0,0.0,0.0,0.0,0.0,0.0,0.0,0.0,0.0,0.0,0.0,0.0,0.0,0.0,0.0,0.0,0.0,0.0,0.0,0.0,0.0,0.0,0.0,0.0,0.0,0.0,0.0,0.0,0.0,0.0,0.0,0.0,0.0,0.0,0.0,0.0,0.0,0.0,0.0,0.0,0.0,-0.8878,-0.9381,-0.9677,-1.0068,-1.065,0.0,0.0,0.0,0.0,0.0,0.0,0.0,0.0,0.0,0.0,0.0,0.0,0.0,0.0,0.0,0.0,0.0,0.0,0.0,0.0,0.0,0.0,0.0,0.0,0.0,0.0,0.0,0.0,0.0,0.0,0.0,0.0,0.0,0.0,0.0,0.0,0.0,0.0,0.0,0.0,0.0,0.0,0.0,0.0,0.0,0.0,0.0,0.0,0.0,0.0,0.0,0.0,0.0,0.0,0.0,0.0,0.0,0.0,0.0,0.0,0.0,0.0,0.0,0.0,0.0,0.0,0.0,0.0,0.0,0.0,0.0,0.0,0.0,0.0,0.0,0.0,0.0,0.0,0.0,0.0,0.0,0.0,0.0,0.0,0.0,0.0,0.0,0.0,0.0,0.0,0.0,0.0,0.0,0.0,0.0,0.0,0.0,0.0,0.0,0.0,0.0,0.0,0.0,0.0,0.0,0.0,0.0,0.0,0.0,0.0,0.0,0.0,-0.9969,-1.0467,-1.124,0.0,0.0,0.0,0.0,0.0,0.0,0.0,0.0,0.0,0.0,0.0,0.0,0.0,0.0,0.0,0.0,0.0,0.0,0.0,0.0,0.0,0.0,0.0,0.0,0.0,0.0,0.0,0.0,0.0,0.0,0.0,0.0,0.0,0.0,0.0,0.0,0.0,0.0,0.0,0.0,0.0,0.0,0.0,0.0,0.0,0.0,0.0,0.0,0.0,0.0,0.0,0.0,0.0,0.0,0.0,0.0,0.0,0.0,0.0,0.0,0.0,0.0,0.0,0.0,0.0,0.0,0.0,0.0,0.0,0.0,0.0,0.0,0.0,0.0,0.0,0.0,0.0,0.0,0.0,0.0,0.0,0.0,0.0,0.0,0.0,0.0,0.0,0.0,0.0,0.0,0.0,0.0,0.0,0.0,0.0,0.0,0.0,0.0,0.0,0.0,0.0,0.0,0.0,0.0,0.0,0.0,0.0,0.0,0.0,0.0,-0.9171,-0.992,-1.0216,0.0,-1.1538,0.0,0.0,0.0,0.0,0.0,0.0,0.0,0.0,0.0,0.0,0.0,0.0,0.0,0.0,0.0,0.0,0.0,0.0,0.0,0.0,0.0,0.0,0.0,0.0,0.0,0.0,0.0,0.0,0.0,0.0,0.0,0.0,0.0,0.0,0.0,0.0,0.0,0.0,0.0,0.0,0.0,0.0,0.0,0.0,0.0,0.0,0.0,0.0,0.0,0.0,0.0,0.0,0.0,0.0,0.0,0.0,0.0,0.0,0.0,0.0,0.0,0.0,0.0,0.0,0.0,0.0,0.0,0.0,0.0,0.0,0.0,0.0,0.0,0.0,0.0,0.0,0.0,0.0,0.0,0.0,0.0,0.0,0.0,0.0,0.0,0.0,0.0,0.0,0.0,0.0,0.0,0.0,0.0,0.0,0.0,0.0,0.0,0.0,0.0,0.0,0.0,0.0,0.0,0.0,0.0,0.0,0.0,0.0,0.0,0.0,-0.953,-1.0216,-1.0953,-1.1588,0.0,0.0,0.0,0.0,0.0,0.0,0.0,0.0,0.0,0.0,0.0,0.0,0.0,0.0,0.0,0.0,0.0,0.0,0.0,0.0,0.0,0.0,0.0,0.0,0.0,0.0,0.0,0.0,0.0,0.0,0.0,0.0,0.0,0.0,0.0,0.0,0.0,0.0,0.0,0.0,0.0,0.0,0.0,0.0,0.0,0.0,0.0,0.0,0.0,0.0,0.0,0.0,0.0,0.0,0.0,0.0,0.0,0.0,0.0,0.0,0.0,0.0,0.0,0.0,0.0,0.0,0.0,0.0,0.0,0.0,0.0,0.0,0.0,0.0,0.0,0.0,0.0,0.0,0.0,0.0,0.0,0.0,0.0,0.0,0.0,0.0,0.0,0.0,0.0,0.0,0.0,0.0,0.0,0.0,0.0,0.0,0.0,0.0,0.0,0.0,0.0,0.0,0.0,0.0,0.0,0.0,0.0,0.0,0.0,0.0,-0.9314,-0.9877,-1.0604,-1.153,-1.2152,-1.2375,0.0,0.0,0.0,0.0,0.0,0.0,0.0,0.0,0.0,0.0,0.0,0.0,0.0,0.0,0.0,0.0,0.0,0.0,0.0,0.0,0.0,0.0,0.0,0.0,0.0,0.0,0.0,0.0,0.0,0.0,0.0,0.0,0.0,0.0,0.0,0.0,0.0,0.0,0.0,0.0,0.0,0.0,0.0,0.0,0.0,0.0,0.0,0.0,0.0,0.0,0.0,0.0,0.0,0.0,0.0,0.0,0.0,0.0,0.0,0.0,0.0,0.0,0.0,0.0,0.0,0.0,0.0,0.0,0.0,0.0,0.0,0.0,0.0,0.0,0.0,0.0,0.0,0.0,0.0,0.0,0.0,0.0,0.0,0.0,0.0,0.0,0.0,0.0,0.0,0.0,0.0,0.0,0.0,0.0,0.0,0.0,0.0,0.0,0.0,0.0,0.0,0.0,0.0,0.0,0.0,0.0,0.0,0.0,-0.9462,-0.9478,-0.9989,-1.1052,-1.1857,-1.2288,0.0,0.0,0.0,0.0,0.0,0.0,0.0,0.0,0.0,0.0,0.0,0.0,0.0,0.0,0.0,0.0,0.0,0.0,0.0,0.0,0.0,0.0,0.0,0.0,0.0,0.0,0.0,0.0,0.0,0.0,0.0,0.0,0.0,0.0,0.0,0.0,0.0,0.0,0.0,0.0,0.0,0.0,0.0,0.0,0.0,0.0,0.0,0.0,0.0,0.0,0.0,0.0,0.0,0.0,0.0,0.0,0.0,0.0,0.0,0.0,0.0,0.0,0.0,0.0,0.0,0.0,0.0,0.0,0.0,0.0,0.0,0.0,0.0,0.0,0.0,0.0,0.0,0.0,0.0,0.0,0.0,0.0,0.0,0.0,0.0,0.0,0.0,0.0,0.0,0.0,0.0,0.0,0.0,0.0,0.0,0.0,0.0,0.0,0.0,0.0,0.0,0.0,0.0,0.0,0.0,0.0,0.0,0.0,0.0,-0.9536,-1.0156,-1.0784,-1.1448,-1.2041,-1.2391,0.0,0.0,0.0,0.0,0.0,0.0,0.0,0.0,0.0,0.0,0.0,0.0,0.0,0.0,0.0,0.0,0.0,0.0,0.0,0.0,0.0,0.0,0.0,0.0,0.0,0.0,0.0,0.0,0.0,0.0,0.0,0.0,0.0,0.0,0.0,0.0,0.0,0.0,0.0,0.0,0.0,0.0,0.0,0.0,0.0,0.0,0.0,0.0,0.0,0.0,0.0,0.0,0.0,0.0,0.0,0.0,0.0,0.0,0.0,0.0,0.0,0.0,0.0,0.0,0.0,0.0,0.0,0.0,0.0,0.0,0.0,0.0,0.0,0.0,0.0,0.0,0.0,0.0,0.0,0.0,0.0,0.0,0.0,0.0,0.0,0.0,0.0,0.0,0.0,0.0,0.0,0.0,0.0,0.0,0.0,0.0,0.0,0.0,0.0,0.0,0.0,0.0,0.0,0.0,0.0,0.0,0.0,0.0,0.0,-0.9804,0.0,-1.1405,0.0,-1.2184,-1.2587,0.0,0.0,0.0,0.0,0.0,0.0,0.0,0.0,0.0,0.0,0.0,0.0,0.0,0.0,0.0,0.0,0.0,0.0,0.0,0.0,0.0,0.0,0.0,0.0,0.0,0.0,0.0,0.0,0.0,0.0,0.0,0.0,0.0,0.0,0.0,0.0,0.0,0.0,0.0,0.0,0.0,0.0,0.0,0.0,0.0,0.0,0.0,0.0,0.0,0.0,0.0,0.0,0.0,0.0,0.0,0.0,0.0,0.0,0.0,0.0,0.0,0.0,0.0,0.0,0.0,0.0,0.0,0.0,0.0,0.0,0.0,0.0,0.0,0.0,0.0,0.0,0.0,0.0,0.0,0.0,0.0,0.0,0.0,0.0,0.0,0.0,0.0,0.0,0.0,0.0,0.0,0.0,0.0,0.0,0.0,0.0,0.0,0.0,0.0,0.0,0.0,0.0,0.0,0.0,0.0,0.0,0.0,0.0,-1.0075,-1.0428,-1.1205,-1.1747,-1.2071,-1.2395,-1.289,0.0,0.0,0.0,0.0,0.0,0.0,0.0,0.0,0.0,0.0,0.0,0.0,0.0,0.0,0.0,0.0,0.0,0.0,0.0,0.0,0.0,0.0,0.0,0.0,0.0,0.0,0.0,0.0,0.0,0.0,0.0,0.0,0.0,0.0,0.0,0.0,0.0,0.0,0.0,0.0,0.0,0.0,0.0,0.0,0.0,0.0,0.0,0.0,0.0,0.0,0.0,0.0,0.0,0.0,0.0,0.0,0.0,0.0,0.0,0.0,0.0,0.0,0.0,0.0,0.0,0.0,0.0,0.0,0.0,0.0,0.0,0.0,0.0,0.0,0.0,0.0,0.0,0.0,0.0,0.0,0.0,0.0,0.0,0.0,0.0,0.0,0.0,0.0,0.0,0.0,0.0,0.0,0.0,0.0,0.0,0.0,0.0,0.0,0.0,0.0,0.0,0.0,0.0,0.0,0.0,0.0,0.0,0.0,0.0,-1.0798,-1.1366,-1.175,-1.1968,-1.2462,-1.2899,0.0,0.0,0.0,0.0,0.0,0.0,0.0,0.0,0.0,0.0,0.0,0.0,0.0,0.0,0.0,0.0,0.0,0.0,0.0,0.0,0.0,0.0,0.0,0.0,0.0,0.0,0.0,0.0,0.0,0.0,0.0,0.0,0.0,0.0,0.0,0.0,0.0,0.0,0.0,0.0,0.0,0.0,0.0,0.0,0.0,0.0,0.0,0.0,0.0,0.0,0.0,0.0,0.0,0.0,0.0,0.0,0.0,0.0,0.0,0.0,0.0,0.0,0.0,0.0,0.0,0.0,0.0,0.0,0.0,0.0,0.0,0.0,0.0,0.0,0.0,0.0,0.0,0.0,0.0,0.0,0.0,0.0,0.0,0.0,0.0,0.0,0.0,0.0,0.0,0.0,0.0,0.0,0.0,0.0,0.0,0.0,0.0,0.0,0.0,0.0,0.0,0.0,0.0,0.0,0.0,0.0,0.0,0.0,0.0,-1.1087,-1.1421,-1.1791,-1.2221,-1.2666,-1.3104,-1.3624,0.0,0.0,0.0,0.0,0.0,0.0,0.0,0.0,0.0,0.0,0.0,0.0,0.0,0.0,0.0,0.0,0.0,0.0,0.0,0.0,0.0,0.0,0.0,0.0,0.0,0.0,0.0,0.0,0.0,0.0,0.0,0.0,0.0,0.0,0.0,0.0,0.0,0.0,0.0,0.0,0.0,0.0,0.0,0.0,0.0,0.0,0.0,0.0,0.0,0.0,0.0,0.0,0.0,0.0,0.0,0.0,0.0,0.0,0.0,0.0,0.0,0.0,0.0,0.0,0.0,0.0,0.0,0.0,0.0,0.0,0.0,0.0,0.0,0.0,0.0,0.0,0.0,0.0,0.0,0.0,0.0,0.0,0.0,0.0,0.0,0.0,0.0,0.0,0.0,0.0,0.0,0.0,0.0,0.0,0.0,0.0,0.0,0.0,0.0,0.0,0.0,0.0,0.0,0.0,0.0,0.0,0.0,0.0,-1.1357,-1.1455,-1.1951,-1.2836,-1.2965,-1.3541,0.0,0.0,0.0,0.0,0.0,0.0,0.0,0.0,0.0,0.0,0.0,0.0,0.0,0.0,0.0,0.0,0.0,0.0,0.0,0.0,0.0,0.0,0.0,0.0,0.0,0.0,0.0,0.0,0.0,0.0,0.0,0.0,0.0,0.0,0.0,0.0,0.0,0.0,0.0,0.0,0.0,0.0,0.0,0.0,0.0,0.0,0.0,0.0,0.0,0.0,0.0,0.0,0.0,0.0,0.0,0.0,0.0,0.0,0.0,0.0,0.0,0.0,0.0,0.0,0.0,0.0,0.0,0.0,0.0,0.0,0.0,0.0,0.0,0.0,0.0,0.0,0.0,0.0,0.0,0.0,0.0,0.0,0.0,0.0,0.0,0.0,0.0,0.0,0.0,0.0,0.0,0.0,0.0,0.0,0.0,0.0,0.0,0.0,0.0,0.0,0.0,0.0,0.0,0.0,0.0,0.0,0.0,0.0,0.0,-1.3278,-1.3141,-1.3124,-1.3351,-1.3236,-1.3809,0.0,0.0,0.0,0.0,0.0,0.0,0.0,0.0,0.0,0.0,0.0,0.0,0.0,0.0,0.0,0.0,0.0,0.0,0.0,0.0,0.0,0.0,0.0,0.0,0.0,0.0,0.0,0.0,0.0,0.0,0.0,0.0,0.0,0.0,0.0,0.0,0.0,0.0,0.0,0.0,0.0,0.0,0.0,0.0,0.0,0.0,0.0,0.0,0.0,0.0,0.0,0.0,0.0,0.0,0.0,0.0,0.0,0.0,0.0,0.0,0.0,0.0,0.0,0.0,0.0,0.0,0.0,0.0,0.0,0.0,0.0,0.0,0.0,0.0,0.0,0.0,0.0,0.0,0.0,0.0,0.0,0.0,0.0,0.0,0.0,0.0,0.0,0.0,0.0,0.0,0.0,0.0,0.0,0.0,0.0,0.0,0.0,0.0,0.0,0.0,0.0,0.0,0.0,0.0,0.0,0.0,0.0,0.0,-1.3564,-1.4398,-1.4492,-1.4867,-1.5462,-1.4857,-1.4995,0.0,0.0,0.0,0.0,0.0,0.0,0.0,0.0,0.0,0.0,0.0,0.0,0.0,0.0,0.0,0.0,0.0,0.0,0.0,0.0,0.0,0.0,0.0,0.0,0.0,0.0,0.0,0.0,0.0,0.0,0.0,0.0,0.0,0.0,0.0,0.0,0.0,0.0,0.0,0.0,0.0,0.0,0.0,0.0,0.0,0.0,0.0,0.0,0.0,0.0,0.0,0.0,0.0,0.0,0.0,0.0,0.0,0.0,0.0,0.0,0.0,0.0,0.0,0.0,0.0,0.0,0.0,0.0,0.0,0.0,0.0,0.0,0.0,0.0,0.0,0.0,0.0,0.0,0.0,0.0,0.0,0.0,0.0,0.0,0.0,0.0,0.0,0.0,0.0,0.0,0.0,0.0,0.0,0.0,0.0,0.0,0.0,0.0,0.0,0.0,0.0,0.0,0.0,0.0,0.0,0.0,0.0,0.0,-1.5123,-1.5194,-1.5824,-1.6904,-1.8244,-1.7012,-1.6494,0.0,0.0,0.0,0.0,0.0,0.0,0.0,0.0,0.0,0.0,0.0,0.0,0.0,0.0,0.0,0.0,0.0,0.0,0.0,0.0,0.0,0.0,0.0,0.0,0.0,0.0,0.0,0.0,0.0,0.0,0.0,0.0,0.0,0.0,0.0,0.0,0.0,0.0,0.0,0.0,0.0,0.0,0.0,0.0,0.0,0.0,0.0,0.0,0.0,0.0,0.0,0.0,0.0,0.0,0.0,0.0,0.0,0.0,0.0,0.0,0.0,0.0,0.0,0.0,0.0,0.0,0.0,0.0,0.0,0.0,0.0,0.0,0.0,0.0,0.0,0.0,0.0,0.0,0.0,0.0,0.0,0.0,0.0,0.0,0.0,0.0,0.0,0.0,0.0,0.0,0.0,0.0,0.0,0.0,0.0,0.0,0.0,0.0,0.0,0.0,0.0,0.0,0.0,0.0,0.0,0.0,0.0,0.0,-1.6215,-1.7866,-1.7926,-1.8643,-2.0103,-1.7619,-1.6718,0.0,0.0,0.0,0.0,0.0,0.0,0.0,0.0,0.0,0.0,0.0,0.0,0.0,0.0,0.0,0.0,0.0,0.0,0.0,0.0,0.0,0.0,0.0,0.0,0.0,0.0,0.0,0.0,0.0,0.0,0.0,0.0,0.0,0.0,0.0,0.0,0.0,0.0,0.0,0.0,0.0,0.0,0.0,0.0,0.0,0.0,0.0,0.0,-1.5645,0.0,0.0,0.0,0.0,0.0,0.0,0.0,0.0,0.0,0.0,0.0,0.0,0.0,0.0,0.0,0.0,0.0,0.0,0.0,0.0,0.0,0.0,0.0,0.0,0.0,0.0,0.0,0.0,0.0,0.0,0.0,0.0,0.0,0.0,0.0,0.0,0.0,0.0,0.0,0.0,0.0,0.0,0.0,0.0,0.0,0.0,0.0,0.0,0.0,0.0,0.0,0.0,0.0,0.0,0.0,0.0,0.0,0.0,0.0,-1.7714,-1.8985,-1.9462,-2.0067,-2.06,-1.8781,-1.7824,0.0,0.0,0.0,0.0,0.0,0.0,0.0,0.0,0.0,0.0,0.0,0.0,0.0,0.0,0.0,0.0,0.0,0.0,0.0,0.0,0.0,0.0,0.0,0.0,0.0,0.0,0.0,0.0,0.0,0.0,0.0,0.0,0.0,0.0,0.0,0.0,0.0,0.0,0.0,0.0,0.0,0.0,0.0,0.0,0.0,0.0,0.0,0.0,0.0,0.0,0.0,0.0,0.0,0.0,0.0,0.0,0.0,0.0,0.0,0.0,0.0,0.0,0.0,0.0,0.0,0.0,0.0,0.0,0.0,0.0,0.0,0.0,0.0,0.0,0.0,0.0,0.0,0.0,0.0,0.0,0.0,0.0,0.0,0.0,0.0,0.0,0.0,0.0,0.0,0.0,0.0,0.0,0.0,0.0,0.0,0.0,0.0,0.0,0.0,0.0,0.0,0.0,0.0,0.0,0.0,0.0,0.0,-1.803,-1.9057,-1.9485,-2.0473,-2.0862,-2.0601,-1.976,-1.8878,-1.7969,0.0,0.0,0.0,0.0,0.0,0.0,0.0,0.0,0.0,0.0,0.0,0.0,0.0,0.0,0.0,0.0,0.0,0.0,0.0,0.0,0.0,0.0,0.0,0.0,0.0,0.0,0.0,0.0,0.0,0.0,0.0,0.0,0.0,0.0,0.0,0.0,0.0,0.0,-1.4529,-1.5117,0.0,0.0,0.0,0.0,0.0,0.0,0.0,0.0,-1.5811,0.0,0.0,0.0,0.0,0.0,0.0,0.0,0.0,0.0,0.0,0.0,0.0,0.0,0.0,0.0,0.0,0.0,0.0,0.0,0.0,0.0,0.0,0.0,0.0,0.0,0.0,0.0,0.0,0.0,0.0,0.0,0.0,0.0,0.0,0.0,0.0,0.0,0.0,0.0,0.0,0.0,0.0,0.0,0.0,0.0,0.0,0.0,0.0,0.0,0.0,0.0,0.0,0.0,0.0,0.0,0.0,-1.7008,-1.8066,-1.9037,-2.0025,-2.0206,-2.0293,-2.0281,-1.9459,-1.8571,-1.7669,0.0,0.0,0.0,0.0,0.0,0.0,0.0,0.0,0.0,0.0,0.0,0.0,0.0,0.0,0.0,0.0,0.0,0.0,0.0,0.0,0.0,0.0,0.0,0.0,0.0,0.0,0.0,0.0,0.0,0.0,0.0,0.0,0.0,0.0,0.0,0.0,0.0,0.0,0.0,-1.5551,-1.5891,0.0,0.0,0.0,0.0,0.0,0.0,0.0,0.0,-1.5919,0.0,0.0,0.0,0.0,0.0,0.0,0.0,0.0,0.0,0.0,0.0,0.0,0.0,0.0,0.0,0.0,0.0,0.0,0.0,0.0,0.0,0.0,0.0,0.0,0.0,0.0,0.0,0.0,0.0,0.0,0.0,0.0,0.0,0.0,0.0,0.0,0.0,0.0,0.0,0.0,0.0,0.0,0.0,0.0,0.0,0.0,0.0,0.0,0.0,0.0,0.0,0.0,0.0,0.0,0.0,-1.7364,-1.8249,-1.9156,-1.998,-2.0154,-2.0094,-1.978,-1.9078,-1.8203,0.0,0.0,0.0,0.0,0.0,0.0,0.0,0.0,0.0,0.0,0.0,0.0,0.0,0.0,0.0,0.0,0.0,0.0,0.0,0.0,0.0,0.0,0.0,0.0,0.0,0.0,0.0,0.0,0.0,0.0,0.0,0.0,0.0,0.0,0.0,0.0,0.0,0.0,0.0,0.0,-1.5912,-1.6386,-1.6667,0.0,0.0,0.0,0.0,0.0,0.0,-1.638,-1.6326,0.0,0.0,0.0,0.0,0.0,0.0,0.0,0.0,0.0,0.0,0.0,0.0,0.0,0.0,0.0,0.0,0.0,0.0,0.0,0.0,0.0,0.0,0.0,0.0,0.0,0.0,0.0,0.0,0.0,0.0,0.0,0.0,0.0,0.0,0.0,0.0,0.0,0.0,0.0,0.0,0.0,0.0,0.0,0.0,0.0,0.0,0.0,0.0,0.0,0.0,0.0,0.0,0.0,0.0,0.0,-1.7555,-1.835,-1.9092,-1.9766,-1.9967,-1.9833,-1.943,-1.8744,-1.7869,0.0,0.0,0.0,0.0,0.0,0.0,0.0,0.0,0.0,0.0,0.0,0.0,0.0,0.0,0.0,0.0,0.0,0.0,0.0,0.0,0.0,0.0,0.0,0.0,0.0,0.0,0.0,0.0,0.0,0.0,0.0,0.0,0.0,0.0,0.0,0.0,0.0,0.0,0.0,0.0,0.0,-1.677,-1.6779,-1.7141,0.0,0.0,0.0,0.0,-1.68,-1.684,0.0,0.0,0.0,0.0,0.0,0.0,0.0,0.0,0.0,0.0,0.0,0.0,0.0,0.0,0.0,0.0,0.0,0.0,0.0,0.0,0.0,0.0,0.0,0.0,0.0,0.0,0.0,0.0,0.0,0.0,0.0,0.0,0.0,0.0,0.0,0.0,0.0,0.0,0.0,0.0,0.0,0.0,0.0,0.0,0.0,0.0,0.0,0.0,0.0,0.0,0.0,0.0,0.0,0.0,0.0,0.0,-1.7535,-1.7956,-1.8684,-1.9726,-1.9579,-1.9432,-1.941,-1.8537,-1.7609,0.0,0.0,0.0,0.0,0.0,0.0,0.0,0.0,0.0,0.0,0.0,0.0,0.0,0.0,0.0,0.0,0.0,0.0,0.0,0.0,0.0,0.0,0.0,0.0,0.0,0.0,0.0,0.0,0.0,0.0,0.0,0.0,0.0,0.0,0.0,0.0,0.0,0.0,0.0,0.0,0.0,-1.6898,-1.7095,-1.7596,-1.7689,0.0,0.0,-1.7395,-1.7186,-1.7367,0.0,0.0,0.0,0.0,0.0,0.0,0.0,0.0,0.0,0.0,0.0,0.0,0.0,0.0,0.0,0.0,0.0,0.0,0.0,0.0,0.0,0.0,0.0,0.0,0.0,0.0,0.0,0.0,0.0,0.0,0.0,0.0,0.0,0.0,0.0,0.0,0.0,0.0,0.0,0.0,0.0,0.0,0.0,0.0,0.0,0.0,0.0,0.0,0.0,0.0,0.0,0.0,0.0,0.0,0.0,-1.5959,-1.7061,-1.7669,-1.8402,-1.9265,-1.9178,-1.8945,-1.8604,-1.7909,-1.7041,0.0,0.0,0.0,0.0,0.0,0.0,0.0,0.0,0.0,0.0,0.0,0.0,0.0,0.0,0.0,0.0,0.0,0.0,0.0,0.0,0.0,0.0,0.0,0.0,0.0,0.0,0.0,0.0,0.0,0.0,0.0,0.0,0.0,0.0,0.0,0.0,0.0,0.0,0.0,0.0,0.0,0.0,-1.7041,-1.7017,0.0,0.0,0.0,-1.7826,-1.7929,0.0,0.0,0.0,0.0,0.0,0.0,0.0,0.0,0.0,0.0,0.0,0.0,0.0,0.0,0.0,0.0,0.0,0.0,0.0,0.0,0.0,0.0,0.0,0.0,0.0,0.0,0.0,0.0,0.0,0.0,0.0,0.0,0.0,0.0,0.0,0.0,0.0,0.0,0.0,0.0,0.0,0.0,0.0,0.0,0.0,0.0,0.0,0.0,0.0,0.0,0.0,0.0,0.0,0.0,0.0,0.0,0.0,-1.6693,-1.7442,-1.8143,-1.8784,-1.8811,-1.8531,-1.7923,-1.746,0.0,0.0,0.0,0.0,0.0,0.0,0.0,0.0,0.0,0.0,0.0,0.0,0.0,0.0,0.0,0.0,0.0,0.0,0.0,0.0,0.0,0.0,0.0,0.0,0.0,0.0,0.0,-1.003,0.0,0.0,0.0,0.0,0.0,0.0,0.0,0.0,0.0,0.0,0.0,0.0,0.0,0.0,-1.4823,-1.6175,-1.6212,-1.6509,0.0,0.0,-1.8135,-1.8348,-1.8123,-1.7916,0.0,0.0,0.0,0.0,0.0,0.0,0.0,0.0,0.0,0.0,0.0,0.0,0.0,0.0,0.0,0.0,0.0,0.0,0.0,0.0,0.0,0.0,0.0,0.0,0.0,0.0,0.0,0.0,0.0,0.0,0.0,0.0,0.0,0.0,0.0,0.0,0.0,0.0,0.0,0.0,0.0,0.0,0.0,0.0,0.0,0.0,0.0,0.0,0.0,0.0,0.0,0.0,0.0,0.0,0.0,-1.6673,-1.7041,-1.7695,-1.8477,-1.8517,-1.823,-1.7629,-1.736,-1.6643,0.0,0.0,0.0,0.0,0.0,0.0,0.0,0.0,0.0,0.0,0.0,0.0,0.0,0.0,0.0,0.0,0.0,0.0,0.0,0.0,0.0,0.0,0.0,0.0,0.0,0.0,0.0,0.0,0.0,0.0,0.0,0.0,0.0,0.0,0.0,0.0,0.0,0.0,0.0,0.0,0.0,-1.4131,-1.413,-1.5247,-1.6103,0.0,0.0,-1.8292,-1.8054,-1.8448,-1.8557,-1.7742,0.0,0.0,0.0,0.0,0.0,0.0,0.0,0.0,0.0,0.0,0.0,0.0,0.0,0.0,0.0,0.0,0.0,0.0,0.0,0.0,0.0,0.0,0.0,0.0,0.0,0.0,0.0,0.0,0.0,0.0,0.0,0.0,0.0,0.0,0.0,0.0,0.0,0.0,0.0,0.0,0.0,0.0,0.0,0.0,0.0,0.0,0.0,0.0,0.0,0.0,0.0,0.0,0.0,-1.5357,-1.6152,-1.6814,-1.7548,-1.8183,-1.8162,-1.7936,-1.738,-1.7085,-1.6326,0.0,0.0,0.0,0.0,0.0,0.0,0.0,0.0,0.0,0.0,0.0,0.0,0.0,0.0,0.0,0.0,0.0,0.0,0.0,0.0,0.0,0.0,0.0,0.0,0.0,0.0,0.0,0.0,-1.0754,-1.0928,-1.1076,0.0,0.0,0.0,0.0,0.0,0.0,0.0,0.0,0.0,0.0,-1.2747,-1.3341,-1.4247,0.0,0.0,-1.7815,-1.8581,-1.8358,-1.8353,-1.8154,-1.7694,-1.7211,0.0,0.0,0.0,0.0,0.0,0.0,0.0,0.0,0.0,0.0,0.0,0.0,0.0,0.0,0.0,0.0,0.0,0.0,0.0,0.0,0.0,0.0,0.0,0.0,0.0,0.0,0.0,0.0,0.0,0.0,0.0,0.0,0.0,0.0,0.0,0.0,0.0,0.0,0.0,0.0,0.0,0.0,0.0,0.0,0.0,0.0,0.0,0.0,0.0,0.0,0.0,0.0,-1.5296,-1.5825,-1.6613,-1.7308,-1.7842,-1.7822,-1.7535,-1.7085,-1.6727,-1.6106,0.0,0.0,0.0,0.0,0.0,0.0,0.0,0.0,0.0,0.0,0.0,0.0,0.0,0.0,0.0,0.0,0.0,0.0,0.0,0.0,0.0,0.0,0.0,0.0,0.0,0.0,0.0,0.0,-1.0789,-1.1042,-1.1413,0.0,0.0,0.0,0.0,0.0,0.0,0.0,0.0,0.0,0.0,-1.214,-1.2956,-1.3386,-1.4302,-1.5902,-1.7279,-1.8139,-1.8033,-1.788,-1.762,-1.7384,0.0,0.0,0.0,0.0,0.0,0.0,0.0,0.0,0.0,0.0,0.0,0.0,0.0,0.0,0.0,0.0,0.0,0.0,0.0,0.0,0.0,0.0,0.0,0.0,0.0,0.0,0.0,0.0,0.0,0.0,0.0,0.0,0.0,0.0,0.0,0.0,0.0,0.0,0.0,0.0,0.0,0.0,0.0,0.0,0.0,0.0,0.0,0.0,0.0,0.0,0.0,0.0,0.0,-1.5251,-1.5778,-1.6426,-1.7001,-1.7562,-1.7373,-1.7079,-1.672,-1.6433,-1.5992,-1.5378,0.0,0.0,0.0,0.0,0.0,0.0,0.0,0.0,0.0,0.0,0.0,0.0,0.0,0.0,0.0,0.0,0.0,0.0,0.0,0.0,0.0,0.0,0.0,0.0,0.0,0.0,-1.0613,-1.0692,-1.096,0.0,0.0,0.0,0.0,0.0,0.0,0.0,0.0,0.0,0.0,-1.3414,-1.2576,-1.2833,-1.28,-1.3108,-1.4083,-1.5575,-1.6686,-1.6944,-1.7071,-1.7048,0.0,0.0,0.0,0.0,0.0,0.0,0.0,0.0,0.0,0.0,0.0,0.0,0.0,0.0,0.0,0.0,0.0,0.0,0.0,0.0,0.0,0.0,0.0,0.0,0.0,0.0,0.0,-0.8353,-0.8255,0.0,0.0,0.0,0.0,0.0,0.0,0.0,0.0,0.0,0.0,0.0,-0.9856,-1.1148,0.0,0.0,0.0,0.0,0.0,0.0,0.0,0.0,0.0,0.0,0.0,0.0,-1.5344,-1.6106,-1.6506,-1.6901,-1.7333,-1.7246,-1.6965,-1.6482,-1.6375,-1.5812,-1.4843,0.0,0.0,0.0,0.0,0.0,0.0,0.0,0.0,0.0,0.0,0.0,0.0,0.0,0.0,0.0,0.0,0.0,0.0,0.0,0.0,0.0,0.0,0.0,0.0,0.0,-1.0889,0.0,0.0,0.0,0.0,0.0,0.0,0.0,0.0,0.0,0.0,0.0,-1.4751,-1.3874,-1.3127,-1.2361,-1.1532,-1.2225,-1.2903,0.0,0.0,0.0,0.0,0.0,0.0,0.0,0.0,0.0,0.0,0.0,0.0,0.0,0.0,-1.638,-1.6286,-1.6112,-1.6012,-1.6106,0.0,0.0,0.0,0.0,0.0,0.0,0.0,0.0,0.0,0.0,0.0,0.0,0.0,0.0,0.0,0.0,-0.8608,0.0,0.0,0.0,0.0,0.0,0.0,0.0,0.0,-0.9819,-1.0276,-1.0544,-1.2288,-1.3247,0.0,-1.474,-1.4942,0.0,0.0,0.0,0.0,0.0,0.0,0.0,0.0,-1.5497,-1.6099,-1.6406,-1.6693,-1.7032,-1.6951,-1.6717,-1.6286,-1.6172,-1.5665,-1.4703,-1.4202,-1.3487,0.0,0.0,0.0,0.0,0.0,0.0,0.0,0.0,0.0,0.0,0.0,0.0,0.0,0.0,0.0,0.0,0.0,0.0,0.0,0.0,0.0,0.0,0.0,-1.0976,0.0,0.0,0.0,0.0,0.0,0.0,0.0,0.0,0.0,-1.4746,-1.5128,-1.4986,-1.4162,-1.3276,-1.2412,-1.1699,0.0,0.0,0.0,0.0,0.0,0.0,0.0,-1.5309,-1.5689,-1.6047,-1.67,-1.7714,-1.7835,-1.7682,-1.7488,0.0,0.0,-1.6747,-1.6553,-1.6486,-1.6667,-1.6553,-1.648,-1.6667,-1.6707,-1.6707,0.0,0.0,0.0,0.0,0.0,0.0,0.0,0.0,-0.9106,-0.9059,0.0,-0.8886,0.0,0.0,0.0,0.0,0.0,0.0,0.0,0.0,-1.0596,-1.1453,-1.1565,-1.379,-1.4874,-1.4786,-1.5701,-1.6075,-1.58,-1.5239,0.0,0.0,0.0,0.0,0.0,0.0,-1.5545,-1.5804,-1.6139,-1.6413,-1.6673,-1.6426,-1.6266,-1.6253,-1.5985,-1.5571,-1.5042,-1.4689,-1.3988,-1.2891,-1.2522,0.0,0.0,0.0,0.0,0.0,0.0,0.0,0.0,0.0,0.0,0.0,0.0,0.0,0.0,0.0,0.0,0.0,0.0,0.0,0.0,-1.0469,0.0,0.0,0.0,0.0,0.0,0.0,0.0,0.0,0.0,0.0,-1.4865,-1.5462,-1.5732,-1.5441,0.0,0.0,0.0,0.0,-1.0967,-1.1968,-1.2419,-1.2784,-1.308,-1.3199,-1.3746,-1.5241,0.0,0.0,-1.822,-1.8209,-1.8022,-1.8009,-1.7789,-1.7415,-1.6854,-1.6747,-1.6734,-1.6754,-1.674,-1.672,-1.674,-1.6794,-1.678,-1.0226,0.0,0.0,0.0,0.0,-0.9696,-0.9758,-0.9852,-0.9711,-0.963,-0.9625,-0.954,0.0,0.0,0.0,0.0,0.0,0.0,-0.8956,-0.9259,-0.987,-1.0113,-1.023,-1.1897,-1.2623,-1.2469,-1.3493,-1.4406,-1.5221,-1.4861,-1.4863,-1.5277,0.0,0.0,0.0,0.0,-1.5645,-1.6119,-1.6233,-1.6313,-1.6449,-1.6362,-1.6172,-1.5959,-1.5872,-1.5651,-1.5284,-1.499,-1.4489,-1.3728,-1.3045,0.0,0.0,0.0,0.0,0.0,0.0,0.0,0.0,0.0,0.0,0.0,0.0,0.0,0.0,0.0,0.0,0.0,0.0,0.0,-1.0722,-1.1016,-1.1268,0.0,0.0,0.0,0.0,0.0,0.0,0.0,0.0,0.0,-1.3549,-1.4552,-1.4904,0.0,0.0,-1.2408,-1.2087,-1.1169,-1.061,-1.0823,0.0,0.0,0.0,-1.1967,-1.2525,-1.3152,-1.4756,-1.6606,-1.8453,-1.8731,-1.8604,-1.8397,-1.8123,-1.7789,-1.7415,-1.7154,-1.7152,-1.7261,-1.7219,-1.7101,-1.7281,-1.7328,-1.7321,-1.0704,-1.0324,-1.0215,-1.009,-1.0005,-1.0002,-1.0056,-1.0134,-1.0011,-0.997,-0.9995,-0.9876,-0.9622,-0.9225,-0.9167,0.0,0.0,0.0,-0.9245,-0.9476,-1.0203,-1.0576,-1.0755,-1.2171,-1.2786,-1.2504,-1.3659,-1.457,-1.5188,-1.5451,-1.5745,-1.6092,0.0,0.0,-1.5571,-1.5571,-1.5738,-1.6079,-1.6099,-1.6092,-1.6092,-1.6099,-1.6012,-1.5838,-1.5825,-1.5704,-1.5565,-1.5177,-1.4787,-1.4275,-1.3414,-1.2643,0.0,0.0,0.0,0.0,0.0,0.0,0.0,0.0,0.0,0.0,0.0,-1.1116,-1.1403,0.0,0.0,0.0,-1.0621,-1.0881,-1.1136,-1.1461,0.0,0.0,0.0,0.0,0.0,0.0,0.0,-1.1063,-1.1198,-1.1419,-1.1961,-1.2876,-1.3397,-1.3165,-1.2345,-1.169,-1.1354,0.0,-1.0193,-1.0283,-1.0668,-1.0849,-1.0668,-1.0951,-1.1474,-1.2171,-1.3971,-1.5959,-1.7571,-1.7811,-1.783,-1.8159,-1.8063,-1.7802,-1.7615,-1.7487,-1.742,-1.7542,-1.7501,-1.7447,-1.7601,-1.7589,-1.7589,-1.1097,-1.0928,-1.051,-1.0327,-1.0314,-1.0314,-1.0317,-1.0304,-1.0164,-1.0175,-1.0273,-0.9998,-0.9856,-0.9802,-0.9513,0.0,0.0,-0.9398,-0.9479,-0.9681,-1.1142,-1.187,-1.2088,-1.3467,-1.3952,-1.3534,-1.5006,-1.5536,-1.5316,-1.6456,-1.711,-1.7186,-1.6663,-1.6179,-1.5879,-1.5791,-1.5825,-1.5825,-1.5832,-1.5825,-1.5832,-1.5825,-1.5764,-1.5738,-1.5744,-1.5731,-1.5698,-1.5251,-1.4861,-1.4476,-1.3653,-1.2832,-1.2,0.0,0.0,0.0,0.0,0.0,0.0,0.0,0.0,0.0,0.0,0.0,0.0,0.0,0.0,0.0,-1.1076,0.0,-1.1536,-1.189,0.0,0.0,0.0,-1.1375,-1.1757,-1.0644,-0.9883,-1.0018,0.0,0.0,0.0,0.0,-1.1512,-1.2091,-1.1282,-1.0782,-1.0886,-1.0213,-0.9792,-1.0165,-1.0233,-1.0222,-1.0208,-1.0247,-1.0696,-1.1937,-1.3316,-1.4635,-1.5932,-1.6024,-1.6326,-1.7284,-1.7535,-1.7397,-1.7424,-1.7411,-1.7589,-1.7582,-1.7582,-1.7582,-1.7589,-1.7589,-1.7589,-1.125,-1.1094,-1.088,-1.0724,-1.0616,-1.0616,-1.0616,-1.0612,-1.0578,-1.0517,-1.0436,-1.0365,-1.0141,-0.9808,-0.9513,-0.9442,-0.9554,-0.9554,-0.9635,-0.9768,-1.0127,-1.0325,-1.0418,-1.0778,-1.0789,-1.0593,-1.1941,-1.3024,-1.3819,-1.5199,-1.6298,-1.7148,-1.7058,-1.6687,-1.6179,-1.5939,-1.5825,-1.5825,-1.5825,-1.5825,-1.5825,-1.5825,-1.5671,-1.5504,-1.5498,-1.5398,-1.5177,-1.5082,-1.4723,-1.4215,-1.3774,-1.3133,-1.2251,-1.1924,0.0,0.0,0.0,0.0,0.0,0.0,0.0,0.0,0.0,-1.2118,-1.2449,0.0,-1.2342,0.0,-1.179,-1.1971,-1.2719,-1.3034,0.0,0.0,-1.2859,-1.2052,-1.1841,-1.041,-0.948,-0.964,-0.9621,-0.9605,-0.9791,-0.9946,-1.0058,-1.0102,-1.0409,-1.0509,-1.038,-1.0003,-0.9781,-0.9859,-0.984,-0.9779,-0.9772,-0.9676,-1.0135,-1.1624,-1.2223,-1.293,-1.4401,-1.4595,-1.4574,-1.4801,-1.5654,-1.6079,-1.5992,-1.6823,-1.7529,-1.7589,-1.7589,-1.7589,-1.7589,-1.7589,-1.7589,-1.1301,-1.122,-1.1009,-1.0863,-1.0721,-1.0721,-1.0721,-1.0721,-1.0721,-1.0673,-1.0588,-1.0521,-1.028,-0.9917,-0.9751,-0.969,-0.9703,-0.9703,-0.9747,-0.9819,-0.9819,-0.9819,-0.9819,-0.9819,-0.9666,-0.9442,-1.1483,-1.28,-1.3393,-1.5364,-1.6694,-1.7387,-1.7266,-1.6971,-1.6473,-1.6172,-1.5965,-1.5832,-1.5825,-1.5825,-1.5825,-1.5825,-1.5704,-1.5598,-1.5464,-1.5317,-1.5164,-1.491,-1.4616,-1.4289,-1.3713,-1.3166,-1.2569,-1.2134,-1.1737,0.0,0.0,0.0,0.0,0.0,0.0,0.0,0.0,0.0,0.0,0.0,-1.3126,0.0,-1.2832,0.0,-1.3721,-1.3941,-1.4015,-1.3971,-1.2864,-1.1958,-1.136,-0.9943,-0.9069,-0.9226,-0.9135,-0.9147,-0.9255,-0.9276,-0.9255,-0.9178,-0.9655,-0.9957,-0.9849,-0.9693,-0.9625,-0.9622,-0.9557,-0.9507,-0.951,-0.9439,-0.9664,-1.0463,-1.0689,-1.1143,-1.2537,-1.28,-1.2923,-1.3477,-1.4211,-1.4662,-1.4583,-1.563,-1.6605,-1.6711,-1.7147,-1.7529,-1.7589,-1.7589,-1.7589,-1.1304,-1.1148,-1.1009,-1.0863,-1.0721,-1.0721,-1.0721,-1.0721,-1.0721,-1.0721,-1.0711,-1.0558,-1.0341,-1.0021,-0.9994,-0.9906,-0.9822,-0.9819,-0.9819,-0.9819,-0.9819,-0.9819,-0.9819,-0.9819,-0.9666,-0.9501,-1.2337,-1.3578,-1.3383,-1.6174,-1.7589,-1.7569,-1.7387,-1.7112,-1.676,-1.6473,-1.6159,-1.5832,-1.5825,-1.5825,-1.5825,-1.5825,-1.5764,-1.5765,-1.5491,-1.5324,-1.5271,-1.4756,-1.4449,-1.4339,-1.3681,-1.3106,-1.2804,-1.2328,-1.1946,0.0,-1.1602,0.0,0.0,0.0,0.0,0.0,0.0,0.0,0.0,-1.3586,-1.388,-1.4175,-1.3995,-1.4033,-1.4546,-1.4703,-1.4488,-1.3801,-1.2618,-1.1551,-1.0763,-0.9524,-0.8791,-0.8868,-0.8937,-0.8937,-0.8944,-0.8937,-0.8937,-0.8964,-0.9115,-0.9238,-0.9354,-0.9364,-0.9405,-0.9381,-0.9364,-0.9344,-0.932,-0.9313,-0.9306,-0.9357,-0.9379,-0.9571,-1.0783,-1.0892,-1.1219,-1.2354,-1.2797,-1.3004,-1.2999,-1.418,-1.515,-1.547,-1.6446,-1.7259,-1.7529,-1.7589,-1.7569,-1.1301,-1.1148,-1.1009,-1.086,-1.0721,-1.0721,-1.0721,-1.0721,-1.0721,-1.0721,-1.0707,-1.0558,-1.0399,-1.0232,-1.0044,-0.9903,-0.9822,-0.9819,-0.9819,-0.9819,-0.9819,-0.9819,-0.9819,-0.9819,-0.9669,-0.9624,-1.2333,-1.3583,-1.3378,-1.618,-1.7589,-1.7582,-1.7528,-1.7407,0.0,0.0,0.0,0.0,-1.5825,-1.5825,-1.5825,-1.5825,-1.5671,-1.5484,-1.5197,0.0,-1.4689,-1.4349,-1.4062,-1.378,-1.3606,0.0,0.0,0.0,0.0,0.0,0.0,0.0,0.0,0.0,0.0,0.0,-1.4135,-1.4048,-1.3948,-1.4402,-1.4736,-1.4841,-1.4963,-1.511,-1.5224,-1.5665,-1.5464,-1.4135,-1.3137,-1.2126,-1.083,-0.957,-0.8854,-0.8875,-0.8937,-0.8937,-0.8937,-0.8937,-0.8937,-0.894,-0.8905,-0.8932,-0.9022,-0.9228,-0.9371,-0.9371,-0.9269,-0.9157,-0.9039,-0.9035,-0.9049,-0.9015,-0.9005,-0.9092,-0.9362,-0.9404,-0.9375,-0.986,-1.0676,-1.1538,-1.1538,-1.2674,-1.4014,-1.5144,-1.563,-1.6174,-1.7305,-1.7582,-1.7508,-1.1301,0.0,-1.1006,-1.0793,0.0,-1.0721,-1.0721,-1.0721,-1.0721,-1.0721,-1.0714,-1.0636,-1.0487,-1.0276,-1.0198,-1.0039,-0.9822,-0.9819,-0.9819,-0.9819,-0.9819,-0.9819,-0.9819,-0.9819,-0.9666,-0.9501,-1.2333,-1.3578,-1.3447,-1.6234,-1.7589,-1.7589,-1.7589,-1.7494,-1.7199,-1.6714,-1.6273,-1.5832,-1.5825,-1.5825,-1.5825,-1.5825,-1.5758,-1.5611,0.0,0.0,0.0,0.0,0.0,0.0,0.0,0.0,0.0,0.0,0.0,-1.3206,-1.3474,-1.3714,-1.3854,-1.3953,-1.4166,-1.4496,-1.4783,-1.489,-1.4743,-1.501,-1.5237,-1.5384,-1.5531,-1.5611,-1.5578,-1.5885,-1.5619,-1.448,-1.3305,-1.2116,-1.099,-0.9702,-0.8937,-0.8937,-0.8937,-0.8937,-0.8937,-0.8937,-0.8937,-0.8937,-0.8937,-0.8937,-0.8895,-0.9062,-0.9157,-0.9161,-0.9106,-0.9025,-0.896,-0.8937,-0.8937,-0.8937,-0.8937,-0.8937,-0.8937,-0.8937,-0.8937,-0.8937,-0.9537,-1.0025,-1.0135,-1.1219,-1.2424,-1.3128,-1.4272,-1.5281,-1.6141,-1.684,-1.7333,-1.1277,-1.1148,-1.0978,-1.0836,-1.0721,-1.0721,-1.0721,-1.0721,0.0,0.0,0.0,-1.0721,-1.0558,-1.0283,-1.0343,-1.0114,-0.9825,-0.9819,-0.9819,-0.9819,-0.9819,-0.9819,-0.9819,-0.9795,-0.9646,-0.9559,-1.2302,-1.3547,-1.3437,-1.6227,-1.7589,-1.7589,-1.7589,-1.7408,-1.7112,-1.6593,-1.6179,-1.5845,-1.5825,-1.5825,-1.5825,-1.5825,-1.5825,-1.5825,-1.5551,-1.5284,-1.5095,-1.4756,-1.4489,-1.4255,-1.4015,-1.3813,-1.376,-1.3806,-1.3813,-1.3773,-1.4075,-1.4262,-1.4322,-1.4536,-1.4652,-1.4699,-1.519,-1.5471,-1.5471,-1.5471,-1.5571,-1.5764,-1.5825,-1.5825,-1.5825,-1.5879,-1.5525,-1.4657,-1.331,-1.2102,-1.1159,-0.9809,-0.8937,-0.8937,-0.8937,-0.8937,-0.8937,-0.8937,-0.8937,-0.8937,-0.8937,-0.8937,-0.8937,-0.895,-0.8964,-0.8908,-0.8964,-0.8944,-0.8937,-0.8937,-0.8937,-0.8937,-0.8937,-0.8937,-0.8937,-0.8937,-0.8875,-0.8886,-0.8858,-0.891,-0.8924,-0.9832,-1.0662,-1.0805,-1.2608,-1.4263,-1.4468,-1.5422,-1.6272,-1.1251,-1.1141,-1.0867,-1.0741,-1.0721,-1.0721,-1.0721,-1.0721,-1.0721,-1.0721,-1.0721,-1.0721,-1.0558,-1.0343,-1.0343,-1.011,-0.9825,-0.9819,-0.9819,0.0,-0.9819,-0.9819,-0.9812,-0.9696,-0.9551,-0.961,-1.2233,-1.3462,-1.3614,-1.6174,-1.7589,-1.7589,-1.7589,-1.7315,-1.6807,-1.6687,-1.638,-1.5845,-1.5825,-1.5825,-1.5825,-1.5825,-1.5825,-1.5764,-1.5551,-1.5384,-1.5337,-1.505,-1.4928,-1.4888,-1.4841,-1.4663,-1.4422,-1.4629,-1.4669,-1.4436,-1.4676,-1.4988,-1.5184,-1.5251,-1.5378,-1.5571,-1.5725,-1.5772,-1.5772,-1.5772,-1.5738,-1.5825,-1.5825,-1.5825,-1.5798,-1.6046,-1.5761,-1.4713,-1.3495,-1.2298,-1.1276,-0.979,-0.8861,-0.8858,-0.8937,-0.8875,-0.8913,-0.8868,-0.8923,-0.8878,-0.893,-0.8937,-0.8937,-0.8937,-0.8937,-0.8937,-0.8937,-0.8937,-0.8937,-0.8937,-0.8937,-0.8937,-0.8878,-0.8865,-0.8861,-0.892,-0.8821,-0.8764,-0.8842,-0.877,-0.8628,-0.8762,-0.9503,-1.0318,-1.12,-1.1798,-1.2571,-1.3118,-1.3874,-1.1231,-1.1197,-1.0843,-1.0721,-1.0721,-1.0721,-1.0721,-1.0721,-1.0721,-1.0721,-1.0721,-1.0721,-1.0558,-1.029,-1.0343,-1.0114,-0.9819,-0.9819,-0.9819,-0.9819,-0.9819,-0.9819,-0.9808,-0.9676,-0.953,-0.9552,-1.1352,-1.2657,-1.3442,-1.5417,-1.6823,-1.7529,-1.7589,-1.7288,-1.674,-1.6707,-1.6413,-1.5845,-1.5825,-1.5825,-1.5825,-1.5825,-1.5825,-1.5825,-1.5651,-1.5551,-1.5404,-1.5271,-1.5169,-1.5015,-1.5015,-1.4941,-1.4776,-1.5037,-1.5137,-1.501,-1.5271,-1.5491,-1.5618,-1.5631,-1.5644,-1.5771,-1.5825,-1.5825,-1.5825,-1.5825,-1.5825,-1.5825,-1.5825,-1.5825,-1.5832,-1.5952,-1.5897,-1.5587,-1.3735,-1.2348,-1.1753,-0.9957,-0.8689,-0.8699,-0.8764,-0.8784,-0.8703,-0.8764,-0.8811,-0.8818,-0.8872,-0.893,-0.8933,-0.8933,-0.8933,-0.8937,-0.8937,-0.8937,-0.8937,-0.8937,-0.8937,-0.8937,-0.8866,-0.8825,-0.8815,-0.8818,-0.875,-0.8632,-0.8713,-0.8713,-0.8509,-0.8533,-0.8878,-0.9176,-1.0037,-1.0623,-1.1074,-1.1604,-1.2785,-1.1231,-1.1203,-1.0843,-1.0721,-1.0721,-1.0721,-1.0721,-1.0721,-1.0721,-1.0721,-1.0721,-1.0721,-1.0555,-1.0357,-1.0343,-1.0114,-0.9849,-0.9819,-0.9819,-0.9819,-0.9819,-0.9819,-0.9798,-0.9646,-0.9496,-0.9538,-1.0646,-1.1784,-1.2901,-1.4556,-1.6174,-1.747,-1.7589,-1.7288,-1.6714,-1.6707,-1.642,-1.5872,-1.5825,-1.5825,-1.5825,-1.5825,-1.5825,-1.5825,-1.5825,-1.5718,-1.5511,-1.5491,-1.5391,-1.5177,-1.5202,-1.5157,-1.517,-1.5371,-1.5491,-1.5518,-1.5705,-1.5825,-1.5825,-1.5825,-1.5825,-1.5825,-1.5825,-1.5825,-1.5825,-1.5825,-1.5825,-1.5825,-1.5825,-1.5825,-1.5832,-1.5832,-1.5952,-1.608,-1.3815,-1.238,-1.2301,-1.018,-0.8535,-0.8496,-0.8587,-0.8611,-0.8537,-0.8584,-0.8655,-0.8676,-0.8764,-0.8828,-0.8835,-0.8835,-0.8838,-0.8849,-0.8831,-0.8878,-0.8937,-0.8937,-0.8937,-0.8937,-0.8794,-0.8804,-0.8781,-0.875,-0.8652,-0.8547,-0.8574,-0.8557,-0.8431,-0.8414,-0.8422,-0.8507,-0.9062,-0.9612,-0.9603,-1.0551,-1.1999,-1.1231,-1.1118,-1.0843,-1.0721,-1.0721,-1.0721,-1.0721,-1.0721,-1.0721,-1.0721,-1.0721,-1.0721,-1.0558,-1.0304,-1.0343,-1.0114,-0.9832,-0.9819,-0.9819,-0.9819,-0.9819,-0.9819,-0.9795,-0.9537,-0.9395,-0.9517,-1.0536,-1.1135,-1.1542,-1.4073,-1.6121,-1.7424,-1.7589,-1.7236,-1.6717,-1.6657,-1.6413,-1.5845,-1.5825,-1.5825,-1.5825,-1.5825,-1.5825,-1.5825,-1.5825,-1.5771,-1.5772,-1.5792,-1.5724,-1.5704,-1.5732,-1.5684,-1.5698,-1.5772,-1.5785,-1.5778,-1.5812,-1.5825,-1.5825,-1.5825,-1.5825,-1.5825,-1.5825,-1.5825,-1.5825,-1.5825,-1.5825,-1.5825,-1.5825,-1.5825,-1.5825,-1.5825,-1.5939,-1.6089,-1.3836,-1.2304,-1.221,-1.0184,-0.8535,-0.8535,-0.8482,-0.8496,-0.8462,-0.8482,-0.8499,-0.8506,-0.855,-0.8577,-0.8574,-0.8574,-0.857,-0.8598,-0.8743,-0.8851,-0.892,-0.8878,-0.8851,-0.8913,-0.8858,-0.8849,-0.8798,-0.8733,-0.8652,-0.8442,-0.8476,-0.8404,-0.8241,-0.818,-0.8238,-0.814,-0.8282,-0.8304,-0.8336,-0.9266,-1.0921,-1.1231,-1.1203,-1.0843,-1.0721,-1.0721,-1.0721,-1.0721,-1.0721,-1.0721,-1.0721,-1.0721,-1.0721,-1.0558,-1.0347,-1.0343,-1.011,-0.9829,-0.9819,-0.9819,-0.9819,-0.9819,-0.9819,-0.9788,-0.952,-0.9381,-0.9412,-0.9686,-1.0241,-1.1324,-1.3161,-1.4502,-1.5097,-1.5849,-1.6008,-1.5512,-1.6242,-1.642,-1.5852,-1.5825,-1.5825,-1.5825,-1.5825,-1.5825,-1.5825,-1.5825,-1.5825,-1.5825,-1.5825,-1.5825,-1.5825,-1.5825,-1.5825,-1.5825,-1.5825,-1.5825,-1.5825,-1.5825,-1.5825,-1.5825,-1.5825,-1.5825,-1.5825,-1.5825,-1.5825,-1.5825,-1.5825,-1.5825,-1.5825,-1.5825,-1.5825,-1.5825,-1.5825,-1.5879,-1.5643,-1.3599,-1.2073,-1.2098,-0.9873,-0.8221,-0.8225,-0.8303,-0.8316,-0.8258,-0.8299,-0.835,-0.837,-0.8414,-0.8465,-0.8528,-0.8535,-0.8535,-0.8496,-0.8598,-0.8699,-0.8771,-0.8716,-0.872,-0.875,-0.8652,-0.8547,-0.8557,-0.8509,-0.8397,-0.8255,-0.8309,-0.8279,-0.8096,-0.8079,-0.8106,-0.7992,-0.7988,-0.7988,-0.7988,-0.8432,-0.9653,-1.1231,-1.1114,-1.0843,-1.0721,-1.0721,-1.0721,-1.0721,-1.0721,-1.0721,-1.0721,-1.0721,-1.0721,-1.0558,-1.0304,-1.0343,-1.0114,-0.9849,-0.9819,-0.9819,-0.9819,-0.9819,-0.9819,-0.9791,-0.952,-0.9381,-0.9334,-0.9079,-0.9699,-1.1055,-1.2132,-1.2886,-1.3372,-1.4341,-1.4733,-1.465,-1.5626,-1.6006,-1.5838,-1.5825,-1.5825,-1.5825,-1.5825,-1.5825,-1.5825,-1.5825,-1.5825,-1.5825,-1.5825,-1.5825,-1.5825,-1.5825,-1.5825,-1.5825,-1.5825,-1.5825,-1.5825,-1.5825,-1.5825,-1.5825,-1.5825,-1.5825,-1.5825,-1.5825,-1.5825,-1.5825,-1.5825,-1.5825,-1.5825,-1.5825,-1.5825,-1.5825,-1.5825,-1.5825,-1.5683,-1.374,-1.2382,-1.1863,-0.985,-0.8439,-0.8098,-0.8147,-0.817,-0.8085,-0.8136,-0.8208,-0.8218,-0.8289,-0.836,-0.836,-0.835,-0.8347,-0.836,-0.836,-0.8445,-0.8594,-0.8581,-0.855,-0.8557,-0.8472,-0.8387,-0.8319,-0.8313,-0.8269,-0.8248,-0.8228,-0.8174,-0.8022,-0.7995,-0.7998,-0.7992,-0.7988,-0.7988,-0.7988,-0.8041,-0.8432,-1.1231,-1.1118,-1.0846,-1.0721,-1.0721,-1.0721,-1.0721,-1.0721,-1.0721,-1.0721,-1.0721,-1.0721,-1.0558,-1.0287,-1.0343,-1.011,-0.9846,-0.9819,-0.9819,-0.9819,-0.9819,-0.9819,-0.9741,-0.9523,-0.9378,-0.9337,-0.9079,-0.9588,-1.0945,-1.1164,-1.1914,-1.3161,-1.3318,-1.3789,-1.4304,-1.4603,-1.5053,-1.5742,-1.5825,-1.5825,-1.5825,-1.5825,-1.5825,-1.5825,-1.5825,-1.5825,-1.5825,-1.5825,-1.5825,-1.5825,-1.5825,-1.5825,-1.5825,-1.5825,-1.5825,-1.5825,-1.5825,-1.5825,-1.5825,-1.5825,-1.5825,-1.5825,-1.5825,-1.5825,-1.5825,-1.5825,-1.5825,-1.5825,-1.5825,-1.5825,-1.5825,-1.5825,-1.5825,-1.573,-1.4609,-1.3247,-1.1999,-1.0632,-0.9361,-0.8333,-0.8008,-0.8015,-0.7992,-0.7995,-0.8015,-0.8015,-0.8019,-0.8035,-0.8056,-0.8035,-0.8042,-0.8046,-0.8059,-0.8163,-0.8418,-0.8425,-0.8442,-0.8462,-0.8435,-0.8421,-0.8467,-0.8429,-0.8296,-0.8218,-0.8143,-0.8085,-0.8002,-0.7988,-0.7992,-0.7988,-0.7988,-0.7988,-0.7988,-0.7988,-0.8233,-1.105,-1.0873,-1.0765,-1.0721,-1.0721,-1.0721,-1.0721,-1.0721,-1.0721,-1.0721,-1.0721,-1.0721,-1.0558,-1.0343,-1.0343,-1.0114,-0.9836,-0.9819,-0.9819,-0.9819,-0.9819,-0.9771,-0.9666,-0.9473,-0.9323,-0.9272,-0.9035,-0.9154,-0.9588,-0.9699,-0.9915,-1.0566,-1.1428,-1.2302,-1.3142,-1.4033,-1.4898,-1.5695,-1.5825,-1.5825,-1.5825,-1.5825,-1.5825,-1.5825,-1.5825,-1.5825,-1.5825,-1.5825,-1.5825,-1.5825,-1.5825,-1.5825,-1.5825,-1.5825,-1.5825,-1.5825,-1.5825,-1.5825,-1.5825,-1.5825,-1.5825,-1.5825,-1.5825,-1.5825,-1.5825,-1.5825,-1.5825,-1.5825,-1.5825,-1.5825,-1.5825,-1.5825,-1.5825,-1.5635,-1.4657,-1.344,-1.2042,-1.0779,-0.9509,-0.8333,-0.7988,-0.7988,-0.7988,-0.7988,-0.7988,-0.7988,-0.7988,-0.7988,-0.7988,-0.7988,-0.7988,-0.7988,-0.7992,-0.8025,-0.811,-0.8147,-0.8211,-0.8272,-0.8279,-0.8211,-0.818,-0.8194,-0.813,-0.8133,-0.8008,-0.7998,-0.7988,-0.7988,-0.7988,-0.7988,-0.7988,-0.7988,-0.7988,-0.7988,-0.7988,-1.0989,-1.0741,-1.0721,-1.0721,-1.0721,-1.0721,-1.0721,-1.0721,-1.0721,-1.0721,-1.0721,-1.0721,-1.0558,-1.0314,-1.0343,-1.0114,-0.9839,-0.9819,-0.9819,-0.9819,-0.9819,-0.9768,-0.9659,-0.9473,-0.9388,-0.9265,-0.9025,-0.8937,-0.8937,-0.8937,-0.8937,-0.9047,-0.997,-1.108,-1.2311,-1.337,-1.4401,-1.5501,-1.5825,-1.5825,-1.5825,-1.5825,-1.5825,-1.5825,-1.5825,-1.5825,-1.5825,-1.5825,-1.5825,-1.5825,-1.5825,-1.5825,-1.5825,-1.5825,-1.5825,-1.5825,-1.5825,-1.5825,-1.5825,-1.5825,-1.5825,-1.5825,-1.5825,-1.5825,-1.5825,-1.5825,-1.5825,-1.5825,-1.5825,-1.5825,-1.5825,-1.5825,-1.5825,-1.573,-1.4997,-1.398,-1.2716,-1.1414,-0.9899,-0.8432,-0.7988,-0.7988,-0.7988,-0.7988,-0.7988,-0.7988,-0.7988,-0.7988,-0.7988,-0.7988,-0.7988,-0.7988,-0.7988,-0.7992,-0.8032,-0.8049,-0.8049,-0.8147,-0.8177,-0.8032,-0.7988,-0.7988,-0.7988,-0.7988,-0.7988,-0.7988,-0.7988,-0.7988,-0.7988,-0.7988,-0.7988,-0.7988,-0.7988,-0.7988,-0.7988,-1.0989,-1.0738,-1.0721,-1.0721,-1.0721,-1.0721,-1.0721,-1.0721,-1.0721,-1.0721,-1.0721,-1.0721,-1.0565,-1.0334,-1.0287,-1.0117,-0.9883,-0.9829,-0.9819,-0.9819,-0.9819,-0.9808,-0.9764,-0.9503,-0.9351,-0.9303,-0.9066,-0.8885,-0.8937,-0.8937,-0.8937,-0.8937,-0.8992,-1.0174,-1.2299,-1.2541,-1.3596,-1.5172,-1.5683,-1.5825,-1.5825,-1.5825,-1.5825,-1.5825,-1.5825,-1.5825,-1.5825,-1.5825,-1.5825,-1.5825,-1.5825,-1.5825,-1.5825,-1.5825,-1.5825,-1.5825,-1.5825,-1.5825,-1.5825,-1.5825,-1.5825,-1.5825,-1.5825,-1.5825,-1.5825,-1.5825,-1.5825,-1.5825,-1.5825,-1.5825,-1.5825,-1.5967,-1.592,-1.5825,-1.5635,-1.5051,-1.3878,-1.2624,-1.0925,-0.8775,-0.8237,-0.8038,-0.7988,-0.7988,-0.7988,-0.7988,-0.7988,-0.7988,-0.7988,-0.7988,-0.7988,-0.7988,-0.7988,-0.7988,-0.7988,-0.7992,-0.7992,-0.7998,-0.8015,-0.7988,-0.7988,-0.7988,-0.7988,-0.7988,-0.7988,-0.7988,-0.7988,-0.7988,-0.7988,-0.7988,-0.7988,-0.7988,-0.7988,-0.7988,-0.7988,-1.0989,-1.0731,-1.0721,-1.0721,-1.0721,-1.0721,-1.0721,-1.0721,-1.0721,-1.0721,-1.0721,-1.0721,-1.0612,-1.0436,-1.0327,-1.0171,-0.9916,-0.9876,-0.9819,-0.9819,-0.9819,-0.9771,-0.9656,-0.9476,-0.9276,-0.9096,-0.8935,-0.8937,-0.8937,-0.8937,-0.8937,-0.8937,-0.8937,-0.963,-1.104,-1.1924,-1.3139,-1.4382,-1.5391,-1.5825,-1.5825,-1.5825,-1.5825,-1.5825,-1.5825,-1.5825,-1.5825,-1.5825,-1.5825,-1.5825,-1.5825,-1.5825,-1.5825,-1.5825,-1.5825,-1.5825,-1.5825,-1.5825,-1.5825,-1.5825,-1.5825,-1.5825,-1.5825,-1.5825,-1.5825,-1.5825,-1.5825,-1.5825,-1.5825,-1.5825,-1.592,-1.6622,-1.6669,-1.592,-1.5778,-1.5337,-1.4076,-1.2764,-1.1263,-0.9801,-0.9361,-0.9019,-0.8283,-0.8038,-0.8088,-0.7988,-0.7988,-0.7988,-0.7988,-0.7988,-0.7988,-0.7988,-0.7988,-0.7988,-0.7988,-0.7988,-0.7988,-0.7988,-0.7988,-0.7988,-0.7988,-0.7988,-0.7988,-0.7988,-0.7988,-0.7988,-0.7988,-0.7988,-0.7988,-0.7988,-0.7988,-0.7988,-0.7988,-0.7988,-0.7988,-1.0992,-1.0727,-1.0721,-1.0721,-1.0721,-1.0721,-1.0721,-1.0721,-1.0721,-1.0721,-1.0721,-1.0721,-1.0636,-1.0483,-1.0344,-1.0198,-0.998,-0.9893,-0.9819,-0.9819,-0.9819,-0.9768,-0.9659,-0.9473,-0.9225,-0.8929,-0.8937,-0.8937,-0.8937,-0.8937,-0.8937,-0.8937,-0.8937,-0.9465,-1.0508,-1.1761,-1.292,-1.4018,-1.5156,-1.5825,-1.5825,-1.5825,-1.5825,-1.5825,-1.5825,-1.5825,-1.5825,-1.5825,-1.5825,-1.5825,-1.5825,-1.5825,-1.5825,-1.5825,-1.5825,-1.5825,-1.5825,-1.5825,-1.5825,-1.5825,-1.5825,-1.5825,-1.5825,-1.5825,-1.5825,-1.5825,-1.5825,-1.5825,-1.5825,-1.6015,-1.6527,-1.6669,-1.6763,-1.6622,-1.6574,-1.5704,-1.4256,-1.3199,-1.2139,-1.1116,-1.0681,-1.0047,-0.9164,-0.8726,-0.8478,-0.8187,-0.7988,-0.7988,-0.7988,-0.7988,-0.7988,-0.7988,-0.7988,-0.7988,-0.7988,-0.7988,-0.7988,-0.7988,-0.7988,-0.7988,-0.7988,-0.7988,-0.7988,-0.7988,-0.7988,-0.7988,-0.7988,-0.7988,-0.7988,-0.7988,-0.7988,-0.7988,-0.7988,-0.7988,-0.7988,-1.0989,-1.0734,-1.0721,-1.0721,-1.0721,-1.0721,-1.0721,-1.0721,-1.0721,-1.0721,-1.0721,-1.0721,-1.0646,-1.05,-1.0358,-1.0209,-0.999,-0.9829,-0.9819,-0.9819,-0.9819,-0.9795,-0.973,-0.9496,-0.9239,-0.9005,-0.8947,-0.8937,-0.8937,-0.8937,-0.8937,-0.8937,-0.8933,-0.9403,-1.0445,-1.1741,-1.2923,-1.3798,-1.5162,-1.5831,-1.5838,-1.5825,-1.5825,-1.5825,-1.5825,-1.5825,-1.5825,-1.5825,-1.5825,-1.5825,-1.5825,-1.5825,-1.5825,-1.5825,-1.5825,-1.5825,-1.5825,-1.5825,-1.5825,-1.5825,-1.5825,-1.5825,-1.5825,-1.5825,-1.5825,-1.5825,-1.5825,-1.5825,-1.5967,-1.6433,-1.7131,-1.7264,-1.7171,-1.7723,-1.7498,-1.6264,-1.459,-1.4166,-1.3397,-1.2382,-1.195,-1.1463,-1.0145,-0.9854,-0.9217,-0.8386,-0.7988,-0.7988,-0.7988,-0.7988,-0.7988,-0.7988,-0.7988,-0.7988,-0.7988,-0.7988,-0.7988,-0.7988,-0.7988,-0.7988,-0.7988,-0.7988,-0.7988,-0.7988,-0.7988,-0.7988,-0.7988,-0.7988,-0.7988,-0.7988,-0.7988,-0.7988,-0.7988,-0.7988,-0.7988,-1.0989,-1.0727,-1.0721,-1.0721,-1.0721,-1.0721,-1.0721,-1.0721,-1.0721,-1.0721,-1.0721,-1.0721,-1.0694,-1.0636,-1.0388,-1.0253,-1.0151,-0.9937,-0.9819,-0.9819,-0.9819,-0.9758,-0.9652,-0.9476,-0.9283,-0.91,-0.8984,-0.8937,-0.8937,-0.8937,-0.8937,-0.8937,-0.8933,-0.8972,-0.9517,-1.1565,-1.2586,-1.3025,-1.5059,-1.6032,-1.5852,-1.5825,-1.5825,-1.5825,-1.5825,-1.5825,-1.5825,-1.5825,-1.5825,-1.5825,-1.5825,-1.5825,-1.5825,-1.5825,-1.5825,-1.5825,-1.5825,-1.5825,-1.5825,-1.5825,-1.5825,-1.5825,-1.5825,-1.5825,-1.5825,-1.5825,-1.5825,-1.5967,-1.6574,-1.7318,-1.7863,-1.8894,-1.9798,-1.9898,-1.8164,-1.6608,-1.6405,-1.5846,-1.4806,-1.3632,-1.3392,-1.2328,-1.0779,-1.0047,-0.9558,-0.8432,-0.7988,-0.7988,-0.7988,-0.7988,-0.7988,-0.7988,-0.7988,-0.7988,-0.7988,-0.7988,-0.7988,-0.7988,-0.7988,-0.7988,-0.7988,-0.7988,-0.7988,-0.7988,-0.7988,-0.7988,-0.7988,-0.7988,-0.7988,-0.7988,-0.7988,-0.7988,-0.7988,-0.7988,-0.7988,-1.0934,-1.0721,-1.0721,-1.0721,-1.0721,-1.0721,-1.0721,-1.0721,-1.0721,-1.0721,-1.0721,-1.0721,-1.0683,-1.0602,-1.0382,-1.0243,-1.0154,-0.9934,-0.9825,-0.9819,-0.9819,-0.9744,-0.9605,-0.9452,-0.9303,-0.915,-0.9008,-0.8944,-0.8937,-0.8937,-0.8937,-0.8937,-0.8937,-0.8834,-0.9029,-1.1376,-1.2665,-1.281,-1.4831,-1.6126,-1.5852,-1.5825,-1.5825,-1.5825,-1.5825,-1.5825,-1.5825,-1.5825,-1.5825,-1.5825,-1.5825,-1.5825,-1.5825,-1.5825,-1.5825,-1.5825,-1.5825,-1.5825,-1.5825,-1.5825,-1.5825,-1.5825,-1.5825,-1.5825,-1.5825,-1.5825,-1.5825,-1.592,-1.6998,-1.7824,-1.868,-2.0206,-2.1159,-2.0935,-1.8932,-1.749,-1.7731,-1.7037,-1.6048,-1.5134,-1.4555,-1.3734,-1.117,-1.0828,-0.9801,-0.8577,-0.7988,-0.7988,-0.7988,-0.7988,-0.7988,-0.7988,-0.7988,-0.7988,-0.7988,-0.7988,-0.7988,-0.7988,-0.7988,-0.7988,-0.7988,-0.7988,-0.7988,-0.7988,-0.7988,-0.7988,-0.7988,-0.7988,-0.7988,-0.7988,-0.7988,-0.7988,-0.7988,-0.7988,-0.7988,-1.0789,-1.0721,-1.0721,-1.0721,-1.0721,-1.0721,-1.0721,-1.0721,-1.0721,-1.0721,-1.0721,-1.0721,-1.0643,-1.0487,-1.0354,-1.0202,-0.999,-0.9839,-0.9839,-0.9819,-0.9812,-0.9758,-0.9652,-0.9507,-0.9354,-0.9198,-0.9035,-0.8964,-0.8947,-0.8937,-0.8937,-0.8937,-0.8937,-0.9103,-0.9706,-1.1684,-1.2641,-1.3206,-1.5146,-1.6131,-1.5899,-1.5825,-1.5825,-1.5825,-1.5825,-1.5825,-1.5825,-1.5825,-1.5825,-1.5825,-1.5825,-1.5825,-1.5825,-1.5825,-1.5825,-1.5825,-1.5825,-1.5825,-1.5825,-1.5825,-1.5825,-1.5825,-1.5825,-1.5825,-1.5825,-1.5825,-1.5825,-1.5825,-1.699,-1.8226,-1.9633,-2.0845,-2.1525,-2.1525,-2.044,-1.9405,-1.8365,-1.787,-1.7271,-1.6204,-1.592,-1.4519,-1.2866,-1.1702,-1.0921,-0.8432,-0.7988,-0.7988,-0.7988,-0.7988,-0.7988,-0.7988,-0.7988,-0.7988,-0.7988,-0.7988,-0.7988,-0.7988,-0.7988,-0.7988,-0.7988,-0.7988,-0.7988,-0.7988,-0.7988,-0.7988,-0.7988,-0.7988,-0.7988,-0.7988,-0.7988,-0.7988,-0.7988,-0.7988,-0.7988,-1.0789,-1.0721,-1.0721,-1.0721,-1.0721,-1.0721,-1.0721,-1.0721,-1.0721,-1.0721,-1.0721,-1.0721,-1.0629,-1.0477,-1.0341,-1.0198,-0.9974,-0.989,-0.9822,-0.9819,-0.9819,-0.9808,-0.9744,-0.9622,-0.9476,-0.932,-0.9234,-0.9049,-0.8967,-0.8937,-0.8937,-0.8937,-0.8992,-0.9482,-1.0714,-1.2126,-1.3514,-1.4208,-1.5758,-1.6222,-1.5912,-1.5825,-1.5825,-1.5825,-1.5825,-1.5825,-1.5825,-1.5825,-1.5825,-1.5825,-1.5825,-1.5825,-1.5825,-1.5825,-1.5825,-1.5825,-1.5825,-1.5825,-1.5825,-1.5825,-1.5825,-1.5825,-1.5825,-1.5825,-1.5825,-1.5825,-1.5825,-1.6015,-1.6998,-1.8549,-2.0531,-2.1943,-2.2438,-2.2403,-2.2262,-2.1667,-2.0531,-1.891,-1.7816,-1.7178,-1.6339,-1.4854,-1.2387,-1.1994,-1.0725,-0.8627,-0.7988,-0.7988,-0.7988,-0.7988,-0.7988,-0.7988,-0.7988,-0.7988,-0.7988,-0.7988,-0.7988,-0.7988,-0.7988,-0.7988,-0.7988,-0.7988,-0.7988,-0.7988,-0.7988,-0.7988,-0.7988,-0.7988,-0.7988,-0.7988,-0.7988,-0.7988,-0.7988,-0.7988,-0.7988,-1.0795,-1.0721,-1.0721,-1.0721,-1.0721,-1.0721,-1.0721,-1.0721,-1.0721,-1.0721,-1.0721,-1.0721,-1.0595,-1.0395,-1.0307,-1.0164,-0.9968,-0.9866,-0.9819,-0.9819,-0.9819,-0.9819,-0.9815,-0.973,-0.9605,-0.9395,-0.9279,-0.9079,-0.8974,-0.8937,-0.8937,-0.8937,-0.8937,-0.9699,-1.1105,-1.2507,-1.3652,-1.4543,-1.5922,-1.642,-1.5925,-1.5825,-1.5825,-1.5825,-1.5825,-1.5825,-1.5825,-1.5825,-1.5825,-1.5825,-1.5825,-1.5825,-1.5825,-1.5825,-1.5825,-1.5825,-1.5825,-1.5825,-1.5825,-1.5825,-1.5825,-1.5825,-1.5825,-1.5825,-1.5825,-1.5825,-1.5825,-1.6062,-1.703,-1.868,-2.098,-2.1712,-2.2359,-2.3003,-2.3101,-2.2765,-2.1987,-2.0486,-1.8818,-1.8048,-1.7077,-1.5453,-1.3866,-1.2619,-1.1263,-0.946,-0.8137,-0.8088,-0.7988,-0.7988,-0.7988,-0.7988,-0.7988,-0.7988,-0.7988,-0.7988,-0.7988,-0.7988,-0.7988,-0.7988,-0.7988,-0.7988,-0.7988,-0.7988,-0.7988,-0.7988,-0.7988,-0.7988,-0.7988,-0.7988,-0.7988,-0.7988,-0.7988,-0.7988,-0.7988,-1.0721,-1.0721,-1.0721,-1.0721,-1.0721,-1.0721,-1.0721,-1.0721,-1.0721,-1.0721,-1.0721,-1.0721,-1.0578,-1.0365,-1.0293,-1.0103,-0.9893,-0.9825,-0.9819,-0.9819,-0.9819,-0.9819,-0.9815,-0.9785,-0.9676,-0.9418,-0.9276,-0.9127,-0.8984,-0.8937,-0.8937,-0.8937,-0.8937,-0.9699,-1.1109,-1.2222,-1.3413,-1.4514,-1.5513,-1.6117,-1.5884,-1.5825,-1.5825,-1.5825,-1.5825,-1.5825,-1.5825,-1.5825,-1.5825,-1.5825,-1.5825,-1.5825,-1.5825,-1.5825,-1.5825,-1.5825,-1.5825,-1.5825,-1.5825,-1.5825,-1.5825,-1.5825,-1.5825,-1.5825,-1.5825,-1.5825,-1.5825,-1.6197,-1.703,-1.8549,-2.0711,-2.1337,-2.1987,-2.2775,-2.3101,-2.3101,-2.2906,-2.212,-2.0539,-1.8549,-1.7584,-1.6156,-1.4489,-1.3006,-1.1697,-1.0435,-0.9167,-0.8287,-0.8237,-0.7988,-0.7988,-0.7988,-0.7988,-0.7988,-0.7988,-0.7988,-0.7988,-0.7988,-0.7988,-0.7988,-0.7988,-0.7988,-0.7988,-0.7988,-0.7988,-0.7988,-0.7988,-0.7988,-0.7988,-0.7988,-0.7988,-0.7988,-0.7988,-0.7988,-0.7988,-1.0721,-1.0721,-1.0721,-1.0721,-1.0721,-1.0721,-1.0721,-1.0721,-1.0721,-1.0721,-1.0721,-1.0714,-1.0622,-1.0453,-1.0321,-1.0107,-0.9876,-0.9819,-0.9819,-0.9819,-0.9819,-0.9819,-0.9819,-0.9815,-0.972,-0.9578,-0.9401,-0.9198,-0.9005,-0.8937,-0.8937,-0.8937,-0.8937,-0.9644,-1.0726,-1.1516,-1.2622,-1.4106,-1.4895,-1.5245,-1.5521,-1.5778,-1.5825,-1.5825,-1.5825,-1.5825,-1.5825,-1.5825,-1.5825,-1.5825,-1.5825,-1.5825,-1.5825,-1.5825,-1.5825,-1.5825,-1.5825,-1.5825,-1.5825,-1.5825,-1.5825,-1.5825,-1.5825,-1.5825,-1.5825,-1.5825,-1.5825,-1.6109,-1.6897,-1.8226,-1.9633,-2.0531,-2.1756,-2.2633,-2.3091,-2.3047,-2.295,-2.2536,-2.14,-1.9093,-1.7987,-1.6922,-1.5114,-1.368,-1.2716,-1.1453,-1.0145,-0.941,-0.9217,-0.8627,-0.7988,-0.7988,-0.7988,-0.7988,-0.7988,-0.7988,-0.7988,-0.7988,-0.7988,-0.7988,-0.7988,-0.7988,-0.7988,-0.7988,-0.7988,-0.7988,-0.7988,-0.7988,-0.7988,-0.7988,-0.7988,-0.7988,-0.7988,-0.7988,-0.7988,-1.0721,-1.0721,-1.0721,-1.0721,-1.0721,-1.0721,-1.0721,-1.0721,-1.0721,-1.0721,-1.0721,-1.0711,-1.0592,-1.0415,-1.0324,-1.011,-0.9886,-0.9819,-0.9819,-0.9819,-0.9819,-0.9819,-0.9819,-0.9819,-0.9734,-0.9602,-0.9445,-0.9273,-0.9059,-0.8967,-0.8944,-0.8937,-0.8937,-0.9644,-1.0781,-1.1156,-1.2003,-1.3369,-1.4162,-1.455,-1.4904,-1.5343,-1.5778,-1.5825,-1.5825,-1.5825,-1.5825,-1.5825,-1.5825,-1.5825,-1.5825,-1.5825,-1.5825,-1.5825,-1.5825,-1.5825,-1.5825,-1.5825,-1.5825,-1.5825,-1.5825,-1.5825,-1.5825,-1.5825,-1.5825,-1.5825,-1.5825,-1.5967,-1.6157,-1.7217,-1.8449,-1.9662,-2.0845,-2.1943,-2.2633,-2.2677,-2.235,-2.2208,-2.0809,-1.9231,-1.8672,-1.7421,-1.5561,-1.4411,-1.3686,-1.2522,-1.1165,-1.0534,-1.0194,-0.9019,-0.7988,-0.7988,-0.7988,-0.7988,-0.7988,-0.7988,-0.7988,-0.7988,-0.7988,-0.7988,-0.7988,-0.7988,-0.7988,-0.7988,-0.7988,-0.7988,-0.7988,-0.7988,-0.7988,-0.7988,-0.7988,-0.7988,-0.7988,-0.7988,-0.7988,-1.0721,-1.0721,-1.0721,-1.0721,-1.0721,-1.0721,-1.0721,-1.0721,-1.0721,-1.0721,-1.0721,-1.0707,-1.0575,-1.0365,-1.0236,-1.008,-0.9829,-0.9819,-0.9819,-0.9819,-0.9819,-0.9819,-0.9819,-0.9808,-0.9764,-0.9669,-0.9459,-0.9361,-0.919,-0.9001,-0.8947,-0.8937,-0.8937,-0.9372,-1.0347,-1.0406,-1.1287,-1.2163,-1.3099,-1.3579,-1.4153,-1.4848,-1.5588,-1.5778,-1.5825,-1.5825,-1.5825,-1.5825,-1.5825,-1.5825,-1.5825,-1.5825,-1.5825,-1.5825,-1.5825,-1.5825,-1.5825,-1.5825,-1.5825,-1.5825,-1.5825,-1.5825,-1.5825,-1.5825,-1.5825,-1.5825,-1.5825,-1.5825,-1.5872,-1.648,-1.7723,-1.8588,-1.9617,-2.0711,-2.1632,-2.2041,-2.1257,-2.0711,-1.9997,-1.9093,-1.9039,-1.784,-1.5798,-1.5242,-1.4561,-1.3734,-1.2377,-1.1165,-1.0632,-0.8924,-0.8038,-0.7988,-0.7988,-0.7988,-0.7988,-0.7988,-0.7988,-0.7988,-0.7988,-0.7988,-0.7988,-0.7988,-0.7988,-0.7988,-0.7988,-0.7988,-0.7988,-0.7988,-0.7988,-0.7988,-0.7988,-0.7988,-0.7988,-0.7988,-0.7988,-1.0721,-1.0721,-1.0721,-1.0721,-1.0721,-1.0721,-1.0721,-1.0721,-1.0721,-1.0721,-1.0721,-1.0711,-1.0619,-1.0419,-1.0168,-0.9985,-0.9863,-0.9819,-0.9819,-0.9819,-0.9819,-0.9819,-0.9819,-0.9819,-0.9795,-0.9703,-0.9493,-0.931,-0.921,-0.9008,-0.8885,-0.8937,-0.8937,-0.9047,-0.9372,-0.9482,-0.9688,-1.0506,-1.0893,-1.1911,-1.3531,-1.4064,-1.4806,-1.5439,-1.5778,-1.5825,-1.5825,-1.5825,-1.5825,-1.5825,-1.5825,-1.5825,-1.5825,-1.5825,-1.5825,-1.5825,-1.5825,-1.5825,-1.5825,-1.5825,-1.5825,-1.5825,-1.5825,-1.5825,-1.5825,-1.5825,-1.5825,-1.5825,-1.5825,-1.6244,-1.7178,-1.7777,-1.8588,-1.9306,-2.0124,-2.0178,-1.9761,-1.9625,-1.8864,-1.8133,-1.7809,-1.7163,-1.5866,-1.573,-1.5493,-1.4615,-1.3638,-1.2334,-1.0925,-0.9213,-0.8038,-0.7988,-0.7988,-0.7988,-0.7988,-0.7988,-0.7988,-0.7988,-0.7988,-0.7988,-0.7988,-0.7988,-0.7988,-0.7988,-0.7988,-0.7988,-0.7988,-0.7988,-0.7988,-0.7988,-0.7988,-0.7988,-0.7988,-0.7988,-0.7988,-1.0721,-1.0721,-1.0721,-1.0721,-1.0721,-1.0721,-1.0721,-1.0721,-1.0721,-1.0721,-1.0721,-1.0721,-1.0595,-1.0344,-1.0056,-0.9829,-0.9829,-0.9819,-0.9819,-0.9819,-0.9819,-0.9819,-0.9819,-0.9812,-0.9795,-0.9663,-0.9493,-0.9364,-0.9154,-0.9022,-0.8937,-0.8937,-0.8937,-0.8937,-0.8937,-0.8937,-0.9078,-0.9459,-0.9945,-1.1051,-1.2521,-1.3488,-1.4166,-1.4758,-1.5439,-1.573,-1.5825,-1.5825,-1.5825,-1.5825,-1.5825,-1.5825,-1.5825,-1.5825,-1.5825,-1.5825,-1.5825,-1.5825,-1.5825,-1.5825,-1.5825,-1.5825,-1.5825,-1.5825,-1.5825,-1.5825,-1.5825,-1.5825,-1.5825,-1.6157,-1.6716,-1.7318,-1.7816,-1.8403,-1.8856,-1.8726,-1.8588,-1.8449,-1.8041,-1.7264,-1.6622,-1.6244,-1.5866,-1.5629,-1.5391,-1.4854,-1.359,-1.2091,-1.0828,-0.941,-0.8478,-0.7988,-0.7988,-0.7988,-0.7988,-0.7988,-0.7988,-0.7988,-0.7988,-0.7988,-0.7988,-0.7988,-0.7988,-0.7988,-0.7988,-0.7988,-0.7988,-0.7988,-0.7988,-0.7988,-0.7988,-0.7988,-0.7988,-0.7988,-0.7988,-1.0721,-1.0721,-1.0721,-1.0721,-1.0721,-1.0721,-1.0721,-1.0721,-1.0721,-1.0721,-1.0694,-1.0636,-1.0453,-1.0219,-0.9964,-0.9832,-0.9822,-0.9819,-0.9819,-0.9819,-0.9819,-0.9819,-0.9819,-0.9812,-0.9747,-0.9605,-0.9462,-0.9357,-0.9154,-0.9022,-0.8937,-0.8937,-0.8937,-0.8937,-0.8937,-0.8861,-0.8896,-0.8699,-0.9155,-1.0085,-1.1409,-1.2673,-1.344,-1.4166,-1.4997,-1.5825,-1.5825,-1.5825,-1.5825,-1.5825,-1.5825,-1.5825,-1.5825,-1.5825,-1.5825,-1.5825,-1.5825,-1.5825,-1.5825,-1.5825,-1.5825,-1.5825,-1.5825,-1.5825,-1.5825,-1.5825,-1.5825,-1.5825,-1.5825,-1.5825,-1.6015,-1.6709,-1.699,-1.7404,-1.7816,-1.7677,-1.749,-1.7397,-1.721,-1.6662,-1.6197,-1.6062,-1.573,-1.5432,-1.5146,-1.4902,-1.3692,-1.1945,-1.0485,-0.9069,-0.8627,-0.7988,-0.7988,-0.7988,-0.7988,-0.7988,-0.7988,-0.7988,-0.7988,-0.7988,-0.7988,-0.7988,-0.7988,-0.7988,-0.7988,-0.7988,-0.7988,-0.7988,-0.7988,-0.7988,-0.7988,-0.7988,-0.7988,-0.7988,-0.7988,-1.0721,-1.0721,-1.0721,-1.0721,-1.0721,-1.0721,-1.0721,-1.0721,-1.0721,-1.0711,-1.066,-1.0453,-1.0256,-1.0063,-0.9924,-0.9819,-0.9819,-0.9819,-0.9819,-0.9819,-0.9819,-0.9819,-0.9819,-0.9802,-0.9741,-0.9588,-0.9445,-0.9357,-0.9207,-0.9001,-0.8947,-0.8937,-0.8937,-0.8937,-0.8861,-0.8821,-0.8743,-0.8465,-0.8542,-0.908,-1.0288,-1.1556,-1.2716,-1.3974,-1.5045,-1.5825,-1.5825,-1.5825,-1.5825,-1.5825,-1.5825,-1.5825,-1.5825,-1.5825,-1.5825,-1.5825,-1.5825,-1.5825,-1.5825,-1.5825,-1.5825,-1.5825,-1.5825,-1.5825,-1.5825,-1.5825,-1.5825,-1.5825,-1.5825,-1.5825,-1.5825,-1.5927,-1.6251,-1.6433,-1.6803,-1.6662,-1.652,-1.6379,-1.6197,-1.592,-1.5825,-1.5825,-1.5432,-1.5092,-1.4704,-1.4411,-1.2764,-1.1023,-0.9604,-0.8382,-0.8283,-0.7988,-0.7988,-0.7988,-0.7988,-0.7988,-0.7988,-0.7988,-0.7988,-0.7988,-0.7988,-0.7988,-0.7988,-0.7988,-0.7988,-0.7988,-0.7988,-0.7988,-0.7988,-0.7988,-0.7988,-0.7988,-0.7988,-0.7988,-0.7988,-1.0721,-1.0721,-1.0721,-1.0721,-1.0721,-1.0721,-1.0721,-1.0721,-1.0721,-1.066,-1.0568,-1.0368,-1.0195,-0.9977,-0.9897,-0.9819,-0.9819,-0.9819,-0.9819,-0.9819,-0.9819,-0.9819,-0.9819,-0.9785,-0.9707,-0.9513,-0.9395,-0.9242,-0.9022,-0.8908,-0.895,-0.8937,-0.8937,-0.8937,-0.8854,-0.873,-0.8608,-0.8465,-0.8316,-0.8684,-0.9948,-1.1263,-1.2528,-1.3878,-1.514,-1.573,-1.5825,-1.5825,-1.5825,-1.5825,-1.5825,-1.5825,-1.5825,-1.5825,-1.5825,-1.5825,-1.5825,-1.5825,-1.5825,-1.5825,-1.5825,-1.5825,-1.5825,-1.5825,-1.5825,-1.5825,-1.5825,-1.5825,-1.5825,-1.5825,-1.5825,-1.5825,-1.5872,-1.5825,-1.5825,-1.5825,-1.5825,-1.5825,-1.5825,-1.5825,-1.5825,-1.5825,-1.5289,-1.4704,-1.4316,-1.3782,-1.194,-1.0194,-0.8871,-0.7988,-0.7988,-0.7988,-0.7988,-0.7988,-0.7988,-0.7988,-0.7988,-0.7988,-0.7988,-0.7988,-0.7988,-0.7988,-0.7988,-0.7988,-0.7988,-0.7988,-0.7988,-0.7988,-0.7988,-0.7988,-0.7988,-0.7988,-0.7988,-0.7988,-0.7988,-1.0721,-1.0721,-1.0721,-1.0721,-1.0721,-1.0721,-1.0721,-1.0721,-1.0721,-1.0602,-1.0422,-1.0276,-1.0127,-0.992,-0.988,-0.9822,-0.9819,-0.9819,-0.9819,-0.9819,-0.9819,-0.9819,-0.9819,-0.9778,-0.968,-0.9445,-0.9357,-0.9235,-0.8908,-0.8888,-0.8937,-0.8937,-0.8937,-0.8937,-0.8824,-0.8696,-0.853,-0.8425,-0.8364,-0.8713,-1.0019,-1.1263,-1.2528,-1.3878,-1.514,-1.573,-1.5825,-1.5825,-1.5825,-1.5825,-1.5825,-1.5825,-1.5825,-1.5825,-1.5825,-1.5825,-1.5825,-1.5825,-1.5825,-1.5825,-1.5825,-1.5825,-1.5825,-1.5825,-1.5825,-1.5825,-1.5825,-1.5825,-1.5825,-1.5825,-1.5825,-1.5825,-1.5825,-1.5825,-1.5825,-1.5825,-1.5825,-1.5825,-1.5825,-1.5825,-1.5778,-1.5629,-1.4268,-1.3488,-1.2517,-1.1935,-1.0529,-0.9266,-0.8627,-0.7988,-0.7988,-0.7988,-0.7988,-0.7988,-0.7988,-0.7988,-0.7988,-0.7988,-0.7988,-0.7988,-0.7988,-0.7988,-0.7988,-0.7988,-0.7988,-0.7988,-0.7988,-0.7988,-0.7988,-0.7988,-0.7988,-0.7988,-0.7988,-0.7988,-0.7988,-1.0721,-1.0721,-1.0721,-1.0721,-1.0721,-1.0721,-1.0721,-1.0714,-1.07,-1.0551,-1.0304,-1.0144,-0.9992,-0.9869,-0.9825,-0.9822,-0.9819,-0.9819,-0.9819,-0.9819,-0.9819,-0.9819,-0.9812,-0.9771,-0.9642,-0.9442,-0.9334,-0.9191,-0.8888,-0.894,-0.8937,-0.8937,-0.8937,-0.8937,-0.8868,-0.8784,-0.8632,-0.8482,-0.8326,-0.8978,-1.0031,-1.1263,-1.2522,-1.383,-1.514,-1.5778,-1.5825,-1.5825,-1.5825,-1.5825,-1.5825,-1.5825,-1.5825,-1.5825,-1.5825,-1.5825,-1.5825,-1.5825,-1.5825,-1.5825,-1.5825,-1.5825,-1.5825,-1.5825,-1.5825,-1.5825,-1.5825,-1.5825,-1.5825,-1.5825,-1.5825,-1.5825,-1.5825,-1.5825,-1.5825,-1.5825,-1.5825,-1.5825,-1.5825,-1.5825,-1.5683,-1.5242,-1.3542,-1.2086,-1.0823,-0.9801,-0.8825,-0.8237,-0.8038,-0.7988,-0.7988,-0.7988,-0.7988,-0.7988,-0.7988,-0.7988,-0.7988,-0.7988,-0.7988,-0.7988,-0.7988,-0.7988,-0.7988,-0.7988,-0.7988,-0.7988,-0.7988,-0.7988,-0.7988,-0.7988,-0.7988,-0.7988,-0.7988,-0.7988,-0.7988,-1.0721,-1.0721,-1.0721,-1.0721,-1.0721,-1.0721,-1.0717,-1.07,-1.0609,-1.0456,-1.028,-1.0117,-0.9903,-0.9859,-0.9819,-0.9819,-0.9819,-0.9819,-0.9819,-0.9819,-0.9819,-0.9819,-0.9802,-0.9713,-0.9578,-0.9401,-0.9286,-0.915,-0.894,-0.8937,-0.8937,-0.8937,-0.8937,-0.8937,-0.8896,-0.8788,-0.8635,-0.8486,-0.844,-0.8848,-1.0027,-1.1263,-1.2571,-1.392,-1.5194,-1.5778,-1.5825,-1.5825,-1.5825,-1.5825,-1.5825,-1.5825,-1.5825,-1.5825,-1.5825,-1.5825,-1.5825,-1.5825,-1.5825,-1.5825,-1.5825,-1.5825,-1.5825,-1.5825,-1.5825,-1.5825,-1.5825,-1.5825,-1.5825,-1.5825,-1.5825,-1.5825,-1.5825,-1.5825,-1.5825,-1.5825,-1.5825,-1.5825,-1.5825,-1.5825,-1.573,-1.4322,-1.2721,-1.1161,-0.9801,-0.9118,-0.8333,-0.8137,-0.7988,-0.7988,-0.7988,-0.7988,-0.7988,-0.7988,-0.7988,-0.7988,-0.7988,-0.7988,-0.7988,-0.7988,-0.7988,-0.7988,-0.7988,-0.7988,-0.7988,-0.7988,-0.7988,-0.7988,-0.7988,-0.7988,-0.7988,-0.7988,-0.7988,-0.7988,-0.7988,-1.0721,-1.0721,-1.0721,-1.0687,-1.0653,-1.0697,-1.0697,-1.0612,-1.0432,-1.0283,-1.0178,-1.0036,-0.9856,-0.9839,-0.9819,-0.9819,-0.9819,-0.9819,-0.9819,-0.9819,-0.9819,-0.9785,-0.972,-0.9646,-0.9493,-0.9334,-0.9262,-0.9079,-0.8944,-0.8937,-0.8937,-0.8937,-0.8933,-0.8838,-0.8801,-0.8777,-0.8689,-0.8533,-0.8533,-0.9205,-1.0479,-1.1702,-1.2818,-1.4268,-1.5337,-1.5825,-1.5825,-1.5825,-1.5825,-1.5825,-1.5825,-1.5825,-1.5825,-1.5825,-1.5825,-1.5825,-1.5825,-1.5825,-1.5825,-1.5825,-1.5825,-1.5825,-1.5825,-1.5825,-1.5825,-1.5825,-1.5825,-1.5825,-1.5825,-1.5825,-1.5825,-1.5825,-1.5825,-1.5825,-1.5825,-1.5825,-1.5825,-1.5825,-1.5825,-1.5825,-1.4997,-1.3499,-1.1848,-1.0386,-0.8871,-0.8432,-0.7988,-0.7988,-0.7988,-0.7988,-0.7988,-0.7988,-0.7988,-0.7988,-0.7988,-0.7988,-0.7988,-0.7988,-0.7988,-0.7988,-0.7988,-0.7988,-0.7988,-0.7988,-0.7988,-0.7988,-0.7988,-0.7988,-0.7988,-0.7988,-0.7988,-0.7988,-0.7988,-0.7988,-0.7988,-1.0711,-1.0711,-1.0707,-1.0612,-1.0521,-1.0605,-1.0592,-1.0463,-1.0125,-1.0004,-0.9987,-0.9849,-0.9832,-0.9825,-0.9819,-0.9819,-0.9819,-0.9819,-0.9819,-0.9819,-0.9819,-0.9741,-0.9659,-0.9585,-0.9415,-0.9306,-0.9176,-0.9042,-0.8944,-0.8937,-0.8937,-0.8937,-0.8937,-0.8811,-0.876,-0.873,-0.8689,-0.8499,-0.8553,-0.9408,-1.0744,-1.1707,-1.306,-1.4513,-1.554,-1.5778,-1.5825,-1.5825,-1.5825,-1.5825,-1.5825,-1.5825,-1.5825,-1.5825,-1.5825,-1.5825,-1.5825,-1.5825,-1.5825,-1.5825,-1.5825,-1.5825,-1.5825,-1.5825,-1.5825,-1.5825,-1.5825,-1.5825,-1.5825,-1.5825,-1.5825,-1.5825,-1.5825,-1.5825,-1.5825,-1.5825,-1.5825,-1.5825,-1.5825,-1.5384,-1.4364,-1.2861,-1.0877,-0.9266,-0.8482,-0.8233,-0.7988,-0.7988,-0.7988,-0.7988,-0.7988,-0.7988,-0.7988,-0.7988,-0.7988,-0.7988,-0.7988,-0.7988,-0.7988,-0.7988,-0.7988,-0.7988,-0.7988,-0.7988,-0.7988,-0.7988,-0.7988,-0.7988,-0.7988,-0.7988,-0.7988,-0.7988,-0.7988,-0.7988,-0.7988,-1.0558,-1.0548,-1.0449,-1.0382,-1.0337,-1.0209,-1.0273,-1.0304,-1.0068,-0.9987,-0.998,-0.9886,-0.9822,-0.9819,-0.9819,-0.9819,-0.9819,-0.9819,-0.9819,-0.9815,-0.9795,-0.9717,-0.9612,-0.9483,-0.9388,-0.9181,-0.9059,-0.8994,-0.895,-0.8937,-0.8937,-0.8937,-0.8937,-0.879,-0.8713,-0.8747,-0.8567,-0.8418,-0.8347,-0.9326,-1.056,-1.1463,-1.2958,-1.422,-1.5486,-1.5683,-1.5825,-1.5825,-1.5825,-1.5825,-1.5825,-1.5825,-1.5825,-1.5825,-1.5825,-1.5825,-1.5825,-1.5825,-1.5825,-1.5825,-1.5825,-1.5825,-1.5825,-1.5825,-1.5825,-1.5825,-1.5825,-1.5825,-1.5825,-1.5825,-1.5825,-1.5825,-1.5825,-1.5825,-1.5825,-1.5825,-1.5778,-1.5534,-1.5486,-1.4418,-1.3397,-1.1891,-0.9899,-0.8874,-0.8184,-0.8038,-0.7988,-0.7988,-0.7988,-0.7988,-0.7988,-0.7988,-0.7988,-0.7988,-0.7988,-0.7988,-0.7988,-0.7988,-0.7988,-0.7988,-0.7988,-0.7988,-0.7988,-0.7988,-0.7988,-0.7988,-0.7988,-0.7988,-0.7988,-0.7988,-0.7988,-0.7988,-0.7988,-0.7988,-0.7988,-1.0409,-1.0399,-1.0317,-1.0246,-1.0164,-1.0025,-1.0019,-1.0073,-0.9933,-0.9896,-0.9947,-0.9859,-0.9819,-0.9819,-0.9819,-0.9819,-0.9819,-0.9819,-0.9795,-0.9724,-0.9734,-0.9574,-0.9452,-0.934,-0.9208,-0.9079,-0.8998,-0.895,-0.8937,-0.8937,-0.8937,-0.8937,-0.8937,-0.8801,-0.8679,-0.8591,-0.8448,-0.8309,-0.8411,-0.9009,-1.002,-1.1263,-1.2522,-1.3878,-1.514,-1.5683,-1.5825,-1.5825,-1.5825,-1.5825,-1.5825,-1.5825,-1.5825,-1.5825,-1.5825,-1.5825,-1.5825,-1.5825,-1.5825,-1.5825,-1.5825,-1.5825,-1.5825,-1.5825,-1.5825,-1.5825,-1.5825,-1.5825,-1.5825,-1.5825,-1.5825,-1.5825,-1.5825,-1.5825,-1.5825,-1.5825,-1.5581,-1.5296,-1.4418,-1.3301,-1.2086,-1.0676,-0.946,-0.8528,-0.7988,-0.7988,-0.7988,-0.7988,-0.7988,-0.7988,-0.7988,-0.7988,-0.7988,-0.7988,-0.7988,-0.7988,-0.7988,-0.7988,-0.7988,-0.7988,-0.7988,-0.7988,-0.7988,-0.7988,-0.7988,-0.7988,-0.7988,-0.7988,-0.7988,-0.7988,-0.7988,-0.7988,-0.7988,-0.7988,-0.7988,-1.0259,-1.0256,-1.0246,-1.0144,-0.996,-0.9825,-0.9836,-0.9819,-0.9839,-0.9825,-0.9829,-0.9822,-0.9819,-0.9815,-0.9791,-0.9778,-0.9751,-0.9737,-0.9663,-0.9595,-0.9588,-0.9459,-0.9337,-0.9207,-0.9106,-0.9001,-0.8937,-0.8937,-0.8937,-0.8937,-0.8937,-0.8937,-0.8851,-0.8771,-0.8557,-0.8482,-0.834,-0.8106,-0.8301,-0.8801,-0.9995,-1.1263,-1.2522,-1.3878,-1.4997,-1.5825,-1.5825,-1.5825,-1.5825,-1.5825,-1.5825,-1.5825,-1.5825,-1.5825,-1.5825,-1.5825,-1.5825,-1.5825,-1.5825,-1.5825,-1.5825,-1.5825,-1.5825,-1.5825,-1.5825,-1.5825,-1.5825,-1.5825,-1.5825,-1.5825,-1.5825,-1.5825,-1.5825,-1.5825,-1.5825,-1.5825,-1.5683,-1.4902,-1.3494,-1.2377,-1.1165,-0.985,-0.8871,-0.7988,-0.7988,-0.7988,-0.7988,-0.7988,-0.7988,-0.7988,-0.7988,-0.7988,-0.7988,-0.7988,-0.7988,-0.7988,-0.7988,-0.7988,-0.7988,-0.7988,-0.7988,-0.7988,-0.7988,-0.7988,-0.7988,-0.7988,-0.7988,-0.7988,-0.7988,-0.7988,-0.7988,-0.7988,-0.7988,-0.7988,-0.7988,-1.0107,-1.0031,-0.9978,-0.9903,-0.9876,-0.9836,-0.9819,-0.9819,-0.9819,-0.9819,-0.9819,-0.9819,-0.9812,-0.9795,-0.971,-0.9676,-0.9642,-0.9581,-0.9483,-0.9445,-0.9435,-0.9334,-0.9234,-0.912,-0.9055,-0.8981,-0.8937,-0.8937,-0.8937,-0.8937,-0.8878,-0.8868,-0.8855,-0.8672,-0.8489,-0.8411,-0.8241,-0.8008,-0.8122,-0.87,-0.9772,-1.1165,-1.2528,-1.383,-1.4949,-1.573,-1.5825,-1.5825,-1.5825,-1.5825,-1.5825,-1.5825,-1.5825,-1.5825,-1.5825,-1.5825,-1.5825,-1.5825,-1.5825,-1.5825,-1.5825,-1.5825,-1.5825,-1.5825,-1.5825,-1.5825,-1.5825,-1.5825,-1.5825,-1.5825,-1.5825,-1.5825,-1.5825,-1.5825,-1.5778,-1.5778,-1.573,-1.4172,-1.2619,-1.1307,-1.0194,-0.9266,-0.8333,-0.7988,-0.7988,-0.7988,-0.7988,-0.7988,-0.7988,-0.7988,-0.7988,-0.7988,-0.7988,-0.7988,-0.7988,-0.7988,-0.7988,-0.7988,-0.7988,-0.7988,-0.7988,-0.7988,-0.7988,-0.7988,-0.7988,-0.7988,-0.7988,-0.7988,-0.7988,-0.7988,-0.7988,-0.7988,-0.7988,-0.7988,-0.7988,-0.9947,-0.9937,-0.9859,-0.9819,-0.9819,-0.9819,-0.9819,-0.9819,-0.9819,-0.9819,-0.9819,-0.9815,-0.9791,-0.9741,-0.9642,-0.9544,-0.9507,-0.9429,-0.9351,-0.9364,-0.9266,-0.9181,-0.9113,-0.9066,-0.9015,-0.8892,-0.8885,-0.8937,-0.8937,-0.8937,-0.8878,-0.8851,-0.8781,-0.8625,-0.8476,-0.8336,-0.8191,-0.8048,-0.7992,-0.8482,-0.9509,-1.0877,-1.2042,-1.3301,-1.4561,-1.5486,-1.5825,-1.5825,-1.5825,-1.5825,-1.5825,-1.5825,-1.5825,-1.5825,-1.5825,-1.5825,-1.5825,-1.5825,-1.5825,-1.5825,-1.5825,-1.5825,-1.5825,-1.5825,-1.5825,-1.5825,-1.5825,-1.5825,-1.5825,-1.5825,-1.5825,-1.5825,-1.5825,-1.5825,-1.5534,-1.5391,-1.4418,-1.2963,-1.1209,-0.9554,-0.8874,-0.873,-0.8038,-0.7988,-0.7988,-0.7988,-0.7988,-0.7988,-0.7988,-0.7988,-0.7988,-0.7988,-0.7988,-0.7988,-0.7988,-0.7988,-0.7988,-0.7988,-0.7988,-0.7988,-0.7988,-0.7988,-0.7988,-0.7988,-0.7988,-0.7988,-0.7988,-0.7988,-0.7988,-0.7988,-0.7988,-0.7988,-0.7988,-0.7988,-0.7988,-0.9579,-0.9758,-0.9819,-0.9819,-0.9819,-0.9819,-0.9819,-0.9819,-0.9819,-0.9805,-0.9781,-0.9781,-0.971,-0.9646,-0.9547,-0.9452,-0.9419,-0.9273,-0.9265,-0.921,-0.9127,-0.9066,-0.9008,-0.895,-0.8888,-0.8888,-0.894,-0.8937,-0.8937,-0.8881,-0.8865,-0.8831,-0.8757,-0.8601,-0.8455,-0.8309,-0.8153,-0.8019,-0.8038,-0.8187,-0.9217,-1.0485,-1.1604,-1.2818,-1.4226,-1.5635,-1.5825,-1.5825,-1.5825,-1.5825,-1.5825,-1.5825,-1.5825,-1.5825,-1.5825,-1.5825,-1.5825,-1.5825,-1.5825,-1.5825,-1.5825,-1.5825,-1.5825,-1.5778,-1.5778,-1.5581,-1.5581,-1.5778,-1.5778,-1.5778,-1.5778,-1.5825,-1.5825,-1.5778,-1.5439,-1.5003,-1.3596,-1.2242,-1.0435,-0.8627,-0.8432,-0.8435,-0.8137,-0.8088,-0.8184,-0.8134,-0.8038,-0.7988,-0.7988,-0.7988,-0.7988,-0.7988,-0.7988,-0.7988,-0.7988,-0.7988,-0.7988,-0.7988,-0.7988,-0.7988,-0.7988,-0.7988,-0.7988,-0.7988,-0.7988,-0.7988,-0.7988,-0.7988,-0.7988,-0.7988,-0.7988,-0.7988,-0.7988,-0.7988,-0.7988,-0.8647,-0.9819,-0.9819,-0.9819,-0.9819,-0.9819,-0.9819,-0.9819,-0.9812,-0.9764,-0.9666,-0.9649,-0.9625,-0.9588,-0.933,-0.9272,-0.9198,-0.912,-0.9042,-0.8981,-0.9008,-0.8974,-0.8892,-0.8937,-0.8937,-0.8937,-0.8937,-0.8937,-0.8937,-0.8878,-0.8817,-0.8767,-0.8611,-0.8462,-0.8316,-0.8187,-0.8035,-0.7988,-0.8134,-0.8283,-0.9608,-1.0779,-1.1604,-1.2915,-1.4418,-1.5343,-1.5825,-1.5825,-1.5825,-1.5825,-1.5825,-1.5825,-1.5825,-1.5825,-1.5825,-1.5825,-1.5825,-1.5825,-1.5825,-1.5825,-1.5825,-1.5825,-1.5778,-1.5683,-1.5391,-1.4704,-1.4949,-1.5534,-1.5581,-1.5683,-1.573,-1.5778,-1.5825,-1.5825,-1.5635,-1.4902,-1.3884,-1.2673,-1.1312,-1.0239,-0.9657,-0.9217,-0.8577,-0.8722,-0.9065,-0.8871,-0.8333,-0.8283,-0.7988,-0.7988,-0.7988,-0.7988,-0.7988,-0.7988,-0.7988,-0.7988,-0.7988,-0.7988,-0.7988,-0.7988,-0.7988,-0.7988,-0.7988,-0.7988,-0.7988,-0.7988,-0.7988,-0.7988,-0.7988,-0.7988,-0.7988,-0.7988,-0.7988,-0.7988,-0.7988]}]]